     2              OBSERVATION DATA    GPS                 RINEX VERSION / TYPE
teqc 2000Jul20 Karen Wendt 20040303 23:23:18UTC             PGM / RUN BY / DATE
                                                            COMMENT
L2: 1 -> 1; 150 -> 5; 250 -> 9                              COMMENT
L2: 1 -> 1; 150 -> 5; 250 -> 9                              COMMENT
L2: 1 -> 1; 150 -> 5; 250 -> 9                              COMMENT
L2: 1 -> 1; 150 -> 5; 250 -> 9                              COMMENT
L2: 1 -> 1; 150 -> 5; 250 -> 9                              COMMENT
L2: 1 -> 1; 150 -> 5; 250 -> 9                              COMMENT
L2: 1 -> 1; 150 -> 5; 250 -> 9                              COMMENT
L2: 1 -> 1; 150 -> 5; 250 -> 9                              COMMENT
L2: 1 -> 1; 150 -> 5; 250 -> 9                              COMMENT
L2: 1 -> 1; 150 -> 5; 250 -> 9                              COMMENT
L2: 1 -> 1; 150 -> 5; 250 -> 9                              COMMENT
L2: 1 -> 1; 150 -> 5; 250 -> 9                              COMMENT
L2: 1 -> 1; 150 -> 5; 250 -> 9                              COMMENT
L2: 1 -> 1; 150 -> 5; 250 -> 9                              COMMENT
Original Marker Name: 1009 1009_unstamped_USNavy_12thNavalDiCOMMENT
Campaign Name: USGS San Simeon 2003-2004                    COMMENT
4-Character Station Name: 1009                              COMMENT
6-Character Antenna Code: DMRCHT                            COMMENT
Vertical Measurement Point: BCR                             COMMENT
Vertical Offset to Rinex Ref. Point: 0.0348                 COMMENT
Radial Measurement Point: ECF                               COMMENT
Radial Offset to Rinex Ref. Point: 0.1897                   COMMENT
Antenna Height from Field Measurement: 1.3020 m             COMMENT
Additional Antenna Identification Info.:                    COMMENT
Turborogue and Ashtech Choke Ring                           COMMENT
Original XYZ: -2693926.3138 -4433489.8548 3698016.0106      COMMENT
New XYZ position is based on association with SCEC monument COMMENT
E1F0L8A0+0011. Position of that monument is believed to be  COMMENT
valid to within 1 m horizontally; vertical accuracy         COMMENT
should be no worse than 3-times this value.                 COMMENT
                                                            COMMENT
Revised Rinex header created by UCSD GPS archive for        COMMENT
GSAC on 20-Apr-2005 (2005:110) 16:30:00 GMT                 COMMENT
For assistance contact dagnew@ucsd.edu                      COMMENT
or anderson@python.ucsd.edu                                 COMMENT
                                                            COMMENT
1009 1009_UNSTAMPED_USNAVY_12THNAVALDIST.                   MARKER NAME
CHS US GEOLOGICAL SURVEY                                    OBSERVER / AGENCY
LP019992809 ASHTECH Z-XII3 CD00                             REC # / TYPE / VERS
CR14244 DORNE-MARGOL. TYPE T                                ANT # / TYPE
 -2693942.0000 -4433464.0000  3698003.0000                  APPROX POSITION XYZ
        1.2533        0.0000        0.0000                  ANTENNA: DELTA H/E/N
     1     1     0                                          WAVELENGTH FACT L1/2
     5    C1    L1    L2    P1    P2                        # / TYPES OF OBSERV
    30                                                      INTERVAL
  2004     2    29     0     0   30.000000                  TIME OF FIRST OBS
  2004     2    29    23    59   30.000000                  TIME OF LAST OBS
                                                            END OF HEADER
 04  2 29  0  0 30.0000000  0  9G18G29G15G 6G21G 3G22G26G16
  20362142.215   -27624292.25449 -21481080.90448  20362141.673    20362145.696
  23863055.086    -9811891.92549  -7633455.89745  23863054.831    23863061.340
  21944585.310   -21764817.02349 -14136820.19247  21944584.500    21944590.707
  22057222.522   -20693643.07849 -16116421.37547  22057222.213    22057228.335
  20557331.451   -26738956.61249 -20577182.65948  20557330.806    20557334.501
  23977990.299    -5779845.45749  -4485680.41745  23977989.883    23977997.083
  21822758.717   -20794147.55149 -16170277.70747  21822758.409    21822761.942
  22283531.785   -15043405.57049 -11475620.30346  22283531.762    22283537.548
  23194757.407   -12033997.36849  -9339935.84046  23194756.894    23194762.722
 04  2 29  0  1  0.0000000  0  9G18G29G15G 6G21G 3G22G26G16
  20360348.612   -27633717.59649 -21488425.30248  20360348.074    20360352.102
  23876020.407    -9743759.06749  -7580365.37345  23876020.115    23876026.616
  21932563.250   -21827993.10849 -14186048.24147  21932562.443    21932568.602
  22073711.727   -20606991.88149 -16048901.00747  22073711.418    22073717.555
  20557805.947   -26736462.88949 -20575239.48348  20557805.288    20557808.981
  23959670.460    -5876116.38949  -4560696.64445  23959670.076    23959677.286
  21810017.005   -20861105.12949 -16222452.36947  21810016.720    21810020.243
  22292684.128   -14995309.78149 -11438143.06146  22292684.126    22292689.885
  23200185.763   -12005471.50949  -9317707.90646  23200185.256    23200191.127
 04  2 29  0  1 30.0000000  0  9G18G29G15G 6G21G 3G22G26G16
  20358637.165   -27642711.30349 -21495433.36848  20358636.629    20358640.639
  23889064.187    -9675213.74049  -7526953.44045  23889063.905    23889070.422
  21920562.354   -21891057.88149 -14235189.56347  21920561.551    21920567.709
  22090263.226   -20520013.16649 -15981125.44247  22090262.959    22090269.131
  20558324.132   -26733739.66849 -20573117.48448  20558323.489    20558327.186
  23941386.198    -5972200.36849  -4635567.18945  23941385.853    23941393.101
  21797341.903   -20927712.74349 -16274354.34347  21797341.625    21797345.176
  22301951.645   -14946608.66649 -11400194.14646  22301951.630    22301957.417
  23205703.868   -11976473.64149  -9295112.19446  23205703.406    23205709.202
 04  2 29  0  2  0.0000000  0  9G18G29G15G 6G21G 3G22G26G16
  20357008.594   -27651269.57049 -21502102.12348  20357008.047    20357012.056
  23902186.779    -9606253.85949  -7473218.47345  23902186.530    23902193.016
  21908583.568   -21954006.45949 -14284240.33247  21908582.744    21908588.927
  22106877.657   -20432703.72049 -15913092.15447  22106877.397    22106883.618
  20558886.952   -26730782.10649 -20570812.87548  20558886.309    20558889.986
  23923138.832    -6068090.73049  -4710286.86045  23923138.456    23923145.631
  21784734.377   -20993965.44949 -16325979.75747  21784734.103    21784737.649
  22311334.806   -14897299.71749 -11361771.59746  22311334.775    22311340.630
  23211312.440   -11947000.94049  -9272146.45746  23211311.963    23211317.607
 04  2 29  0  2 30.0000000  0  9G18G29G15G 6G21G 3G22G26G16
  20355462.167   -27659395.71749 -21508434.16048  20355461.637    20355465.641
  23915387.507    -9536883.55049  -7419163.69345  23915387.222    23915393.832
  21896626.647   -22016840.03549 -14333201.50147  21896625.851    21896632.036
  22123554.180   -20345068.31449 -15844804.87547  22123553.872    22123560.147
  20559494.073   -26727591.69649 -20568326.83248  20559493.429    20559497.089
  23904928.407    -6163787.00949  -4784855.30745  23904927.942    23904935.205
  21772194.185   -21059864.40149 -16377329.51947  21772193.874    21772197.401
  22320832.924   -14847386.44349 -11322878.13346  22320832.929    22320838.766
  23217010.542   -11917057.60249  -9248814.01046  23217010.019    23217015.766
 04  2 29  0  3  0.0000000  0  9G18G29G15G 6G21G 3G22G26G16
  20353997.759   -27667091.35349 -21514430.74048  20353997.241    20354001.208
  23928665.778    -9467105.77249  -7364791.43345  23928665.499    23928672.163
  21884691.505   -22079559.24149 -14382073.56047  21884690.694    21884696.905
  22140292.147   -20257109.17749 -15776265.34447  22140291.915    22140298.232
  20560145.420   -26724168.77849 -20565659.61848  20560144.778    20560148.455
  23886755.051    -6259287.86249  -4859271.48145  23886754.704    23886761.815
  21759721.153   -21125410.06049 -16428403.99447  21759720.869    21759724.372
  22330445.657   -14796871.46649 -11283515.79146  22330445.594    22330451.344
  23222797.452   -11886646.26549  -9225116.86046  23222797.022    23222802.905
 04  2 29  0  3 30.0000000  0  9G18G29G15G 6G21G 3G22G26G16
  20352615.426   -27674355.55549 -21520091.12848  20352614.868    20352618.826
  23942021.456    -9396921.30149  -7310102.23845  23942021.184    23942027.849
  21872778.480   -22142162.04949 -14430854.90447  21872777.691    21872783.939
  22157091.819   -20168826.55849 -15707473.74647  22157091.565    22157097.931
  20560841.367   -26720511.45449 -20562809.74448  20560840.716    20560844.420
  23868619.706    -6354589.24049  -4933532.19945  23868619.349    23868626.549
  21747315.796   -21190600.22449 -16479201.45247  21747315.527    21747319.003
  22340172.729   -14745755.22449 -11243684.95846  22340172.621    22340178.511
  23228673.611   -11855767.32849  -9201055.37446  23228673.124    23228678.812
 04  2 29  0  4  0.0000000  0  9G18G29G15G 6G21G 3G22G26G16
  20351314.884   -27681189.84949 -21525416.53148  20351314.348    20351318.293
  23955454.030    -9326332.71149  -7255098.15945  23955453.765    23955460.400
  21860887.704   -22204648.17449 -14479545.34547  21860886.903    21860893.176
  22173952.620   -20080222.77249 -15638431.88146  22173952.342    22173958.672
  20561581.921   -26716619.70949 -20559777.20548  20561581.274    20561584.972
  23850522.772    -6449688.99049  -5007635.79045  23850522.367    23850529.621
  21734978.204   -21255434.59649 -16529721.67447  21734977.938    21734981.392
  22350013.759   -14694039.93649 -11203387.34846  22350013.668    22350019.659
  23234638.207   -11824423.11549  -9176631.33046  23234637.715    23234643.422
 04  2 29  0  4 30.0000000  0  9G18G29G15G 6G21G 3G22G26G16
  20350096.019   -27687594.86349 -21530407.43048  20350095.482    20350099.430
  23968962.980    -9255342.32549  -7199781.00845  23968962.822    23968969.326
  21849019.215   -22267017.23349 -14528144.56247  21849018.390    21849024.697
  22190874.056   -19991300.18149 -15569141.60046  22190873.808    22190880.129
  20562367.217   -26712492.96649 -20556561.56148  20562366.580    20562370.241
  23832464.599    -6544584.87749  -5081580.53145  23832464.169    23832471.414
  21722708.339   -21319912.89649 -16579964.43947  21722708.052    21722711.498
  22359968.529   -14641727.33149 -11162624.28746  22359968.466    22359974.377
  23240690.832   -11792615.87049  -9151846.47046  23240690.345    23240696.255
 04  2 29  0  5  0.0000000  0  9G18G29G15G 6G21G 3G22G26G16
  20348958.493   -27693572.51649 -21535065.31948  20348957.940    20348961.880
  23982547.906    -9183953.10849  -7144153.04245  23982547.738    23982554.214
  21837172.989   -22329269.40449 -14576652.70547  21837172.170    21837178.504
  22207855.712   -19902060.99949 -15499604.61146  22207855.472    22207861.819
  20563197.221   -26708131.46649 -20553162.98648  20563196.555    20563200.216
  23814445.387    -6639275.35449  -5155365.19545  23814445.053    23814452.336
  21710506.243   -21384035.13349 -16629929.75247  21710505.959    21710509.391
  22370036.533   -14588820.19849 -11121397.94046  22370036.446    22370042.233
  23246831.298   -11760348.06249  -9126702.73846  23246830.793    23246836.635
 04  2 29  0  5 30.0000000  0  9G18G29G15G 6G21G 3G22G26G16
  20347902.138   -27699123.67449 -21539390.87648  20347901.581    20347905.530
  23996208.430    -9112167.34149  -7088216.04445  23996208.201    23996214.516
  21825349.017   -22391404.38349 -14625069.52447  21825348.246    21825354.550
  22224897.127   -19812508.09249 -15429823.17246  22224896.844    22224903.220
  20564071.837   -26703535.08649 -20549581.38248  20564071.190    20564074.887
  23796465.812    -6733758.22649  -5228988.10845  23796465.450    23796472.710
  21698371.984   -21447801.23549 -16679617.55647  21698371.650    21698375.050
  22380217.173   -14535320.66849 -11079709.98446  22380217.098    22380222.816
  23253058.958   -11727621.89749  -9101201.83846  23253058.392    23253064.126
 04  2 29  0  6  0.0000000  0  9G18G29G15G 6G21G 3G22G26G16
  20346927.261   -27704246.40349 -21543382.59248  20346926.736    20346930.666
  24009944.499    -9039984.41049  -7031969.58745  24009944.202    24009950.504
  21813548.028   -22453418.76049 -14673392.36747  21813547.276    21813553.574
  22241998.476   -19722639.72149 -15359795.91546  22241998.235    22242004.663
  20564991.825   -26698700.45449 -20545814.12848  20564991.163    20564994.882
  23778526.809    -6828028.18849  -5302445.11045  23778526.479    23778533.609
  21686306.029   -21511207.75949 -16729025.17047  21686305.733    21686309.126
  22390510.623   -14481227.87649 -11037559.75046  22390510.562    22390516.323
  23259373.674   -11694436.65849  -9075343.21046  23259373.161    23259379.058
 04  2 29  0  6 30.0000000  0  9G18G29G15G 6G21G 3G22G26G16
  20346033.049   -27708945.46049 -21547044.17748  20346032.515    20346036.458
  24023754.841    -8967410.21049  -6975418.29545  24023754.610    24023760.878
  21801769.482   -22515315.52549 -14721623.56847  21801768.710    21801774.989
  22259158.826   -19632461.68449 -15289527.35646  22259158.575    22259164.987
  20565956.600   -26693630.49149 -20541863.49948  20565955.945    20565959.647
  23760628.101    -6922086.37349  -5375737.09845  23760627.710    23760634.853
  21674308.001   -21574257.78149 -16778154.98947  21674307.699    21674311.031
  22400915.893   -14426547.21549 -10994951.44946  22400915.858    22400921.686
  23265774.962   -11660798.00549  -9049131.28646  23265774.499    23265780.316
 04  2 29  0  7  0.0000000  0  9G18G29G15G 6G21G 3G22G26G16
  20345219.614   -27713220.18649 -21550375.11548  20345219.088    20345223.024
  24037639.505    -8894445.55849  -6918562.75645  24037639.258    24037645.679
  21790013.651   -22577092.77649 -14769761.63747  21790012.838    21790019.104
  22276377.956   -19541974.73549 -15219018.09246  22276377.665    22276384.112
  20566966.488   -26688323.48549 -20537728.15648  20566965.826    20566969.528
  23742770.282    -7015928.90549  -5448861.02446  23742769.923    23742777.109
  21662378.162   -21636949.27849 -16827005.45047  21662377.858    21662381.144
  22411433.014   -14371279.29449 -10951885.54546  22411433.008    22411438.853
  23272262.541   -11626706.36649  -9022566.38446  23272261.929    23272267.792
 04  2 29  0  7 30.0000000  0  9G18G29G15G 6G21G 3G22G26G16
  20344486.903   -27717070.67149 -21553375.47848  20344486.355    20344490.256
  24051598.219    -8821091.99349  -6861404.15145  24051597.946    24051604.428
  21778280.751   -22638749.33049 -14817805.65847  21778279.960    21778286.158
  22293655.826   -19451179.70249 -15148268.76246  22293655.483    22293661.908
  20568021.676   -26682778.20849 -20533407.15048  20568021.025    20568024.718
  23724954.080    -7109552.98149  -5521814.71746  23724953.756    23724960.960
  21650516.755   -21699281.17449 -16875575.69747  21650516.429    21650519.718
  22422061.764   -14315425.37449 -10908363.02346  22422061.710    22422067.553
  23278835.554   -11592163.21849  -8995649.65746  23278835.118    23278841.016
 04  2 29  0  8  0.0000000  0  9G18G29G15G 6G21G 3G22G26G16
  20343834.899   -27720496.80949 -21556045.17048  20343834.357    20343838.259
  24065630.703    -8747350.25349  -6803943.08045  24065630.490    24065637.012
  21766571.351   -22700282.70649 -14865753.68747  21766570.537    21766576.699
  22310992.124   -19360076.84749 -15077279.55546  22310991.832    22310998.341
  20569122.709   -26676992.37149 -20528898.68248  20569122.063    20569125.733
  23707180.313    -7202954.39649  -5594594.94046  23707179.981    23707187.123
  21638724.184   -21761251.28849 -16923864.02647  21638723.893    21638727.172
  22432801.927   -14258985.76549 -10864384.09946  22432801.804    22432807.662
  23285494.904   -11557169.00449  -8968381.44446  23285494.437    23285500.194
 04  2 29  0  8 30.0000000  0  9G18G29G15G 6G21G 3G22G26G16
  20343263.017   -27723501.86849 -21558386.75848  20343262.492    20343266.378
  24079736.254    -8673225.05149  -6746183.20745  24079736.056    24079742.692
  21754884.967   -22761694.63449 -14913607.08647  21754884.157    21754890.316
  22328386.117   -19268671.22049 -15006054.43946  22328385.790    22328392.249
  20570269.153   -26670967.85149 -20524204.23948  20570268.489    20570272.130
  23689448.985    -7296133.03349  -5667201.58345  23689448.706    23689455.707
  21627000.096   -21822861.71149 -16971872.09047  21626999.770    21627003.059
  22443652.510   -14201965.03449 -10819952.35846  22443652.463    22443658.307
  23292239.289   -11521728.27349  -8940765.30646  23292238.649    23292244.537
 04  2 29  0  9  0.0000000  0  9G18G29G15G 6G21G 3G22G26G16
  20342770.943   -27726087.68649 -21560401.65648  20342770.403    20342774.292
  24093914.138    -8598719.91749  -6688127.28945  24093913.931    24093920.564
  21743221.560   -22822986.04949 -14961366.57747  21743220.761    21743226.872
  22345837.089   -19176965.87349 -14934595.76646  22345836.819    22345843.222
  20571460.767   -26664705.68549 -20519324.60848  20571460.105    20571463.745
  23671760.134    -7389087.90049  -5739633.85345  23671759.802    23671766.896
  21615344.246   -21884113.26949 -17019600.50947  21615343.919    21615347.182
  22454613.106   -14144366.67749 -10775070.51346  22454613.045    22454618.920
  23299067.473   -11485844.42549  -8912803.86146  23299066.921    23299072.995
 04  2 29  0  9 30.0000000  0  9G18G29G15G 6G21G 3G22G26G16
  20342358.696   -27728253.75649 -21562089.48148  20342358.159    20342362.070
  24108164.179    -8523835.35849  -6629775.69645  24108163.965    24108170.617
  21731581.569   -22884154.58449 -15009030.31847  21731580.760    21731586.802
  22363345.105   -19084961.20149 -14862903.85346  22363344.809    22363351.210
  20572698.115   -26658203.16849 -20514257.69648  20572697.458    20572701.109
  23654114.696    -7481814.72849  -5811888.42345  23654114.358    23654121.479
  21603757.152   -21945003.60049 -17067047.45947  21603756.850    21603760.076
  22465683.651   -14086190.79149 -10729738.66446  22465683.621    22465689.503
  23305980.259   -11449517.83549  -8884497.44746  23305979.755    23305985.624
 04  2 29  0 10  0.0000000  0  9G18G29G15G 6G21G 3G22G26G16
  20342026.039   -27730001.77249 -21563451.54648  20342025.509    20342029.424
  24122485.708    -8448574.70049  -6571131.04545  24122485.581    24122492.207
  21719964.871   -22945200.67249 -15056598.64547  21719964.052    21719970.072
  22380909.403   -18992659.93049 -14790980.82246  22380909.159    22380915.577
  20573981.069   -26651461.21549 -20509004.20548  20573980.420    20573984.057
  23636512.975    -7574312.11049  -5883964.21646  23636512.613    23636519.696
  21592238.728   -22005533.31349 -17114213.40547  21592238.394    21592241.605
  22476863.493   -14027440.46049 -10683959.20646  22476863.481    22476869.386
  23312976.791   -11412751.56349  -8855848.41746  23312976.173    23312982.083
 04  2 29  0 10 30.0000000  0  9G18G29G15G 6G21G 3G22G26G16
  20341773.503   -27731328.73849 -21564485.51748  20341772.964    20341776.880
  24136879.386    -8372936.02149  -6512191.85245  24136879.147    24136885.812
  21708372.354   -23006119.35049 -15104067.68447  21708371.527    21708377.539
  22398530.674   -18900059.86849 -14718824.96346  22398530.390    22398536.814
  20575310.545   -26644474.80049 -20503560.22348  20575309.889    20575313.493
  23618956.166    -7666573.40349  -5955856.03946  23618955.767    23618962.872
  21580789.696   -22065698.09249 -17161094.98447  21580789.390    21580792.545
  22488153.085   -13968113.64349 -10637730.51546  22488153.016    22488158.877
  23320057.060   -11375543.72249  -8826855.30546  23320056.511    23320062.688
 04  2 29  0 11  0.0000000  0  9G18G29G15G 6G21G 3G22G26G16
  20341599.925   -27732240.74649 -21565196.15348  20341599.404    20341603.322
  24151343.564    -8296926.47749  -6452963.68945  24151343.333    24151350.031
  21696803.361   -23066914.95849 -15151440.83747  21696802.536    21696808.481
  22416207.433   -18807167.47349 -14646441.31646  22416207.223    22416213.724
  20576685.672   -26637248.56549 -20497929.37648  20576685.007    20576688.595
  23601443.721    -7758601.18049  -6027565.92145  23601443.341    23601450.421
  21569409.363   -22125502.12749 -17207695.46847  21569409.019    21569412.148
  22499550.971   -13908217.41749 -10591058.14946  22499550.905    22499556.737
  23327220.195   -11337901.38849  -8797523.63446  23327219.722    23327225.713
 04  2 29  0 11 30.0000000  0  9G18G29G15G 6G21G 3G22G26G16
  20341505.586   -27732736.44449 -21565582.38448  20341505.059    20341508.968
  24165878.224    -8220546.27749  -6393446.68345  24165877.991    24165884.641
  21685258.247   -23127584.75749 -15198715.94447  21685257.429    21685263.336
  22433939.863   -18713983.32049 -14573830.32646  22433939.626    22433946.109
  20578106.940   -26629779.63649 -20492109.41548  20578106.273    20578109.876
  23583976.716    -7850390.50749  -6099090.01045  23583976.303    23583983.411
  21558098.090   -22184943.07549 -17254013.02847  21558097.760    21558100.890
  22511057.097   -13847751.76049 -10543942.06846  22511057.020    22511062.973
  23334466.094   -11299824.63049  -8767853.46246  23334465.586    23334471.452
 04  2 29  0 12  0.0000000  0  9G18G29G15G 6G21G 3G22G26G16
  20341489.958   -27732818.51249 -21565646.30648  20341489.420    20341493.311
  24180482.771    -8143799.47649  -6333643.98545  24180482.420    24180488.979
  21673736.880   -23188129.82949 -15245893.86847  21673736.065    21673741.951
  22451727.146   -18620511.13249 -14500994.89146  22451726.853    22451733.316
  20579574.107   -26622069.43549 -20486101.45248  20579573.448    20579577.074
  23566555.203    -7941940.80949  -6170427.82045  23566554.814    23566561.866
  21546855.678   -22244022.14349 -17300048.60247  21546855.352    21546858.434
  22522670.925   -13786720.53549 -10496385.27246  22522670.849    22522676.830
  23341793.723   -11261317.20549  -8737847.67446  23341793.283    23341799.264
 04  2 29  0 12 30.0000000  0  9G18G29G15G 6G21G 3G22G26G16
  20341553.645   -27732483.86849 -21565385.51748  20341553.106    20341556.983
  24195157.382    -8066684.09349  -6273554.10845  24195157.091    24195163.548
  21662240.201   -23248545.09549 -15292970.64047  21662239.364    21662245.258
  22469569.770   -18526748.23849 -14427932.92946  22469569.411    22469575.816
  20581088.145   -26614112.87849 -20479901.52448  20581087.510    20581091.142
  23549180.545    -8033245.31849  -6241574.08346  23549180.102    23549187.200
  21535683.015   -22302734.51649 -17345798.43747  21535682.687    21535685.771
  22534392.792   -13725121.55949 -10448386.09246  22534392.724    22534398.733
  23349203.946   -11222376.93349  -8707504.62846  23349203.482    23349209.397
 04  2 29  0 13  0.0000000  0  9G18G29G15G 6G21G 3G22G26G16
  20341695.250   -27731739.54349 -21564805.50948  20341694.738    20341698.596
  24209900.492    -7989208.53049  -6213183.56845  24209900.165    24209906.780
  21650767.251   -23308835.69549 -15339950.27147  21650766.416    21650772.340
  22487465.923   -18432702.92349 -14354650.90246  22487465.632    22487472.029
  20582648.038   -26605915.44749 -20473513.91248  20582647.410    20582651.043
  23531851.800    -8124307.63049  -6312531.62045  23531851.388    23531858.545
  21524578.965   -22361086.17049 -17391267.20247  21524578.684    21524581.745
  22546221.196   -13662963.24949 -10399951.04346  22546221.146    22546227.014
  23356694.885   -11183012.25749  -8676830.88046  23356694.277    23356700.144
 04  2 29  0 13 30.0000000  0  9G18G29G15G 6G21G 3G22G26G16
  20341915.654   -27730581.32649 -21563902.97848  20341915.115    20341918.973
  24224712.739    -7911369.94849  -6152530.14345  24224712.341    24224718.962
  21639319.080   -23368996.02949 -15386828.39047  21639318.242    21639324.157
  22505416.541   -18338371.86149 -14281146.21046  22505416.274    22505422.643
  20584254.906   -26597471.37349 -20466934.10148  20584254.287    20584257.890
  23514570.617    -8215120.27049  -6383294.58545  23514570.212    23514577.377
  21513544.699   -22419071.40649 -17436450.43547  21513544.403    21513547.436
  22558156.530   -13600242.54449 -10351077.78446  22558156.454    22558162.325
  23364266.831   -11143220.26449  -8645824.13446  23364266.315    23364272.315
 04  2 29  0 14  0.0000000  0  9G18G29G15G 6G21G 3G22G26G16
  20342214.006   -27729013.43849 -21562681.23248  20342213.449    20342217.304
  24239592.912    -7833173.82549  -6091598.12245  24239592.559    24239599.201
  21627895.258   -23429028.39749 -15433606.80147  21627894.410    21627900.348
  22523420.478   -18243760.38349 -14207423.01146  22523420.230    22523426.645
  20585908.224   -26588783.09749 -20460164.01448  20585907.593    20585911.177
  23497337.056    -8305683.46549  -6453863.22245  23497336.622    23497343.656
  21502579.649   -22476692.85449 -17481350.20747  21502579.334    21502582.382
  22570197.851   -13536964.77749 -10301770.46046  22570197.817    22570203.701
  23371919.556   -11103006.00149  -8614488.36746  23371918.996    23371924.884
 04  2 29  0 14 30.0000000  0  9G18G29G15G 6G21G 3G22G26G16
  20342590.239   -27727036.24749 -21561140.54248  20342589.688    20342593.544
  24254540.852    -7754621.72549  -6030388.69745  24254540.561    24254547.214
  21616495.977   -23488931.61549 -15480284.57447  21616495.142    21616501.067
  22541477.556   -18148869.86549 -14133482.38146  22541477.330    22541483.756
  20587608.218   -26579849.70149 -20453202.91848  20587607.586    20587611.134
  23480151.379    -8395994.40649  -6524235.25845  23480150.890    23480157.874
  21491683.958   -22533949.71149 -17525965.87547  21491683.657    21491686.723
  22582345.038   -13473131.49649 -10252030.24346  22582344.937    22582350.798
  23379652.100   -11062371.49149  -8582825.10946  23379651.445    23379657.431
 04  2 29  0 15  0.0000000  0  9G18G29G15G 6G21G 3G22G26G16
  20343044.294   -27724650.03049 -21559281.14348  20343043.754    20343047.602
  24269556.272    -7675715.21649  -5968903.11245  24269555.966    24269562.491
  21605121.674   -23548703.83649 -15526860.27847  21605120.846    21605126.767
  22559587.676   -18053701.03449 -14059324.88546  22559587.383    22559593.805
  20589355.159   -26570669.55349 -20446049.55748  20589354.496    20589358.050
  23463014.332    -8486049.73449  -6594408.11045  23463013.813    23463020.846
  21480857.931   -22590840.55149 -17570296.35047  21480857.622    21480860.679
  22594597.557   -13408744.23949 -10201858.36046  22594597.476    22594603.197
  23387464.141   -11021318.03549  -8550835.42146  23387463.625    23387469.601
 04  2 29  0 15 30.0000000  0  9G18G29G15G 6G21G 3G22G26G16
  20343575.767   -27721857.00449 -21557104.73948  20343575.226    20343579.087
  24284638.516    -7596457.48149  -5907143.86845  24284638.144    24284644.855
  21593772.113   -23608345.73749 -15573334.42347  21593771.293    21593777.218
  22577749.955   -17958257.81949 -13984953.58246  22577749.649    22577756.098
  20591148.946   -26561243.00449 -20438704.18748  20591148.285    20591151.840
  23445926.154    -8575847.91149  -6664380.59345  23445925.704    23445932.681
  21470101.421   -22647366.17349 -17614342.22447  21470101.108    21470104.149
  22606954.892   -13343806.19549 -10151257.28646  22606954.791    22606960.532
  23395355.647   -10979848.65649  -8518521.64746  23395355.112    23395360.817
 04  2 29  0 16  0.0000000  0  9G18G29G15G 6G21G 3G22G26G16
  20344184.639   -27718657.25149 -21554611.41048  20344184.094    20344187.953
  24299787.411    -7516849.82549  -5845111.94845  24299787.097    24299793.611
  21582447.832   -23667855.16749 -15619705.35847  21582447.023    21582452.840
  22595964.307   -17862540.81949 -13910368.94746  22595964.010    22595970.491
  20592989.958   -26551568.46749 -20431165.58448  20592989.310    20592992.839
  23428887.817    -8665385.17249  -6734149.76945  23428887.319    23428894.197
  21459414.638   -22703525.14649 -17658102.40147  21459414.337    21459417.400
  22619416.828   -13278318.43649 -10100227.87946  22619416.754    22619422.490
  23403325.832   -10937964.73149  -8485884.84246  23403325.245    23403331.060
 04  2 29  0 16 30.0000000  0  9G18G29G15G 6G21G 3G22G26G16
  20344870.166   -27715054.58549 -21551804.11948  20344869.620    20344873.477
  24315001.756    -7436898.15149  -5782811.92245  24315001.455    24315007.991
  21571148.257   -23727234.81949 -15665975.16147  21571147.455    21571153.196
  22614229.865   -17766554.84549 -13835574.72046  22614229.584    22614236.070
  20594877.665   -26541648.55949 -20423435.77748  20594877.013    20594880.527
  23411898.794    -8754662.55549  -6803716.46445  23411898.280    23411905.000
  21448797.054   -22759320.46949 -17701579.22047  21448796.757    21448799.825
  22631982.279   -13212286.63249 -10048774.54246  22631982.175    22631987.973
  23411373.633   -10895671.90949  -8452929.40246  23411373.223    23411379.185
 04  2 29  0 17  0.0000000  0  9G18G29G15G 6G21G 3G22G26G16
  20345633.278   -27711044.37649 -21548679.27048  20345632.722    20345636.562
  24330282.287    -7356598.67949  -5720240.93445  24330282.006    24330288.578
  21559874.611   -23786478.00749 -15712138.63147  21559873.830    21559879.496
  22632547.184   -17670296.64849 -13760568.36746  22632546.924    22632553.396
  20596813.254   -26531476.86749 -20415509.78048  20596812.623    20596816.120
  23394960.797    -8843671.85649  -6873074.23946  23394960.356    23394967.013
  21438249.855   -22814746.06149 -17744767.93347  21438249.579    21438252.594
  22644651.852   -13145707.40249  -9996894.61746  22644651.734    22644657.525
  23419500.376   -10852966.51249  -8419652.49946  23419499.907    23419505.786
 04  2 29  0 17 30.0000000  0  9G18G29G15G 6G21G 3G22G26G16
  20346472.855   -27706632.20749 -21545241.20548  20346472.320    20346476.179
  24345627.632    -7275958.43449  -5657404.38945  24345627.343    24345633.991
  21548626.211   -23845588.49549 -15758198.71047  21548625.447    21548631.041
  22650915.010   -17573772.81649 -13685355.03946  22650914.798    22650921.325
  20598796.011   -26521057.40349 -20407390.71148  20598795.371    20598798.861
  23378073.472    -8932414.81449  -6942224.46946  23378073.027    23378079.695
  21427772.330   -22869806.00149 -17787671.72447  21427772.012    21427775.014
  22657424.342   -13078587.40449  -9944593.34846  22657424.252    22657430.058
  23427704.080   -10809855.41749  -8386059.45746  23427703.648    23427709.538
 04  2 29  0 18  0.0000000  0  9G18G29G15G 6G21G 3G22G26G16
  20347388.670   -27701819.27349 -21541490.85148  20347388.156    20347392.037
  24361037.294    -7194979.89449  -5594304.25245  24361037.125    24361043.712
  21537403.177   -23904565.65549 -15804154.88947  21537402.407    21537407.986
  22669333.091   -17476985.42349 -13609936.34346  22669332.857    22669339.366
  20600825.970   -26510389.90749 -20399078.36548  20600825.315    20600828.831
  23361237.400    -9020889.00749  -7011165.31346  23361236.962    23361243.540
  21417364.231   -22924500.45649 -17830290.72347  21417363.918    21417366.942
  22670299.295   -13010929.41349  -9891872.83746  22670299.228    22670304.964
  23435984.476   -10766341.25849  -8352152.33646  23435984.066    23435990.201
 04  2 29  0 18 30.0000000  0  9G18G29G15G 6G21G 3G22G26G16
  20348381.198   -27696603.46049 -21537426.56348  20348380.699    20348384.574
  24376511.515    -7113661.93749  -5530939.64545  24376511.362    24376518.060
  21526206.334   -23963405.14249 -15850003.79347  21526205.568    21526211.160
  22687801.694   -17379932.82249 -13534310.98546  22687801.392    22687807.912
  20602904.016   -26499469.47449 -20390568.92548  20602903.387    20602906.906
  23344453.607    -9109088.34049  -7079891.97146  23344453.161    23344459.621
  21407026.526   -22978825.25049 -17872621.66747  21407026.214    21407029.214
  22683276.822   -12942732.13249  -9838732.10246  22683276.735    22683282.509
  23444341.929   -10722422.72949  -8317930.13046  23444341.540    23444347.728
 04  2 29  0 19  0.0000000  0  9G18G29G15G 6G21G 3G22G26G16
  20349449.422   -27690990.19449 -21533052.56648  20349448.870    20349452.716
  24392049.075    -7032011.35449  -5467315.81845  24392048.866    24392055.629
  21515034.925   -24022110.82349 -15895748.43347  21515034.162    21515039.820
  22706319.267   -17282621.95249 -13458484.36846  22706319.002    22706325.609
  20605029.344   -26488300.77649 -20381866.02948  20605028.706    20605032.234
  23327721.589    -9197015.12549  -7148406.24146  23327721.145    23327727.606
  21396758.308   -23032784.80749 -17914668.00947  21396758.013    21396760.960
  22696355.607   -12874002.28049  -9785176.38246  22696355.530    22696361.360
  23452775.171   -10678106.77349  -8283398.23646  23452774.662    23452780.719
 04  2 29  0 19 30.0000000  0  9G18G29G15G 6G21G 3G22G26G16
  20350593.726   -27684976.88849 -21528366.85648  20350593.168    20350596.990
  24407650.306    -6950026.63649  -5403431.60745  24407650.135    24407656.780
  21503889.938   -24080677.86649 -15941385.05047  21503889.167    21503894.845
  22724886.401   -17185050.56449 -13382454.75646  22724886.199    22724892.940
  20607202.837   -26476879.01849 -20372965.94548  20607202.201    20607205.726
  23311042.650    -9284662.87449  -7216703.09646  23311042.272    23311048.739
  21386560.432   -23086374.75749 -17956426.35247  21386560.133    21386563.072
  22709536.116   -12804738.42949  -9731204.55846  22709536.026    22709541.837
  23461283.969   -10633391.71449  -8248555.35746  23461283.531    23461289.629
 04  2 29  0 20  0.0000000  0  9G18G29G15G 6G21G 3G22G26G16
  20351813.254   -27678567.82249 -21523372.76248  20351812.743    20351816.589
  24423314.101    -6867713.26649  -5339291.30245  24423313.891    24423320.398
  21492770.929   -24139108.60649 -15986915.45747  21492770.145    21492775.822
  22743502.080   -17087224.48849 -13306226.69546  22743501.891    22743508.687
  20609424.034   -26465206.42749 -20363870.40848  20609423.403    20609426.914
  23294416.734    -9372032.17449  -7284782.98646  23294416.371    23294422.832
  21376432.280   -23139598.31249 -17997899.19547  21376431.964    21376434.922
  22722817.080   -12734946.25149  -9676821.07546  22722816.992    22722822.906
  23469867.954   -10588283.29249  -8213405.96846  23469867.489    23469873.582
 04  2 29  0 20 30.0000000  0  9G18G29G15G 6G21G 3G22G26G16
  20353108.276   -27671762.26949 -21518069.71048  20353107.777    20353111.599
  24439040.212    -6785071.94949  -5274895.49545  24439040.015    24439046.639
  21481678.361   -24197400.21149 -16032337.44447  21481677.584    21481683.316
  22762166.280   -16989143.69549 -13229800.15346  22762166.070    22762172.938
  20611693.373   -26453280.83449 -20354577.72248  20611692.742    20611696.261
  23277844.704    -9459118.77049  -7352642.58546  23277844.324    23277850.730
  21366374.252   -23192453.27549 -18039084.82147  21366373.957    21366376.949
  22736198.511   -12664626.37449  -9622026.38946  22736198.457    22736204.385
  23478526.555   -10542781.92949  -8177950.36146  23478526.075    23478532.278
 04  2 29  0 21  0.0000000  0  9G18G29G15G 6G21G 3G22G26G16
  20354478.653   -27664561.13849 -21512458.41748  20354478.128    20354481.921
  24454828.389    -6702104.97949  -5210245.91645  24454828.105    24454834.739
  21470612.445   -24255551.69749 -16077650.25047  21470611.665    21470617.385
  22780878.604   -16890810.16249 -13153176.66746  22780878.326    22780885.147
  20614010.955   -26441101.74849 -20345087.51348  20614010.338    20614013.883
  23261326.895    -9545919.99749  -7420279.81146  23261326.469    23261332.900
  21356386.435   -23244939.34949 -18079983.00447  21356386.142    21356389.108
  22749680.032   -12593781.25549  -9566822.39646  22749679.905    22749685.711
  23487259.349   -10496889.92549  -8142190.38446  23487258.969    23487265.160
 04  2 29  0 21 30.0000000  0  9G18G29G15G 6G21G 3G22G26G16
  20355923.668   -27656967.43649 -21506541.22248  20355923.148    20355926.915
  24470677.532    -6618816.39149  -5145345.74445  24470677.302    24470684.001
  21459573.034   -24313564.10949 -16122854.68947  21459572.237    21459577.987
  22799638.269   -16792227.68949 -13076359.20146  22799637.999    22799644.804
  20616376.578   -26428670.23749 -20335400.61048  20616375.980    20616379.501
  23244863.485    -9632434.86949  -7487693.92146  23244863.087    23244869.581
  21346468.495   -23297058.08149 -18120594.94947  21346468.208    21346471.157
  22763260.589   -12522414.75349  -9511212.15646  22763260.443    22763266.302
  23496066.044   -10450611.43349  -8106129.24946  23496065.622    23496071.538
 04  2 29  0 22  0.0000000  0  9G18G29G15G 6G21G 3G22G26G16
  20357443.568   -27648980.25449 -21500317.41848  20357443.036    20357446.799
  24486587.910    -6535206.57149  -5080195.22345  24486587.718    24486594.331
  21448560.600   -24371434.69449 -16167948.60847  21448559.801    21448565.516
  22818445.338   -16693395.98849 -12999347.52646  22818445.159    22818451.890
  20618790.857   -26415983.18349 -20325514.57548  20618790.229    20618793.774
  23228455.629    -9718658.92849  -7554881.40646  23228455.146    23228461.663
  21336620.955   -23348807.16849 -18160918.85147  21336620.655    21336623.580
  22776940.219   -12450527.43549  -9455196.07946  22776940.123    22776946.034
  23504945.976   -10403946.97749  -8069767.34046  23504945.555    23504951.559
 04  2 29  0 22 30.0000000  0  9G18G29G15G 6G21G 3G22G26G16
  20359037.561   -27640603.54549 -21493790.08748  20359037.032    20359040.808
  24502558.541    -6451280.62849  -5014798.37145  24502558.352    24502564.959
  21437574.826   -24429165.11349 -16212933.30747  21437574.026    21437579.717
  22837298.848   -16594320.88149 -12922146.18646  22837298.547    22837305.299
  20621253.311   -26403042.69949 -20315431.06848  20621252.694    20621256.232
  23212102.954    -9804592.49049  -7621842.54946  23212102.457    23212108.941
  21326843.224   -23400189.20849 -18200956.75347  21326842.924    21326845.856
  22790717.947   -12378124.67549  -9398778.35846  22790717.884    22790723.799
  23513898.336   -10356901.63349  -8033108.65546  23513897.917    23513904.130
 04  2 29  0 23  0.0000000  0  9G18G29G15G 6G21G 3G22G26G16
  20360705.355   -27631838.72049 -21486960.33748  20360704.867    20360708.657
  24518588.759    -6367041.30449  -4949157.33845  24518588.654    24518595.146
  21426615.858   -24486754.76749 -16257808.32847  21426615.053    21426620.684
  22856198.213   -16495003.94449 -12844756.40646  22856197.964    22856204.742
  20623764.035   -26389848.66949 -20305149.99948  20623763.426    20623766.957
  23195805.978    -9890233.17249  -7688575.48746  23195805.498    23195812.003
  21317135.338   -23451204.30949 -18240708.73047  21317135.025    21317137.937
  22804593.350   -12305208.98149  -9341960.93146  22804593.328    22804599.222
  23522922.970   -10309478.12049  -7996155.30346  23522922.460    23522928.614
 04  2 29  0 23 30.0000000  0  9G18G29G15G 6G21G 3G22G26G16
  20362447.871   -27622681.72849 -21479824.99548  20362447.371    20362451.165
  24534679.207    -6282485.60249  -4883269.83045  24534679.035    24534685.696
  21415684.809   -24544197.69849 -16302569.00347  21415683.991    21415689.641
  22875144.171   -16395442.20749 -12767175.86646  22875143.957    22875150.689
  20626324.166   -26376395.20249 -20294666.76248  20626323.543    20626327.085
  23179566.234    -9975573.31749  -7755074.20646  23179565.781    23179572.272
  21307498.290   -23501847.10249 -18280170.59047  21307497.986    21307500.895
  22818566.824   -12231777.80649  -9284741.84046  22818566.825    22818572.678
  23532019.618   -10261673.87349  -7958905.26046  23532019.143    23532025.382
 04  2 29  0 24  0.0000000  0  9G18G29G15G 6G21G 3G22G26G16
  20364264.109   -27613137.45349 -21472387.87948  20364263.604    20364267.363
  24550828.637    -6197619.84149  -4817140.71445  24550828.435    24550835.107
  21404781.073   -24601496.77949 -16347217.59447  21404780.279    21404785.928
  22894135.652   -16295641.66349 -12689409.24846  22894135.420    22894142.052
  20628933.021   -26362685.59849 -20283983.94448  20628932.377    20628935.937
  23163383.468   -10060614.12149  -7821339.70046  23163383.034    23163389.471
  21297931.424   -23552120.95749 -18319344.97247  21297931.139    21297934.028
  22832637.222   -12157837.46649  -9227125.99346  22832637.204    22832643.150
  23541187.569   -10213494.83749  -7921363.17746  23541187.195    23541193.453
 04  2 29  0 24 30.0000000  0  9G18G29G15G 6G21G 3G22G26G16
  20366153.289   -27603209.58049 -21464651.86648  20366152.796    20366156.542
  24567036.176    -6112448.58749  -4750773.53645  24567035.985    24567042.778
  21393904.518   -24658653.21849 -16391755.04547  21393903.719    21393909.359
  22913171.802   -16195606.27249 -12611459.64446  22913171.591    22913178.167
  20631590.295   -26348721.24849 -20273102.62548  20631589.668    20631593.242
  23147257.601   -10145355.34549  -7887371.75246  23147257.158    23147263.587
  21288434.413   -23602027.92949 -18358233.47847  21288434.134    21288437.019
  22846803.597   -12083392.55849  -9169116.99346  22846803.577    22846809.521
  23550426.627   -10164945.67249  -7883532.69946  23550426.139    23550432.167
 04  2 29  0 25  0.0000000  0  9G18G29G15G 6G21G 3G22G26G16
  20368115.989   -27592895.55149 -21456614.94448  20368115.487    20368119.214
  24583302.100    -6026970.85749  -4684167.51745  24583301.885    24583308.630
  21383055.945   -24715662.70949 -16436177.98247  21383055.149    21383060.791
  22932252.801   -16095335.40249 -12533326.54746  22932252.582    22932259.125
  20634296.924   -26334497.80949 -20262019.40948  20634296.294    20634299.865
  23131189.983   -10229790.75349  -7953165.50646  23131189.591    23131195.924
  21279007.804   -23651564.70449 -18396833.51447  21279007.520    21279010.425
  22861066.178   -12008442.31949  -9110714.20346  22861066.193    22861072.053
  23559735.779   -10116025.54549  -7845413.12146  23559735.225    23559741.383
 04  2 29  0 25 30.0000000  0  9G18G29G15G 6G21G 3G22G26G16
  20370151.641   -27582198.10949 -21448279.26448  20370151.128    20370154.862
  24599625.604    -5941190.50349  -4617325.66545  24599625.363    24599632.054
  21372235.252   -24772525.92849 -16480486.94447  21372234.440    21372240.071
  22951378.066   -15994832.33149 -12455012.50046  22951377.692    22951384.246
  20637052.567   -26320016.77849 -20250735.47248  20637051.926    20637055.503
  23115180.720   -10313919.66749  -8018720.42646  23115180.364    23115186.686
  21269651.403   -23700732.72549 -18435146.20747  21269651.127    21269654.048
  22875424.098   -11932990.90949  -9051920.90946  22875424.074    22875430.053
  23569114.529   -10066738.63649  -7807007.75046  23569114.112    23569120.338
 04  2 29  0 26  0.0000000  0  9G18G29G15G 6G21G 3G22G26G16
  20372259.977   -27571118.65349 -21439645.91448  20372259.448    20372263.186
  24616006.242    -5855110.08849  -4550249.98145  24616005.964    24616012.464
  21361442.465   -24829242.20449 -16524681.41147  21361441.671    21361447.248
  22970546.830   -15894099.56549 -12376519.47246  22970546.531    22970553.143
  20639857.417   -26305277.13849 -20239250.02748  20639856.804    20639860.353
  23099230.180   -10397739.73949  -8084034.69146  23099229.856    23099236.186
  21260365.240   -23749531.73449 -18473171.36747  21260364.966    21260367.879
  22889876.879   -11857040.96049  -8992739.14046  22889876.878    22889882.903
  23578563.202   -10017087.50449  -7768318.59946  23578562.650    23578568.624
 04  2 29  0 26 30.0000000  0  9G18G29G15G 6G21G 3G22G26G16
  20374440.996   -27559657.22249 -21430714.91748  20374440.468    20374444.241
  24632443.665    -5768731.15649  -4482941.72145  24632443.225    24632449.905
  21350678.080   -24885809.51149 -16568759.79347  21350677.274    21350682.806
  22989759.136   -15793138.28049 -12297848.39146  22989758.890    22989765.585
  20642711.784   -26290277.22149 -20227561.76148  20642711.168    20642714.720
  23083339.241   -10481247.26349  -8149105.39946  23083338.847    23083345.192
  21251149.437   -23797960.85349 -18510908.28847  21251149.166    21251152.039
  22904424.293   -11780594.11549  -8933170.17146  22904424.287    22904430.184
  23588080.492    -9967073.71649  -7729346.82545  23588079.933    23588085.999
 04  2 29  0 27  0.0000000  0  9G18G29G15G 6G21G 3G22G26G16
  20376694.360   -27547815.63149 -21421487.69548  20376693.838    20376697.629
  24648937.193    -5682056.39249  -4415403.00545  24648936.807    24648943.688
  21339942.109   -24942227.06949 -16612721.48547  21339941.316    21339946.888
  23009014.576   -15691950.60049 -12219000.90246  23009014.271    23009021.017
  20645615.735   -26275016.76249 -20215670.47848  20645615.128    20645618.668
  23067508.099   -10564440.24749  -8213931.02046  23067507.677    23067514.041
  21242004.038   -23846020.15749 -18548357.04747  21242003.777    21242006.627
  22919065.696   -11703653.30149  -8873216.28346  22919065.621    22919071.525
  23597665.989    -9916699.94249  -7690094.52745  23597665.646    23597671.846
 04  2 29  0 27 30.0000000  0  9G18G29G15G 6G21G 3G22G26G16
  20379019.494   -27535596.77549 -21411966.49848  20379018.989    20379022.771
  24665486.222    -5595090.09249  -4347637.08445  24665485.889    24665492.851
  21329234.519   -24998495.86549 -16656567.27047  21329233.719    21329239.261
  23028312.191   -15590540.77349 -12139980.31446  23028311.991    23028318.698
  20648569.036   -26259497.15049 -20203577.25948  20648568.404    20648571.909
  23051736.931   -10647317.85049  -8278510.90446  23051736.515    23051742.818
  21232928.686   -23893711.54249 -18585519.11647  21232928.429    21232931.232
  22933800.166   -11626223.13249  -8812881.10046  22933800.121    22933806.006
  23607319.687    -9865970.80149  -7650565.35945  23607319.273    23607325.386
 04  2 29  0 28  0.0000000  0  9G18G29G15G 6G21G 3G22G26G16
  20381416.609   -27522999.82249 -21402150.67248  20381416.099    20381419.862
  24682090.876    -5507832.55149  -4279644.18845  24682090.584    24682097.457
  21318555.701   -25054612.86849 -16700294.75547  21318554.912    21318560.481
  23047652.391   -15488908.00549 -12060785.99346  23047652.112    23047658.753
  20651572.175   -26243715.50749 -20191279.85548  20651571.545    20651575.049
  23036026.709   -10729875.46649  -8342841.44746  23036026.291    23036032.484
  21223923.772   -23941032.68349 -18622392.66747  21223923.484    21223926.242
  22948627.650   -11548303.72049  -8752164.68946  22948627.567    22948633.621
  23617040.827    -9814886.45049  -7610759.38845  23617040.334    23617046.375
 04  2 29  0 28 30.0000000  0  9G18G29G15G 6G21G 3G22G26G16
  20383885.286   -27510026.89749 -21392041.88348  20383884.770    20383888.502
  24698750.353    -5420286.87049  -4211426.76245  24698750.031    24698756.907
  21307905.884   -25110577.89549 -16743903.83147  21307905.074    21307910.644
  23067034.183   -15387056.26949 -11981421.06046  23067033.895    23067040.528
  20654625.162   -26227671.90049 -20178778.33048  20654624.531    20654628.026
  23020377.687   -10812111.42249  -8406921.34346  23020377.275    23020383.378
  21214989.107   -23987984.31849 -18658978.30647  21214988.829    21214991.559
  22963547.525   -11469898.84949  -8691070.00046  22963547.487    22963553.565
  23626828.596    -9763450.68949  -7570679.57645  23626828.156    23626834.464
 04  2 29  0 29  0.0000000  0  9G18G29G15G 6G21G 3G22G26G16
  20386425.074   -27496680.40549 -21381642.00048  20386424.532    20386428.262
  24715463.808    -5332457.13749  -4142988.00245  24715463.491    24715470.404
  21297284.878   -25166391.37749 -16787394.81547  21297284.077    21297289.677
  23086456.865   -15284989.20649 -11901888.34346  23086456.659    23086463.294
  20657727.916   -26211366.83149 -20166073.06648  20657727.273    20657730.778
  23004790.087   -10894024.60849  -8470749.70946  23004789.586    23004795.779
  21206124.527   -24034567.88149 -18695277.13047  21206124.256    21206126.966
  22978559.184   -11391012.46449  -8629600.08146  22978559.134    22978565.095
  23636682.775    -9711667.28949  -7530328.89645  23636682.315    23636688.538
 04  2 29  0 29 30.0000000  0  9G18G29G15G 6G21G 3G22G26G16
  20389036.025   -27482959.63249 -21370950.47348  20389035.524    20389039.245
  24732231.384    -5244343.30949  -4074327.87045  24732230.983    24732237.759
  21286693.294   -25222050.27649 -16830765.34947  21286692.529    21286698.120
  23105920.779   -15182706.16749 -11822187.32346  23105920.494    23105927.194
  20660880.818   -26194798.01049 -20153162.28948  20660880.200    20660883.696
  22989264.861   -10975610.16549  -8534322.80046  22989264.364    22989270.475
  21197330.369   -24080781.23149 -18731287.48647  21197330.094    21197332.799
  22993662.374   -11311645.09949  -8567755.37646  22993662.328    22993668.197
  23646603.228    -9659536.44549  -7489707.48045  23646602.648    23646608.549
 04  2 29  0 30  0.0000000  0  9G18G29G15G 6G21G 3G22G26G16
  20391717.573   -27468867.92549 -21359969.89848  20391717.048    20391720.768
  24749051.942    -5155950.30049  -4005450.22545  24749051.488    24749058.282
  21276130.898   -25277555.84049 -16874016.39147  21276130.122    21276135.721
  23125424.649   -15080212.07349 -11742321.84846  23125424.411    23125431.184
  20664083.699   -26177966.77049 -20140047.02148  20664083.063    20664086.585
  22973801.938   -11056867.95849  -8597640.49646  22973801.498    22973807.517
  21188606.274   -24126626.35949 -18767010.90547  21188606.013    21188608.687
  23008856.099   -11231801.65149  -8505539.71546  23008856.090    23008861.950
  23656588.339    -9607063.35449  -7448819.36745  23656587.736    23656593.695
 04  2 29  0 30 30.0000000  0  9G18G29G15G 6G21G 3G22G26G16
  20394469.876   -27454404.37049 -21348699.57848  20394469.363    20394473.067
  24765925.625    -5067278.26249  -3936355.16645  24765925.088    24765931.845
  21265598.347   -25332904.70549 -16917145.33447  21265597.563    21265603.146
  23144968.626   -14977507.10549 -11662292.06146  23144968.532    23144975.386
  20667337.034   -26160870.16949 -20126724.98548  20667336.431    20667339.975
  22958402.233   -11137793.42249  -8660699.22546  22958401.839    22958407.828
  21179952.651   -24172101.29749 -18802445.87347  21179952.374    21179955.027
  23024140.265   -11151482.62849  -8442953.48146  23024140.289    23024146.126
  23666638.574    -9554248.24249  -7407664.75345  23666638.187    23666644.265
 04  2 29  0 31  0.0000000  0  9G18G29G15G 6G21G 3G22G26G16
  20397292.564   -27439571.00149 -21337141.08548  20397292.049    20397295.745
  24782851.724    -4978330.47649  -3867045.20145  24782851.288    24782858.080
  21255095.620   -25388096.74149 -16960152.06847  21255094.844    21255100.418
  23164552.616   -14874593.54849 -11582099.73846  23164552.364    23164559.251
  20670640.877   -26143508.44549 -20113196.35648  20670640.264    20670643.783
  22943066.084   -11218384.78449  -8723497.62546  22943065.766    22943071.686
  21171369.351   -24217206.54249 -18837592.76747  21171369.086    21171371.733
  23039514.413   -11070691.37449  -8379999.25546  23039514.385    23039520.170
  23676753.846    -9501094.49449  -7366246.26545  23676753.225    23676759.227
 04  2 29  0 31 30.0000000  0  9G18G29G15G 6G21G 3G22G26G16
  20400185.136   -27424370.35749 -21325296.40948  20400184.606    20400188.305
  24799829.843    -4889110.31949  -3797523.00445  24799829.625    24799836.291
  21244622.763   -25443131.97049 -17003036.62547  21244621.974    21244627.495
  23184175.679   -14771474.78349 -11501747.52346  23184175.249    23184182.242
  20673995.128   -26125881.91549 -20099461.38748  20673994.501    20673997.988
  22927793.911   -11298640.63549  -8786034.59946  22927793.539    22927799.369
  21162856.173   -24261943.23949 -18872452.48747  21162855.910    21162858.595
  23054977.556   -10989431.81649  -8316680.12546  23054977.552    23054983.404
  23686932.265    -9447605.77849  -7324566.76945  23686931.609    23686937.772
 04  2 29  0 32  0.0000000  0  9G18G29G15G 6G21G 3G22G26G16
  20403147.277   -27408804.13149 -21313166.86448  20403146.755    20403150.452
  24816859.108    -4799620.64449  -3727790.77845  24816858.906    24816865.655
  21234179.804   -25498009.84649 -17045798.56047  21234179.034    21234184.545
  23203837.046   -14668153.56049 -11421237.52446  23203836.708    23203843.639
  20677399.783   -26107990.40449 -20085519.93948  20677399.144    20677402.607
  22912585.939   -11378558.62049  -8848308.28246  22912585.537    22912591.397
  21154413.042   -24306311.88749 -18907025.41447  21154412.775    21154415.479
  23070529.204   -10907707.00249  -8252998.47246  23070529.205    23070535.204
  23697173.486    -9393785.14349  -7282628.63745  23697173.008    23697179.243
 04  2 29  0 32 30.0000000  0  9G18G29G15G 6G21G 3G22G26G16
  20406179.376   -27392870.36449 -21300750.92648  20406178.846    20406182.522
  24833939.833    -4709861.19849  -3657848.36645  24833939.541    24833946.320
  21223767.588   -25552726.53449 -17088434.90247  21223766.802    21223772.274
  23223536.988   -14564629.04949 -11340569.13746  23223536.760    23223543.793
  20680855.393   -26089830.82349 -20071369.61048  20680854.742    20680858.232
  22897443.262   -11458133.58649  -8910314.68746  22897442.860    22897448.659
  21146040.520   -24350309.63449 -18941309.33447  21146040.261    21146042.940
  23086169.429   -10825517.04749  -8188954.36446  23086169.427    23086175.486
  23707478.672    -9339632.26049  -7240431.60345  23707478.143    23707484.101
 04  2 29  0 33  0.0000000  0 10G18G29G15G14G 6G21G 3G22G26G16
  20409280.185   -27376575.33449 -21288053.48348  20409279.640    20409283.310
  24851070.571    -4619839.02949  -3587701.21145  24851070.292    24851076.911
  21213385.234   -25607285.80449 -17130948.57347  21213384.450    21213389.916
  24671551.183    -7198468.74249  -5596788.84845  24671550.621    24671559.742
  23243274.523   -14460908.20849 -11259747.76546  23243274.216    23243281.175
  20684361.407   -26071406.31349 -20057012.83448  20684360.775    20684364.278
  22882365.502   -11537367.71249  -8972055.49346  22882365.009    22882370.803
  21137737.613   -24393941.38149 -18975308.05747  21137737.349    21137740.020
  23101896.907   -10742869.19149  -8124553.44446  23101896.849    23101902.762
  23717845.775    -9285154.78549  -7197981.65545  23717845.108    23717851.081
 04  2 29  0 33 30.0000000  0  9G18G15G14G 6G21G 3G22G26G16
  20412449.937   -27359918.13349 -21275073.83048  20412449.395    20412453.070
  21203033.520   -25661684.41149 -17173337.05747  21203032.736    21203038.169
  24649935.527    -7312060.66749  -5685301.72245  24649934.645    24649943.316
  23263049.266   -14356991.60749 -11178773.84346  23263048.986    23263055.853
  20687918.401   -26052714.26849 -20042447.59648  20687917.763    20687921.244
  22867353.341   -11616256.40649  -9033527.13846  22867352.921    22867358.709
  21129504.811   -24437204.76849 -19009019.74947  21129504.558    21129507.208
  23117711.183   -10659764.19849  -8059796.31945  23117711.132    23117717.044
  23728273.920    -9230353.17249  -7155279.10845  23728273.318    23728279.619
 04  2 29  0 34  0.0000000  0  9G18G15G14G 6G21G 3G22G26G16
  20415688.600   -27342898.60549 -21261811.84448  20415688.083    20415691.740
  21192712.821   -25715919.75849 -17215598.31747  21192712.031    21192717.484
  24628318.680    -7425657.81049  -5773818.63445  24628317.482    24628326.087
  23282861.059   -14252879.43049 -11097647.54246  23282860.811    23282867.874
  20691526.592   -26033753.04049 -20027672.60048  20691525.955    20691529.414
  22852407.747   -11694795.81549  -9094726.61046  22852407.347    22852413.152
  21121342.350   -24480098.56349 -19042443.45147  21121342.089    21121344.767
  23133612.277   -10576203.18949  -7994683.86846  23133612.273    23133618.222
  23738763.608    -9175228.55149  -7112324.88345  23738763.096    23738769.338
 04  2 29  0 34 30.0000000  0  9G18G15G14G 6G21G 3G22G26G16
  20418995.877   -27325518.73549 -21248269.07448  20418995.354    20418999.003
  21182423.253   -25769991.54449 -17257732.13647  21182422.454    21182427.911
  24606700.922    -7539258.03349  -5862337.96845  24606699.777    24606708.456
  23302709.646   -14148574.27149 -11016370.85646  23302709.520    23302716.594
  20695186.086   -26014522.25849 -20012687.56648  20695185.461    20695188.895
  22837528.943   -11772984.01049  -9155652.40346  22837528.568    22837534.447
  21113250.119   -24522623.39849 -19075579.64847  21113249.861    21113252.504
  23149599.545   -10492189.54349  -7929218.70745  23149599.525    23149605.524
  23749314.473    -9119784.05549  -7069121.42545  23749314.001    23749319.926
 04  2 29  0 35  0.0000000  0  9G18G15G14G 6G21G 3G22G26G16
  20422371.391   -27307780.37049 -21234446.94848  20422370.847    20422374.470
  21172164.931   -25823899.25249 -17299738.09647  21172164.156    21172169.605
  24585082.603    -7652859.39449  -5950858.18745  24585081.812    24585090.348
  23322594.402   -14044079.87449 -10934946.71546  23322594.154    23322601.309
  20698896.868   -25995021.94649 -19997492.50648  20698896.242    20698899.669
  22822717.372   -11850819.30749  -9216303.20946  22822717.012    22822722.835
  21105227.952   -24564780.00249 -19108428.91447  21105227.685    21105230.316
  23165672.238   -10407726.76949  -7863403.56545  23165672.209    23165678.116
  23759925.560    -9064023.21349  -7025671.44345  23759925.027    23759930.885
 04  2 29  0 35 30.0000000  0  9G18G15G14G 6G21G 3G22G26G16
  20425814.665   -27289685.85249 -21220347.30148  20425814.133    20425817.742
  21161937.879   -25877642.51049 -17341615.91647  21161937.096    21161942.543
  24563464.528    -7766459.99549  -6039377.81045  24563464.109    24563472.768
  23342514.782   -13939398.30449 -10853376.71345  23342514.463    23342521.678
  20702658.945   -25975251.97349 -19982087.32048  20702658.318    20702661.764
  22807973.373   -11928299.51549  -9276677.32846  22807972.949    22807978.810
  21097275.770   -24606568.98049 -19140991.71547  21097275.490    21097278.110
  23181829.726   -10322818.51249  -7797241.30045  23181829.743    23181835.563
  23770596.006    -9007949.37549  -6981977.57045  23770595.478    23770601.451
 04  2 29  0 36  0.0000000  0  9G18G15G14G 6G21G 3G22G26G16
  20429325.603   -27271235.52049 -21205970.40448  20429325.102    20429328.704
  21151742.383   -25931219.95349 -17383364.53847  21151741.614    21151747.052
  24541847.562    -7880056.53949  -6127894.29145  24541847.093    24541855.959
  23362470.245   -13834531.86149 -10771662.67545  23362469.948    23362477.149
  20706472.499   -25955211.56249 -19966471.40548  20706471.888    20706475.330
  22793297.367   -12005422.12149  -9336772.79646  22793296.959    22793302.883
  21089393.489   -24647990.32949 -19173268.05747  21089393.207    21089395.838
  23198071.666   -10237466.99749  -7730733.64145  23198071.719    23198077.519
  23781325.774    -8951565.00549  -6938041.72745  23781325.190    23781330.958
 04  2 29  0 36 30.0000000  0  9G18G15G14G 6G21G 3G22G26G16
  20432903.846   -27252431.63549 -21191318.01148  20432903.335    20432906.953
  21141578.559   -25984631.08149 -17424983.56047  21141577.760    21141583.232
  24520231.953    -7993647.33849  -6216406.27545  24520231.417    24520240.147
  23382460.282   -13729483.52849 -10689806.87845  23382460.030    23382467.228
  20710337.447   -25934900.94549 -19950644.93748  20710336.822    20710340.274
  22778689.796   -12082185.32049  -9396588.21046  22778689.362    22778695.239
  21081581.077   -24689044.82749 -19205258.53447  21081580.805    21081583.398
  23214397.250   -10151675.86649  -7663883.43245  23214397.267    23214403.002
  23792113.889    -8894873.41249  -6893866.49145  23792113.214    23792119.004
 04  2 29  0 37  0.0000000  0  9G18G15G14G 6G21G 3G22G26G16
  20436549.923   -27233271.26649 -21176387.84048  20436549.401    20436553.026
  21131447.500   -26037870.13249 -17466468.50847  21131446.704    21131452.137
  24498618.989    -8107224.98649  -6304908.03945  24498618.210    24498626.603
  23402485.517   -13624250.05849 -10607806.84545  23402485.316    23402492.434
  20714254.841   -25914314.80949 -19934603.78248  20714254.230    20714257.681
  22764151.907   -12158582.14049  -9456118.14146  22764151.476    22764157.324
  21073839.307   -24729727.90349 -19236959.60047  21073839.025    21073841.631
  23230806.823   -10065443.28049  -7596689.23845  23230806.818    23230812.545
  23802960.330    -8837872.56849  -6849450.27645  23802959.833    23802966.048
 04  2 29  0 37 30.0000000  0  9G18G15G14G 6G21G 3G22G26G16
  20440262.278   -27213762.56149 -21161186.23248  20440261.761    20440265.392
  21121347.967   -26090943.42349 -17507824.28247  21121347.166    21121352.652
  24477007.754    -8220793.91749  -6393402.99245  24477006.542    24477015.026
  23422544.127   -13518841.76549 -10525670.58145  23422543.890    23422551.064
  20718223.534   -25893459.29849 -19918352.71748  20718222.903    20718226.376
  22749682.800   -12234617.31749  -9515366.25746  22749682.413    22749688.273
  21066166.790   -24770047.03349 -19268377.06447  21066166.546    21066169.137
  23247298.500    -9978779.33749  -7529158.87045  23247298.510    23247304.092
  23813864.474    -8780572.55249  -6804800.96045  23813863.924    23813870.034
 04  2 29  0 38  0.0000000  0  9G18G15G14G 6G21G 3G22G26G16
  20444041.047   -27193904.88749 -21145712.70748  20444040.525    20444044.175
  21111280.649   -26143847.51849 -17549048.23047  21111279.825    21111285.257
  24455398.978    -8334349.30649  -6481887.39245  24455397.431    24455405.694
  23442636.037   -13413258.38749 -10443397.89745  23442635.760    23442642.970
  20722244.000   -25872331.65549 -19901889.60648  20722243.350    20722246.828
  22735283.520   -12310286.09949  -9574328.89246  22735283.101    22735288.888
  21058564.028   -24809999.90349 -19299509.12947  21058563.740    21058566.310
  23263872.147    -9891684.50749  -7461292.78645  23263872.066    23263877.708
  23824825.527    -8722973.95849  -6759918.98245  23824824.858    23824830.716
 04  2 29  0 38 30.0000000  0  9G18G15G14G 6G21G 3G22G26G16
  20447886.388   -27173697.61249 -21129966.77048  20447885.863    20447889.504
  21101246.057   -26196579.57649 -17590138.12447  21101245.252    21101250.676
  24433793.494    -8447886.59349  -6570357.68145  24433791.769    24433800.001
  23462761.155   -13307500.26549 -10360989.05045  23462760.908    23462768.108
  20726316.626   -25850929.71049 -19885212.75748  20726315.980    20726319.458
  22720954.756   -12385584.23949  -9633002.72246  22720954.321    22720960.058
  21051031.228   -24849584.87349 -19330354.52348  21051030.945    21051033.495
  23280527.490    -9804159.94549  -7393091.88445  23280527.416    23280533.210
  23835842.642    -8665077.48949  -6714804.89345  23835842.021    23835847.848
 04  2 29  0 39  0.0000000  0  9G18G15G14G 6G21G 3G22G26G16
  20451797.890   -27153142.71349 -21113949.94848  20451797.355    20451800.947
  21091244.276   -26249139.12549 -17631093.58647  21091243.446    21091248.878
  24412191.531    -8561403.71649  -6658812.26045  24412190.033    24412198.146
  23482918.890   -13201570.63849 -10278446.55645  23482918.703    23482925.907
  20730441.456   -25829253.30449 -19868322.02948  20730440.824    20730444.327
  22706696.817   -12460509.97449  -9691386.34646  22706696.401    22706702.155
  21043568.247   -24888803.02249 -19360914.07348  21043567.971    21043570.492
  23297263.915    -9716209.20249  -7324558.86045  23297263.850    23297269.741
  23846915.528    -8606886.75049  -6669461.48945  23846915.183    23846921.093
 04  2 29  0 39 30.0000000  0  9G18G15G14G 6G21G 3G22G26G16
  20455775.169   -27132241.89849 -21097663.58348  20455774.612    20455778.195
  21081275.437   -26301525.57149 -17671914.17247  21081274.617    21081280.029
  24390593.741    -8674898.52849  -6747249.45845  24390592.335    24390600.560
  23503108.764   -13095472.00149 -10195772.36045  23503108.636    23503115.858
  20734618.617   -25807302.00349 -19851217.10648  20734617.993    20734621.478
  22692510.120   -12535061.27849  -9749478.22146  22692509.742    22692515.470
  21036174.988   -24927654.75549 -19391188.10948  21036174.709    21036177.230
  23314080.842    -9627835.54049  -7255696.27945  23314080.787    23314086.662
  23858044.297    -8548404.76549  -6623891.13445  23858043.970    23858050.035
 04  2 29  0 40  0.0000000  0  9G18G15G14G 6G21G 3G22G26G16
  20459817.839   -27110997.34549 -21081109.37248  20459817.293    20459820.866
  21071339.608   -26353738.31949 -17712599.39647  21071338.796    21071344.275
  24369000.640    -8788368.76049  -6835667.52045  24368999.323    24369007.630
  23523330.330   -12989207.17849 -10112968.67445  23523330.227    23523337.448
  20738848.075   -25785076.03549 -19833898.15448  20738847.455    20738850.923
  22678395.043   -12609236.35149  -9807276.92046  22678394.654    22678400.390
  21028851.255   -24966140.86849 -19421177.24348  21028850.980    21028853.524
  23330977.555    -9539042.52649  -7186506.91345  23330977.511    23330983.353
  23869228.207    -8489635.05249  -6578096.59345  23869227.648    23869233.852
 04  2 29  0 40 30.0000000  0  9G18G15G14G 6G21G 3G22G26G16
  20463925.869   -27089409.41849 -21064287.60248  20463925.319    20463928.923
  21061437.283   -26405775.14049 -17753147.54847  21061436.501    21061441.911
  24347413.005    -8901810.59349  -6924063.45745  24347411.888    24347420.066
  23543583.349   -12882777.59449 -10030036.62145  23543583.106    23543590.397
  20743130.142   -25762573.58549 -19816363.76747  20743129.510    20743133.000
  22664352.196   -12683031.90849  -9864779.90046  22664351.826    22664357.481
  21021597.236   -25004260.77549 -19450881.02448  21021596.971    21021599.491
  23347953.753    -9449831.82049  -7116992.09445  23347953.698    23347959.670
  23880465.935    -8430579.28649  -6532079.14845  23880465.389    23880471.718
 04  2 29  0 41  0.0000000  0  9G18G15G14G 6G21G 3G22G26G16
  20468098.727   -27067480.73949 -21047200.29948  20468098.200    20468101.815
  21051568.466   -26457636.03049 -17793558.59347  21051567.653    21051573.119
  24325831.075    -9015222.59349  -7012436.15345  24325830.109    24325838.221
  23563867.191   -12776186.82149  -9946978.94545  23563866.854    23563873.953
  20747464.725   -25739795.11649 -19798614.29447  20747464.100    20747467.584
  22650381.744   -12756446.51549  -9921986.02346  22650381.397    22650387.086
  21014412.691   -25042015.67949 -19480300.37848  21014412.415    21014414.918
  23365008.657    -9360207.61349  -7047155.07745  23365008.661    23365014.708
  23891757.511    -8371241.39749  -6485841.87145  23891757.030    23891763.330
 04  2 29  0 41 30.0000000  0  9G18G15G14G 6G21G 3G22G26G16
  20472336.108   -27045212.98549 -21029848.79648  20472335.577    20472339.172
  21041733.194   -26509320.50149 -17833832.17647  21041732.392    21041737.836
  24304255.253    -9128602.68349  -7100783.99045  24304254.385    24304262.358
  23584181.109   -12669436.89449  -9863797.24845  23584180.831    23584187.856
  20751851.800   -25716740.68349 -19780649.79247  20751851.192    20751854.669
  22636484.152   -12829478.43849  -9978893.96846  22636483.808    22636489.468
  21007297.410   -25079406.50549 -19509436.05248  21007297.141    21007299.659
  23382141.722    -9270173.30049  -6976998.47345  23382141.690    23382147.783
  23903102.437    -8311624.60449  -6439387.26545  23903101.867    23903108.124
 04  2 29  0 42  0.0000000  0  9G18G15G14G 6G21G 3G22G26G16
  20476638.231   -27022605.17749 -21012232.31048  20476637.709    20476641.294
  21031932.215   -26560825.10649 -17873965.59747  21031931.407    21031936.819
  24282686.585    -9241945.78449  -7189103.00345  24282685.657    24282693.553
  23604525.161   -12562528.07649  -9780491.75445  23604524.928    23604532.042
  20756291.978   -25693407.52049 -19762468.09347  20756291.359    20756294.821
  22622660.336   -12902122.95949 -10035500.02446  22622659.949    22622665.669
  21000251.877   -25116430.87449 -19538286.16648  21000251.608    21000254.106
  23399352.614    -9179729.50349  -6906522.81145  23399352.575    23399358.698
  23914500.028    -8251729.76049  -6392715.98145  23914499.497    23914505.914
 04  2 29  0 42 30.0000000  0  9G18G15G14G 6G21G 3G22G26G16
  20481003.965   -26999662.83849 -20994355.15648  20481003.466    20481007.044
  21022164.823   -26612153.00149 -17913961.32547  21022164.009    21022169.400
  24261124.750    -9355253.38349  -7277394.36345  24261123.734    24261131.550
  23624898.351   -12455466.89849  -9697067.54046  23624898.053    23624905.252
  20760784.557   -25669798.79749 -19744071.67647  20760783.918    20760787.363
  22608909.803   -12974381.91549 -10091805.63946  22608909.408    22608915.150
  20993275.236   -25153093.40149 -19566854.32848  20993274.978    20993277.399
  23416640.045    -9088883.46549  -6835733.72645  23416640.007    23416646.160
  23925949.107    -8191563.73249  -6345833.39745  23925948.670    23925955.143
 04  2 29  0 43  0.0000000  0  9G18G15G14G 6G21G 3G22G26G16
  20485434.359   -26976381.19649 -20976213.60748  20485433.829    20485437.392
  21012432.539   -26663296.63649 -17953813.46847  21012431.726    21012437.081
  24239571.382    -9468516.40949  -7365651.00345  24239570.196    24239577.943
  23645301.344   -12348249.56649  -9613521.62946  23645300.999    23645308.165
  20765330.835   -25645907.74049 -19725455.25547  20765330.231    20765333.658
  22595234.421   -13046246.56949 -10147804.01346  22595233.975    22595239.693
  20986368.566   -25189387.91549 -19595135.72748  20986368.300    20986370.733
  23434004.740    -8997631.57949  -6764628.37045  23434004.646    23434010.856
  23937450.918    -8131122.73549  -6298736.58345  23937450.437    23937456.550
 04  2 29  0 43 30.0000000  0  9G18G15G14G 6G21G 3G22G26G16
  20489927.811   -26952767.96549 -20957813.67448  20489927.269    20489930.833
  21002734.297   -26714261.08049 -17993525.97847  21002733.480    21002738.809
  24218025.702    -9581738.42049  -7453875.68745  24218024.521    24218032.466
  23665732.307   -12240884.39549  -9529860.53845  23665731.935    23665739.233
  20769929.762   -25621740.10249 -19706623.31647  20769929.157    20769932.593
  22581633.192   -13117721.03649 -10203498.34346  22581632.791    22581638.466
  20979530.707   -25225321.15449 -19623135.61448  20979530.443    20979532.857
  23451444.849    -8905983.11449  -6693213.98445  23451444.752    23451450.848
  23949003.042    -8070416.08349  -6251432.73645  23949002.631    23949008.732
 04  2 29  0 44  0.0000000  0  9G18G15G14G 6G21G 3G22G26G16
  20494484.257   -26928823.55649 -20939155.68248  20494483.724    20494487.272
  20993070.536   -26765044.43349 -18033097.38347  20993069.720    20993075.008
  24196488.322    -9694915.94049  -7542065.69145  24196487.231    24196495.191
  23686191.091   -12133373.01349  -9446085.51445  23686190.761    23686198.031
  20774581.618   -25597294.35449 -19687574.66947  20774581.027    20774584.469
  22568106.830   -13188802.32549 -10258886.30446  22568106.405    22568112.037
  20972761.664   -25260892.62949 -19650853.61048  20972761.389    20972763.750
  23468960.073    -8813940.37849  -6621492.36545  23468959.907    23468965.969
  23960604.991    -8009445.76349  -6203923.42145  23960604.689    23960611.185
 04  2 29  0 44 30.0000000  0  9G18G15G14G 6G21G 3G22G26G16
  20499104.266   -26904545.14149 -20920237.42648  20499103.746    20499107.284
  20983442.272   -26815641.07749 -18072523.30347  20983441.476    20983446.749
  24174960.722    -9808041.85749  -7630215.49945  24174959.913    24174967.869
  23706678.182   -12025713.30649  -9362194.91745  23706677.868    23706685.039
  20779287.428   -25572565.08749 -19668305.09647  20779286.829    20779290.303
  22554656.596   -13259483.45949 -10313962.45246  22554656.177    22554661.861
  20966062.284   -25296097.97849 -19678286.31448  20966062.007    20966064.345
  23486550.598    -8721501.80349  -6549462.31745  23486550.479    23486556.529
  23972257.801    -7948210.22949  -6156207.47545  23972257.481    23972263.996
 04  2 29  0 45  0.0000000  0  9G18G15G14G 6G21G 3G22G26G16
  20503787.228   -26879935.76149 -20901061.26648  20503786.714    20503790.274
  20973849.430   -26866051.76849 -18111804.31847  20973848.607    20973853.868
  24153443.274    -9921115.07049  -7718324.25045  24153442.530    24153450.463
  23727192.640   -11917908.83349  -9278191.51845  23727192.356    23727199.639
  20784046.886   -25547553.91349 -19648815.85247  20784046.264    20784049.734
  22541282.596   -13329763.83649 -10368726.31146  22541282.145    22541287.899
  20959432.109   -25330939.53649 -19705435.54248  20959431.827    20959434.171
  23504215.478    -8628672.15849  -6477127.54845  23504215.400    23504221.482
  23983960.410    -7886714.17549  -6108288.51945  23983959.980    23983966.184
 04  2 29  0 45 30.0000000  0  9G18G15G14G 6G21G 3G22G26G16
  20508532.355   -26855000.02249 -20881630.80948  20508531.839    20508535.374
  20964291.530   -26916278.65949 -18150942.12147  20964290.714    20964295.963
  24131936.019   -10034136.28149  -7806392.46845  24131935.040    24131942.925
  23747733.471   -11809965.42549  -9194079.86145  23747733.227    23747740.629
  20788859.511   -25522263.60649 -19629109.11147  20788858.863    20788862.326
  22527984.691   -13399644.46849 -10423178.71546  22527984.301    22527989.920
  20952870.510   -25365420.89949 -19732304.11048  20952870.230    20952872.579
  23521953.645    -8535457.68349  -6404492.90845  23521953.560    23521959.547
  23995711.108    -7824963.55349  -6060171.20345  23995710.675    23995716.990
 04  2 29  0 46  0.0000000  0  9G18G15G14G 6G21G 3G22G26G16
  20513339.709   -26829737.35149 -20861945.59648  20513339.181    20513342.709
  20954769.314   -26966317.93949 -18189933.73347  20954768.506    20954773.782
  24110439.654   -10147100.37449  -7894416.19045  24110438.601    24110446.197
  23768300.887   -11701883.22349  -9109860.04645  23768300.658    23768307.926
  20793725.774   -25496691.15349 -19609182.51747  20793725.134    20793728.576
  22514763.778   -13469120.68549 -10477315.96346  22514763.364    22514768.994
  20946377.842   -25399539.93049 -19758890.33448  20946377.555    20946379.875
  23539764.872    -8441859.09749  -6331558.97445  23539764.779    23539770.815
  24007510.107    -7762959.07249  -6011856.06245  24007509.647    24007516.061
 04  2 29  0 46 30.0000000  0  9G18G15G14G 6G21G 3G22G26G16
  20518208.673   -26804150.70149 -20842007.93248  20518208.140    20518211.673
  20945282.746   -27016170.00149 -18228779.46047  20945281.933    20945287.199
  24088954.235   -10260006.10249  -7982394.43645  24088953.245    24088960.570
  23788894.046   -11593666.23949  -9025535.20545  23788893.761    23788900.983
  20798645.628   -25470837.16749 -19589036.54447  20798644.978    20798648.401
  22501619.902   -13538191.65349 -10531137.43846  22501619.533    22501625.191
  20939953.799   -25433298.35549 -19785195.57048  20939953.522    20939955.842
  23557648.370    -8347880.57649  -6258328.97845  23557648.250    23557654.309
  24019356.692    -7700705.00949  -5963346.43745  24019356.316    24019362.766
 04  2 29  0 47  0.0000000  0  9G18G15G14G 6G21G 3G22G26G16
  20523139.586   -26778238.30249 -20821816.43348  20523139.066    20523142.609
  20935832.575   -27065830.75749 -18267476.11747  20935831.785    20935837.037
  24067480.783   -10372847.83749  -8070322.81045  24067479.891    24067487.145
  23809512.976   -11485313.30149  -8941104.44545  23809512.767    23809519.856
  20803619.684   -25444698.26249 -19568668.55447  20803619.044    20803622.468
  22488554.187   -13606852.28849 -10584639.17346  22488553.868    22488559.445
  20933598.871   -25466693.82449 -19811217.97948  20933598.581    20933600.875
  23575604.145    -8253522.46649  -6184803.20645  23575603.998    23575610.122
  24031250.891    -7638201.34649  -5914642.33645  24031250.442    24031256.949
 04  2 29  0 47 30.0000000  0  9G18G15G14G 6G21G 3G22G26G16
  20528131.528   -26752005.47649 -20801375.25348  20528131.001    20528134.547
  20926418.312   -27115302.87649 -18306025.78347  20926417.523    20926422.782
  24046019.258   -10485626.64849  -8158202.13945  24046018.689    24046025.910
  23830156.490   -11376830.80549  -8856572.73445  23830156.395    23830163.491
  20808647.313   -25418277.76349 -19548081.13947  20808646.664    20808650.101
  22475566.379   -13675103.86649 -10637822.16046  22475566.040    22475571.555
  20927312.162   -25499730.62649 -19836960.90748  20927311.854    20927314.125
  23593630.883    -8158791.52749  -6110986.90245  23593630.689    23593636.855
  24043191.053    -7575454.82049  -5865748.98345  24043190.576    24043197.261
 04  2 29  0 48  0.0000000  0  9G18G15G14G 6G21G 3G22G26G16
  20533184.696   -26725450.77349 -20780683.26748  20533184.172    20533187.719
  20917040.713   -27164582.38549 -18344425.37247  20917039.915    20917045.151
  24024570.797   -10598337.17249  -8246028.26945  24024570.356    24024577.535
  23850824.828   -11268218.24749  -8771939.65745  23850824.767    23850831.810
  20813729.151   -25391572.19849 -19527271.60347  20813728.516    20813731.965
  22462657.303   -13742941.55849 -10690682.64446  22462656.956    22462662.424
  20921094.156   -25532406.25949 -19862422.41348  20921093.888    20921096.138
  23611728.460    -8063688.01349  -6036880.28345  23611728.301    23611734.462
  24055177.491    -7512465.78749  -5816666.66245  24055176.967    24055183.491
 04  2 29  0 48 30.0000000  0  9G18G15G14G 6G21G 3G22G26G16
  20538298.872   -26698575.50849 -20759741.48748  20538298.352    20538301.897
  20907700.022   -27213667.86049 -18382673.75747  20907699.241    20907704.438
  24003136.142   -10710976.34349  -8333798.82445  24003135.885    24003142.799
  23871517.642   -11159478.08049  -8687207.14345  23871517.442    23871524.471
  20818865.414   -25364580.83449 -19506239.36047  20818864.790    20818868.241
  22449827.361   -13810362.99649 -10743218.76746  22449827.038    22449832.519
  20914944.835   -25564720.95549 -19887602.65948  20914944.565    20914946.821
  23629896.445    -7968214.86149  -5962485.59845  23629896.233    23629902.268
  24067209.967    -7449236.57049  -5767397.20345  24067209.387    24067215.678
 04  2 29  0 49  0.0000000  0  9G18G15G14G 6G21G 3G22G26G16
  20543473.181   -26671384.28649 -20738553.50648  20543472.670    20543476.222
  20898395.929   -27262561.19649 -18420772.42647  20898395.132    20898400.311
  23981715.150   -10823544.55149  -8421514.07545  23981714.645    23981721.591
  23892233.770   -11050615.37949  -8602379.15345  23892233.551    23892240.401
  20824055.644   -25337306.01449 -19484986.24747  20824055.027    20824058.437
  22437076.521   -13877368.73249 -10795430.96846  22437076.206    22437081.705
  20908863.596   -25596678.01649 -19912504.22648  20908863.315    20908865.536
  23648133.628    -7872377.85249  -5887807.41345  23648133.408    23648139.458
  24079286.879    -7385773.07349  -5717945.18945  24079286.187    24079292.517
 04  2 29  0 49 30.0000000  0  9G18G15G14G 6G21G 3G22G26G16
  20548707.515   -26643877.52749 -20717119.65748  20548707.026    20548710.547
  20889128.836   -27311260.00549 -18458719.50947  20889128.028    20889133.214
  23960308.367   -10936038.02749  -8509171.07645  23960307.654    23960314.607
  23912972.864   -10941631.47349  -8517456.70945  23912972.583    23912979.441
  20829300.087   -25309746.36549 -19463511.18847  20829299.456    20829302.883
  22424405.457   -13943955.76249 -10847316.91346  22424405.128    22424410.539
  20902850.489   -25628276.98849 -19937126.76548  20902850.198    20902852.392
  23666439.459    -7776179.08149  -5812847.38545  23666439.355    23666445.459
  24091407.473    -7322077.17649  -5668312.07345  24091406.907    24091413.351
 04  2 29  0 50  0.0000000  0  9G18G15G14G 6G21G 3G22G26G16
  20554002.443   -26616052.46949 -20695437.78148  20554001.961    20554005.471
  20879899.714   -27359759.25649 -18496511.10047  20879898.917    20879904.050
  23938916.921   -11048450.04849  -8596764.62645  23938916.184    23938923.202
  23933735.147   -10832524.46849  -8432438.36245  23933735.020    23933741.968
  20834599.635   -25281897.14249 -19441810.48647  20834598.987    20834602.419
  22411815.142   -14010117.79449 -10898871.68246  22411814.804    22411820.273
  20896906.155   -25659514.46449 -19961467.62048  20896905.873    20896908.082
  23684814.449    -7679617.62349  -5737604.68745  23684814.484    23684820.569
  24103572.553    -7258148.00749  -5618497.18345  24103572.044    24103578.614
 04  2 29  0 50 30.0000000  0  9G18G15G14G 6G21G 3G22G26G16
  20559356.625   -26587916.18649 -20673513.39348  20559356.124    20559359.605
  20870707.804   -27408062.98549 -18534150.33747  20870706.990    20870712.119
  23917540.238   -11160783.15649  -8684296.67745  23917539.663    23917546.640
  23954519.384   -10723301.99649  -8347330.02845  23954519.302    23954526.399
  20839953.295   -25253763.22749 -19419887.94747  20839952.651    20839956.110
  22399305.173   -14075858.08249 -10950097.83046  22399304.834    22399310.280
  20891029.580   -25690395.86149 -19985531.01248  20891029.291    20891031.520
  23703256.994    -7582701.81949  -5662085.87645  23703256.947    23703263.014
  24115781.186    -7193993.84749  -5568507.01445  24115780.532    24115786.937
 04  2 29  0 51  0.0000000  0  9G18G15G14G 6G21G 3G22G26G16
  20564770.043   -26559468.35649 -20651346.24048  20564769.526    20564773.023
  20861553.562   -27456168.69249 -18571635.27447  20861552.778    20861557.846
  23896179.360   -11273033.41049  -8771764.17145  23896178.920    23896185.890
  23975325.506   -10613965.72149  -8262133.01945  23975325.298    23975332.396
  20845361.540   -25225342.67949 -19397742.05847  20845360.897    20845364.353
  22386876.087   -14141173.04249 -11000992.55446  22386875.739    22386881.156
  20885220.903   -25720920.68749 -20009316.55348  20885220.593    20885222.789
  23721766.507    -7485433.49649  -5586292.41045  23721766.483    23721772.518
  24128032.002    -7129616.26849  -5518342.74045  24128031.192    24128037.728
 04  2 29  0 51 30.0000000  0  9G18G15G14G 6G21G 3G22G26G16
  20570243.039   -26530707.51649 -20628935.18548  20570242.517    20570246.022
  20852437.897   -27504071.83849 -18608962.36547  20852437.088    20852442.164
  23874835.531   -11385194.71749  -8859162.35945  23874835.216    23874842.076
  23996153.617   -10504513.98049  -8176846.02245  23996153.388    23996160.532
  20850824.981   -25196631.88649 -19375370.00347  20850824.385    20850827.799
  22374529.085   -14206057.04349 -11051551.46746  22374528.696    22374534.082
  20879480.647   -25751085.81749 -20032821.81148  20879480.327    20879482.528
  23740343.237    -7387812.31949  -5510223.99345  23740343.162    23740349.235
  24140324.732    -7065014.91749  -5468004.06545  24140324.013    24140330.931
 04  2 29  0 52  0.0000000  0  9G18G15G14G 6G21G 3G22G26G16
  20575774.586   -26501638.98349 -20606284.36948  20575774.088    20575777.577
  20843360.271   -27551774.86349 -18646133.52447  20843359.463    20843364.533
  23853508.485   -11497268.14149  -8946492.06545  23853508.160    23853514.987
  24017002.544   -10394953.13749  -8091474.04245  24017002.245    24017009.436
  20856343.224   -25167633.57249 -19352773.90147  20856342.604    20856345.990
  22362263.677   -14270511.69049 -11101775.81446  22362263.278    22362268.736
  20873808.030   -25780895.42249 -20056050.04048  20873807.724    20873809.925
  23758985.829    -7289844.88849  -5433885.77445  23758985.806    23758991.826
  24152659.026    -7000196.19749  -5417496.03245  24152658.502    24152665.524
 04  2 29  0 52 30.0000000  0  9G18G15G14G 6G21G 3G22G26G16
  20581364.601   -26472263.35249 -20583394.25748  20581364.088    20581367.575
  20834321.092   -27599276.05049 -18683147.40547  20834320.270    20834325.345
  23832198.819   -11609250.27549  -9033750.66745  23832198.502    23832205.214
  24037871.918   -10285284.74349  -8006018.24545  24037871.568    24037878.771
  20861916.289   -25138346.93349 -19329953.13847  20861915.656    20861919.046
  22350080.517   -14334534.16349 -11151663.41546  22350080.172    22350085.597
  20868203.091   -25810349.42849 -20079001.17748  20868202.784    20868204.951
  23777693.891    -7191533.87549  -5357279.77645  23777693.885    23777699.757
  24165034.888    -6935162.55149  -5366820.53745  24165034.295    24165041.107
 04  2 29  0 53  0.0000000  0  9G18G15G14G 6G21G 3G22G26G16
  20587012.742   -26442582.24049 -20560266.10548  20587012.208    20587015.697
  20825320.484   -27646574.39049 -18720003.22847  20825319.671    20825324.753
  23810907.010   -11721138.76549  -9120936.29345  23810906.693    23810913.313
  24058761.169   -10175511.48449  -7920480.74945  24058760.776    24058768.135
  20867544.320   -25108771.38649 -19306907.24247  20867543.690    20867547.077
  22337980.017   -14398122.76049 -11201212.92646  22337979.659    22337985.022
  20862665.695   -25839448.69649 -20101675.89748  20862665.367    20862667.524
  23796466.749    -7092882.61049  -5280408.66845  23796466.709    23796472.590
  24177450.834    -6869917.27449  -5315980.14445  24177450.129    24177456.935
 04  2 29  0 53 30.0000000  0  9G18G15G14G 6G21G 3G22G26G16
  20592718.879   -26412596.31949 -20536900.44148  20592718.328    20592721.796
  20816358.907   -27693667.56549 -18756699.18247  20816358.115    20816363.187
  23789633.866   -11832929.81649  -9208046.01645  23789633.340    23789639.906
  24079670.068   -10065634.90549  -7834862.73645  24079669.622    24079676.968
  20873227.566   -25078905.54649 -19283635.14647  20873226.956    20873230.311
  22325962.664   -14461274.26649 -11250421.83746  22325962.288    22325967.653
  20857195.778   -25868192.83549 -20124073.89348  20857195.474    20857197.653
  23815303.851    -6993893.09649  -5203274.01045  23815303.839    23815309.714
  24189906.434    -6804462.27649  -5264976.29845  24189905.897    24189912.761
 04  2 29  0 54  0.0000000  0  9G18G15G14G 6G21G 3G22G26G16
  20598482.634   -26382307.73649 -20513298.93348  20598482.058    20598485.503
  20807436.505   -27740555.06249 -18793234.86847  20807435.702    20807440.810
  23768379.705   -11944621.17949  -9295078.03845  23768379.074    23768385.526
  24100598.014    -9955657.80249  -7749166.39145  24100597.564    24100604.862
  20878966.060   -25048749.58649 -19260136.98147  20878965.463    20878968.818
  22314028.676   -14523987.18749 -11299288.99746  22314028.310    22314033.681
  20851793.330   -25896582.73149 -20146195.85648  20851793.024    20851795.209
  23834204.582    -6894568.83449  -5125878.52645  23834204.613    23834210.485
  24202401.173    -6738800.94049  -5213811.67845  24202400.766    24202407.726
 04  2 29  0 54 30.0000000  0  9G18G15G14G 6G21G 3G22G26G16
  20604303.525   -26351718.54649 -20489463.19448  20604302.968    20604306.434
  20798553.372   -27787236.00249 -18829609.61247  20798552.602    20798557.703
  23747144.915   -12056210.82249  -9382030.82645  23747144.075    23747150.494
  24121544.403    -9845582.84549  -7663393.80045  24121544.083    24121551.455
  20884759.752   -25018303.50649 -19236412.75947  20884759.112    20884762.484
  22302178.631   -14586259.90749 -11347813.15247  22302178.223    22302183.553
  20846458.099   -25924619.44549 -20168042.61748  20846457.798    20846459.943
  23853168.294    -6794913.65649  -5048225.17345  23853168.345    23853174.290
  24214934.916    -6672937.02149  -5162489.20245  24214934.360    24214941.122
 04  2 29  0 55  0.0000000  0  9G18G15G14G 6G21G 3G22G26G16
  20610181.748   -26320828.20049 -20465392.78448  20610181.198    20610184.670
  20789710.152   -27833707.37649 -18865821.05147  20789709.344    20789714.474
  23725930.255   -12167694.20749  -9468900.80745  23725929.311    23725935.696
  24142509.248    -9735411.00549  -7577545.71845  24142509.149    24142516.535
  20890609.133   -24987564.73149 -19212460.45547  20890608.513    20890611.837
  22290412.945   -14648088.69949 -11395991.38247  22290412.569    22290417.891
  20841190.301   -25952301.79949 -20189613.25148  20841190.004    20841192.144
  23872194.842    -6694928.62949  -4970314.75945  23872194.853    23872200.629
  24227506.909    -6606871.61749  -5111009.72945  24227506.336    24227512.911
 04  2 29  0 55 30.0000000  0  9G18G15G14G 6G21G 3G22G26G16
  20616116.826   -26289639.04849 -20441089.53448  20616116.290    20616119.757
  20780906.797   -27879969.12749 -18901869.14247  20780905.988    20780911.122
  23704735.931   -12279069.50549  -9555686.59345  23704735.204    23704741.566
  24163492.079    -9625145.22149  -7491624.42545  24163492.032    24163499.539
  20896514.139   -24956533.83149 -19188280.51847  20896513.515    20896516.815
  22278731.990   -14709472.29149 -11443822.69546  22278731.585    22278736.864
  20835989.646   -25979631.27349 -20210908.91048  20835989.345    20835991.495
  23891283.349    -6594617.86549  -4892150.54445  23891283.408    23891289.178
  24240116.338    -6540608.63749  -5059376.32145  24240115.788    24240122.457
 04  2 29  0 56  0.0000000  0  9G18G15G14G 6G21G 3G22G26G16
  20622108.184   -26258154.12649 -20416555.81848  20622107.632    20622111.135
  20772143.357   -27926021.15449 -18937753.81647  20772142.565    20772147.670
  23683562.312   -12390335.29949  -9642387.06545  23683561.782    23683568.154
  24184492.317    -9514788.81149  -7405632.54645  24184492.194    24184499.702
  20902474.591   -24925211.40549 -19163873.42247  20902473.978    20902477.259
  22267135.956   -14770409.80549 -11491306.42547  22267135.513    22267140.764
  20830855.803   -26006609.86449 -20231931.15748  20830855.489    20830857.621
  23910433.035    -6493985.83449  -4813736.00345  23910432.982    23910438.872
  24252762.422    -6474152.27849  -5007592.18245  24252761.783    24252768.655
 04  2 29  0 56 30.0000000  0  9G18G15G14G 6G21G 3G22G26G16
  20628156.128   -26226371.86449 -20391790.41248  20628155.585    20628159.076
  20763420.651   -27971859.37849 -18973471.88947  20763419.843    20763424.930
  23662410.736   -12501486.32049  -9728998.11245  23662410.295    23662416.665
  24205509.693    -9404342.51049  -7319570.61445  24205509.555    24205517.053
  20908491.024   -24893594.96349 -19139237.22447  20908490.403    20908493.683
  22255625.664   -14830896.67749 -11538439.00747  22255625.241    22255630.462
  20825789.133   -26033235.29649 -20252678.21648  20825788.826    20825790.961
  23929643.729    -6393032.84649  -4735071.35945  23929643.712    23929649.588
  24265445.488    -6407502.88549  -4955657.64645  24265444.891    24265451.588
 04  2 29  0 57  0.0000000  0  9G18G15G14G 6G21G 3G22G26G16
  20634259.524   -26194298.22449 -20366797.95448  20634258.980    20634262.486
  20754738.022   -28017486.63149 -19009025.57047  20754737.204    20754742.304
  23641280.869   -12612523.92149  -9815520.76845  23641280.313    23641286.688
  24226543.097    -9293811.84849  -7233442.94245  24226542.962    24226550.542
  20914562.770   -24861687.60949 -19114374.34147  20914562.150    20914565.428
  22244200.725   -14890934.89949 -11585221.99147  22244200.311    22244205.546
  20820788.725   -26059512.43649 -20273153.87948  20820788.438    20820790.540
  23948914.135    -6291766.20449  -4656162.30545  23948914.112    23948919.982
  24278164.149    -6340667.58649  -4903578.27245  24278163.586    24278170.022
 04  2 29  0 57 30.0000000  0  9G18G15G14G 6G21G 3G22G26G16
  20640419.131   -26161929.06249 -20341575.21948  20640418.616    20640422.092
  20746096.842   -28062896.18249 -19044409.61147  20746096.027    20746101.109
  23620174.235   -12723439.73749  -9901948.54045  23620173.555    23620179.916
  24247593.110    -9183193.84149  -7147247.21845  24247592.960    24247600.609
  20920691.064   -24829483.28849 -19089280.05847  20920690.408    20920693.740
  22232862.606   -14950517.01049 -11631649.56147  22232862.200    22232867.444
  20815855.544   -26085436.26549 -20293354.23648  20815855.243    20815857.343
  23968244.742    -6190183.23949  -4577006.74645  23968244.699    23968250.682
  24290918.352    -6273643.61649  -4851351.89045  24290917.827    24290924.442
 04  2 29  0 58  0.0000000  0  9G18G15G14G 6G21G 3G22G26G16
  20646633.806   -26129270.71149 -20316127.14548  20646633.283    20646636.774
  20737496.421   -28108091.62949 -19079626.82047  20737495.621    20737500.706
  23599090.402   -12834235.75849  -9988282.96745  23599089.790    23599095.938
  24268658.381    -9072495.73049  -7060989.07345  24268658.177    24268665.928
  20926874.973   -24796986.21649 -19063957.65347  20926874.336    20926877.708
  22221610.753   -15009645.77649 -11677723.88247  22221610.339    22221615.582
  20810988.636   -26111011.89049 -20313283.26648  20810988.323    20810990.436
  23987633.999    -6088291.97949  -4497610.95545  23987634.076    23987639.857
  24303707.153    -6206438.85449  -4798984.61345  24303706.544    24303713.250
 04  2 29  0 58 30.0000000  0  9G18G15G14G 6G21G 3G22G26G16
  20652903.428   -26096323.55649 -20290454.02548  20652902.913    20652906.399
  20728937.185   -28153070.58549 -19114675.32647  20728936.396    20728941.470
  23578029.883   -12944908.62149 -10074521.42845  23578029.341    23578035.379
  24289738.547    -8961718.81749  -6974669.49845  24289738.473    24289746.333
  20933114.914   -24764195.06949 -19038406.10547  20933114.296    20933117.663
  22210445.779   -15068318.09249 -11723442.53547  22210445.388    22210450.593
  20806188.023   -26136239.15949 -20332940.85148  20806187.716    20806189.809
  24007081.552    -5986094.42549  -4417976.49645  24007081.594    24007087.564
  24316529.769    -6139055.45649  -4746478.12045  24316529.137    24316535.940
 04  2 29  0 59  0.0000000  0  9G18G15G14G 6G21G 3G22G26G16
  20659228.141   -26063086.69949 -20264555.17148  20659227.624    20659231.140
  20720419.894   -28197829.27049 -19149552.20347  20720419.093    20720424.150
  23556993.972   -13055452.80149 -10160659.62145  23556993.413    23556999.327
  24310833.554    -8850863.37249  -6888288.74545  24310833.650    24310841.509
  20939411.418   -24731106.98649 -19012623.17647  20939410.778    20939414.111
  22199368.498   -15126529.48949 -11768802.02947  22199368.087    22199373.324
  20801454.016   -26161116.38349 -20352325.67948  20801453.693    20801455.796
  24026587.279    -5883591.22649  -4338103.92345  24026587.150    24026593.364
  24329386.582    -6071493.94349  -4693832.86745  24329385.926    24329392.607
 04  2 29  0 59 30.0000000  0  9G18G15G14G 6G21G 3G22G26G16
  20665607.165   -26029564.60949 -20238434.05248  20665606.658    20665610.160
  20711944.126   -28242369.49049 -19184258.83947  20711943.340    20711948.373
  23535982.435   -13165868.58049 -10246697.75545  23535981.899    23535987.807
  24331942.611    -8739934.37249  -6801850.69145  24331942.846    24331950.836
  20945763.999   -24697723.97549 -18986610.43347  20945763.350    20945766.671
  22188378.633   -15184280.93149 -11813803.11847  22188378.285    22188383.501
  20796785.942   -26185647.06549 -20371440.47248  20796785.655    20796787.766
  24046149.953    -5780788.51149  -4257997.95345  24046149.887    24046156.141
  24342276.076    -6003760.04849  -4641053.28645  24342275.483    24342281.979
 04  2 29  1  0  0.0000000  0  9G18G15G14G 6G21G 3G22G26G16
  20672040.344   -25995757.82349 -20212091.08748  20672039.845    20672043.372
  20703510.397   -28286689.17349 -19218793.62347  20703509.589    20703514.591
  23514995.985   -13276152.55649 -10332633.20045  23514995.487    23515001.368
  24353065.556    -8628933.35749  -6715356.52445  24353065.693    24353073.701
  20952172.803   -24664045.36549 -18960367.34947  20952172.153    20952175.479
  22177476.895   -15241569.86149 -11858443.81047  22177476.532    22177481.718
  20792183.862   -26209830.95649 -20390285.03448  20792183.571    20792185.690
  24065769.168    -5677688.74249  -4177660.50845  24065769.064    24065775.418
  24355197.778    -5935856.04949  -4588141.14345  24355197.247    24355203.707
 04  2 29  1  0 30.0000000  0  9G18G15G14G 6G21G 3G22G26G16
  20678527.726   -25961666.33049 -20185526.27748  20678527.224    20678530.770
  20695119.155   -28330785.21349 -19253154.14647  20695118.348    20695123.366
  23494035.436   -13386300.28449 -10418462.46645  23494034.928    23494040.868
  24374202.225    -8517861.10349  -6628806.85345  24374202.231    24374210.031
  20958638.267   -24630068.99349 -18933892.24947  20958637.607    20958640.960
  22166663.835   -15298392.61749 -11902721.25047  22166663.478    22166668.675
  20787648.004   -26233666.96649 -20408858.52248  20787647.731    20787649.821
  24085444.845    -5574292.96249  -4097092.35945  24085444.753    24085451.058
  24368151.618    -5867783.39249  -4535097.57845  24368151.170    24368157.512
 04  2 29  1  1  0.0000000  0  9G18G15G14G 6G21G 3G22G26G16
  20685068.428   -25927294.83249 -20158743.28348  20685067.915    20685071.460
  20686770.170   -28374659.28449 -19287341.70647  20686769.368    20686774.382
  23473100.831   -13496312.15849 -10504185.87245  23473100.281    23473106.260
  24395351.433    -8406723.24749  -6542206.04045  24395351.120    24395358.903
  20965159.918   -24595797.30249 -18907187.02747  20965159.292    20965162.606
  22155939.378   -15354750.17349 -11946636.20247  22155938.983    22155944.135
  20783177.615   -26257159.00549 -20427163.98148  20783177.326    20783179.386
  24105175.602    -5470607.55749  -4016298.51745  24105175.505    24105181.695
  24381136.426    -5799548.20549  -4481927.37845  24381135.941    24381142.417
 04  2 29  1  1 30.0000000  0  9G18G15G14G 6G21G 3G22G26G16
  20691662.543   -25892642.33949 -20131741.33048  20691662.040    20691665.575
  20678464.091   -28418307.72949 -19321353.45047  20678463.288    20678468.307
  23452193.152   -13606182.91649 -10589799.32645  23452192.505    23452198.387
  24416513.197    -8295519.24849  -6455553.67445  24416512.710    24416520.375
  20971738.452   -24561227.07749 -18880249.18247  20971737.818    20971741.153
  22145304.223   -15410638.30649 -11990185.36747  22145303.826    22145309.004
  20778773.043   -26280305.04549 -20445199.83148  20778772.745    20778774.820
  24124961.243    -5366633.02849  -3935279.37545  24124961.247    24124967.271
  24394151.951    -5731150.71649  -4428630.70745  24394151.451    24394158.191
 04  2 29  1  2  0.0000000  0  9G18G15G14G 6G21G 3G22G26G16
  20698309.421   -25857712.90749 -20104523.57648  20698308.929    20698312.439
  20670200.682   -28461732.00049 -19355190.51347  20670199.889    20670204.943
  23431312.228   -13715912.71949 -10675302.93546  23431311.561    23431317.373
  24437686.310    -8184254.96049  -6368854.31645  24437685.742    24437693.397
  20978373.221   -24526361.07349 -18853080.85447  20978372.595    20978375.915
  22134758.155   -15466057.89249 -12033369.42347  22134757.786    22134762.972
  20774433.552   -26303108.85549 -20462969.00148  20774433.269    20774435.366
  24144800.610    -5262375.43949  -3854039.74945  24144800.753    24144806.791
  24407197.421    -5662596.87449  -4375212.21445  24407196.869    24407203.715
 04  2 29  1  2 30.0000000  0  9G18G15G14G 6G21G 3G22G26G16
  20705010.074   -25822500.81349 -20077085.56848  20705009.570    20705013.048
  20661981.577   -28504923.39749 -19388846.12347  20661980.788    20661985.851
  23410460.039   -13825491.44449 -10760688.82046  23410459.406    23410465.160
  24458871.727    -8072924.49149  -6282103.40345  24458871.385    24458878.928
  20985065.733   -24491191.51749 -18825676.00447  20985065.102    20985068.441
  22124303.118   -15520999.64849 -12076181.16247  22124302.704    22124307.886
  20770160.507   -26325563.62249 -20480466.20148  20770160.227    20770162.326
  24164694.919    -5157830.32749  -3772576.03945  24164695.000    24164701.081
  24420273.441    -5593882.28449  -4321668.45645  24420272.847    24420279.632
 04  2 29  1  3  0.0000000  0  9G18G15G14G 6G21G 3G22G26G16
  20711762.589   -25787016.18849 -20049435.19448  20711762.075    20711765.527
  20653805.324   -28547889.55849 -19422326.21947  20653804.559    20653809.623
  23389635.465   -13934925.29249 -10845961.80946  23389634.743    23389640.448
  24480067.398    -7961539.09649  -6195309.72645  24480067.382    24480074.886
  20991814.482   -24455726.62249 -18798041.00647  20991813.840    20991817.187
  22113937.561   -15575470.49549 -12118625.92947  22113937.160    22113942.383
  20765952.085   -26347678.75249 -20497698.73948  20765951.811    20765953.913
  24184641.729    -5053009.71549  -3690897.66745  24184641.650    24184647.856
  24433377.683    -5525018.79349  -4268008.66545  24433377.195    24433383.939
 04  2 29  1  3 30.0000000  0  9G18G15G14G 6G21G 3G22G26G16
  20718567.323   -25751256.99649 -20021570.88148  20718566.815    20718570.266
  20645672.953   -28590625.58249 -19455626.99447  20645672.179    20645677.227
  23368839.510   -14044207.94049 -10931116.97446  23368838.850    23368844.496
  24501273.760    -7850097.87549  -6108472.53345  24501274.091    24501281.584
  20998620.201   -24419962.25949 -18770172.66147  20998619.588    20998622.934
  22103662.668   -15629465.00349 -12160699.53847  22103662.273    22103667.479
  20761808.865   -26369451.43849 -20514664.44448  20761808.599    20761810.694
  24204641.012    -4947913.27449  -3609004.34345  24204640.945    24204647.137
  24446510.476    -5456005.79549  -4214232.38145  24446510.063    24446516.828
 04  2 29  1  4  0.0000000  0  9G18G15G14G 6G21G 3G22G26G16
  20725424.095   -25715224.23349 -19993493.39048  20725423.598    20725427.043
  20637584.638   -28633129.66549 -19488747.03247  20637583.878    20637588.925
  23348072.867   -14153336.05949 -11016151.73846  23348072.256    23348077.940
  24522490.608    -7738602.76549  -6021593.34145  24522490.973    24522498.541
  21005483.060   -24383897.57149 -18742070.29647  21005482.427    21005485.770
  22093478.942   -15682980.77149 -12202400.09947  22093478.563    22093483.744
  20757730.829   -26390881.77149 -20531363.37348  20757730.562    20757732.631
  24224692.355    -4842543.31249  -3526897.88745  24224692.154    24224698.354
  24459671.511    -5386845.73849  -4160341.51645  24459671.061    24459677.824
 04  2 29  1  4 30.0000000  0  9G18G15G14G 6G21G 3G22G26G16
  20732332.551   -25678919.95749 -19965204.33348  20732332.045    20732335.494
  20629540.640   -28675401.08749 -19521685.78147  20629539.877    20629544.892
  23327335.997   -14262307.62349 -11101064.52646  23327335.482    23327341.084
  24543717.238    -7627057.20549  -5934674.81745  24543717.408    24543725.025
  21012403.030   -24347532.74849 -18713734.07047  21012402.407    21012405.775
  22083386.573   -15736016.43049 -12243726.54847  22083386.180    22083391.371
  20753717.613   -26411971.20549 -20547796.67548  20753717.340    20753719.398
  24244794.968    -4736903.60749  -3444581.24145  24244794.918    24244800.794
  24472859.604    -5317542.48949  -4106339.08945  24472859.023    24472865.853
 04  2 29  1  5  0.0000000  0  8G18G15G14G21G 3G22G26G16
  20739292.751   -25642343.78949 -19936703.41448  20739292.247    20739295.704
  20621541.508   -28717436.60149 -19554440.70547  20621540.744    20621545.765
  23306629.903   -14371118.17249 -11185851.84746  23306629.437    23306634.983
  21019380.542   -24310865.51949 -18685162.19047  21019379.926    21019383.338
  22073386.115   -15788568.75149 -12284676.35547  22073385.753    22073390.972
  20749769.497   -26432718.70149 -20563963.52848  20749769.224    20749771.266
  24264948.439    -4630995.70549  -3362055.64645  24264948.536    24264954.242
  24486074.273    -5248097.15349  -4052225.92545  24486073.834    24486080.702
 04  2 29  1  5 30.0000000  0  8G18G15G14G21G 3G22G26G16
  20746304.063   -25605498.93249 -19907993.12648  20746303.563    20746307.037
  20613587.329   -28759236.18649 -19587011.78348  20613586.551    20613591.565
  23285954.862   -14479766.43349 -11270512.70646  23285954.249    23285959.765
  21026415.406   -24273897.12749 -18656355.63847  21026414.796    21026418.201
  22063477.780   -15840637.14349 -12325249.08347  22063477.413    22063482.610
  20745886.023   -26453126.31649 -20579865.53948  20745885.752    20745887.791
  24285152.273    -4524823.73849  -3279324.29245  24285152.249    24285158.188
  24499315.664    -5178513.98349  -3998005.37445  24499315.126    24499322.000
 04  2 29  1  6  0.0000000  0  8G18G15G14G21G 3G22G26G16
  20753366.040   -25568387.94149 -19879075.45948  20753365.544    20753369.019
  20605678.023   -28800799.69549 -19619398.90448  20605677.257    20605682.274
  23265310.918   -14588250.81249 -11355045.85946  23265310.202    23265315.792
  21033507.493   -24236628.05449 -18627314.79747  21033506.856    21033510.268
  22053661.648   -15892221.14249 -12365444.36147  22053661.268    22053666.471
  20742066.915   -26473195.79749 -20595504.06848  20742066.636    20742068.673
  24305405.456    -4418392.04049  -3196390.50245  24305405.409    24305411.505
  24512582.302    -5108797.04649  -3943680.57245  24512581.693    24512588.752
 04  2 29  1  6 30.0000000  0  9G18G 9G15G14G21G 3G22G26G16
  20760478.708   -25531010.59049 -19849950.24448  20760478.210    20760481.671
  24410358.576    -7227314.71049  -5617746.57645  24410358.461    24410365.655
  20597814.189   -28842124.39549 -19651599.94648  20597813.421    20597818.454
  23244698.812   -14696566.91649 -11439447.90146  23244698.211    23244703.788
  21040657.093   -24199056.44549 -18598038.21247  21040656.467    21040659.851
  22043938.368   -15943317.22649 -12405259.44547  22043937.949    22043943.131
  20738312.215   -26492926.60749 -20610878.70548  20738311.955    20738314.037
  24325707.917    -4311702.20549  -3113255.53145  24325707.793    24325713.967
  24525874.359    -5038947.96349  -3889252.81245  24525873.800    24525880.698
 04  2 29  1  7  0.0000000  0  9G18G 9G15G14G21G 3G22G26G16
  20767641.483   -25493369.77549 -19820619.73648  20767640.981    20767644.465
  24398816.621    -7287967.92949  -5665008.69445  24398816.331    24398823.643
  20589995.869   -28883209.99849 -19683614.68248  20589995.073    20590000.097
  23224119.046   -14804713.30149 -11523717.69846  23224118.548    23224124.137
  21047864.146   -24161183.11549 -18568526.51547  21047863.508    21047866.897
  22034308.024   -15993924.79449 -12444693.87447  22034307.617    22034312.766
  20734621.648   -26512320.45549 -20625990.77548  20734621.410    20734623.495
  24346058.692    -4204758.35049  -3029922.65545  24346058.534    24346064.717
  24539190.839    -4968970.91249  -3834725.33045  24539190.162    24539197.143
 04  2 29  1  7 30.0000000  0  9G18G 9G15G14G21G 3G22G26G16
  20774854.193   -25455466.83849 -19791084.96548  20774853.668    20774857.160
  24387331.630    -7348322.02749  -5712037.71045  24387331.451    24387338.605
  20582223.312   -28924054.86649 -19715441.82648  20582222.534    20582227.529
  23203572.242   -14912687.12049 -11607853.03446  23203571.761    23203577.308
  21055128.694   -24123007.56049 -18538779.32447  21055128.088    21055131.463
  22024770.943   -16044042.05649 -12483746.24847  22024770.598    22024775.717
  20730995.074   -26531378.09549 -20640840.85648  20730994.821    20730996.918
  24366457.150    -4097563.66549  -2946394.32945  24366457.182    24366463.111
  24552530.619    -4898868.70849  -3780100.31345  24552529.968    24552537.375
 04  2 29  1  8  0.0000000  0  8G18G 9G15G14G21G 3G22G16
  20782116.514   -25417303.05349 -19761346.94648  20782116.000    20782119.494
  24375903.834    -7408373.85549  -5758831.19645  24375903.813    24375910.873
  20574496.782   -28964657.84349 -19747080.48848  20574496.023    20574501.013
  23183058.968   -15020485.70849 -11691851.82046  23183058.403    23183063.770
  21062450.919   -24084528.99349 -18508796.02347  21062450.289    21062453.701
  22015327.611   -16093667.05349 -12522415.04447  22015327.216    22015332.355
  20727432.408   -26550099.96849 -20655429.30848  20727432.147    20727434.246
  24565893.835    -4828644.04149  -3725379.88545  24565893.275    24565900.739
 04  2 29  1  8 30.0000000  0  8G18G 9G15G14G21G 3G22G16
  20789428.354   -25378878.96949 -19731406.09148  20789427.849    20789431.311
  24364534.561    -7468119.60049  -5805386.18945  24364534.383    24364541.362
  20566816.706   -29005016.80949 -19778529.00848  20566815.940    20566820.925
  23162579.686   -15128105.55049 -11775711.32446  23162579.011    23162584.252
  21069831.002   -24045746.52749 -18478575.91347  21069830.370    21069833.789
  22005978.294   -16142797.64549 -12560698.58347  22005977.959    22005983.113
  20723933.561   -26568486.26549 -20669756.26648  20723933.310    20723935.402
  24579280.078    -4758299.64349  -3670566.14845  24579279.339    24579286.742
 04  2 29  1  9  0.0000000  0  8G18G 9G15G14G21G 3G22G16
  20796789.036   -25340198.25649 -19701265.27448  20796788.553    20796792.004
  24353223.829    -7527558.28049  -5851701.90445  24353223.564    24353230.488
  20559182.930   -29045132.47949 -19809787.95548  20559182.174    20559187.140
  23142134.299   -15235546.07849 -11859431.11446  23142133.644    23142138.875
  21077268.527   -24006661.98049 -18448120.42047  21077267.881    21077271.299
  21996723.095   -16191434.32749 -12598597.27547  21996722.706    21996727.803
  20720498.053   -26586539.96049 -20683824.06248  20720497.788    20720499.891
  24592688.236    -4687840.46449  -3615662.98145  24592687.467    24592694.626
 04  2 29  1  9 30.0000000  0  8G18G 9G15G14G21G 3G22G16
  20804198.603   -25301260.81249 -19670924.39648  20804198.113    20804201.576
  24341972.156    -7586685.16049  -5897774.67745  24341971.894    24341978.867
  20551596.023   -29085001.89349 -19840855.00548  20551595.257    20551600.213
  23121723.704   -15342803.26249 -11943008.03946  23121723.165    23121728.407
  21084763.861   -23967273.41649 -18417428.02547  21084763.252    21084766.603
  21987562.407   -16239573.85949 -12636108.56647  21987562.018    21987567.088
  20717125.942   -26604260.26249 -20697632.06448  20717125.692    20717127.779
  24606117.807    -4617268.12949  -3560671.64245  24606117.089    24606124.188
 04  2 29  1 10  0.0000000  0  8G18G 9G15G14G21G 3G22G16
  20811656.659   -25262068.34449 -19640384.80248  20811656.170    20811659.641
  24330780.656    -7645497.11949  -5943602.04545  24330780.271    24330787.194
  20544056.229   -29124623.68149 -19871729.10648  20544055.456    20544060.412
  23101348.616   -15449874.05449 -12026439.72346  23101348.130    23101353.396
  21092317.191   -23927580.52949 -18386498.50047  21092316.593    21092319.926
  21978496.685   -16287214.30049 -12673230.95947  21978496.324    21978501.433
  20713817.159   -26621648.01049 -20711180.93748  20713816.913    20713818.971
  24619568.142    -4546585.36249  -3505594.25045  24619567.678    24619574.756
 04  2 29  1 10 30.0000000  0  8G18G 9G15G14G21G 3G22G16
  20819163.101   -25222621.87749 -19609647.29048  20819162.604    20819166.048
  24319649.770    -7703990.47949  -5989181.15845  24319649.368    24319656.193
  20536563.956   -29163995.70149 -19902408.58448  20536563.213    20536568.176
  23081009.643   -15556755.11149 -12109723.55946  23081009.200    23081014.561
  21099928.661   -23887582.10449 -18355330.89747  21099928.044    21099931.355
  21969526.422   -16334353.51049 -12709962.79847  21969526.043    21969531.093
  20710571.700   -26638703.24849 -20724470.71348  20710571.420    20710573.466
  24633039.200    -4475794.46249  -3450432.60445  24633038.812    24633045.784
 04  2 29  1 11  0.0000000  0  8G18G 9G15G14G21G 3G22G16
  20826717.732   -25182922.26749 -19578712.52248  20826717.244    20826720.657
  24308579.874    -7762162.03249  -6034509.50445  24308579.441    24308586.464
  20529119.515   -29203116.33649 -19932892.17848  20529118.767    20529123.708
  23060707.396   -15663443.76149 -12192857.47446  23060706.975    23060712.370
  21107598.330   -23847277.64449 -18323924.81547  21107597.694    21107601.061
  21960651.837   -16380989.77649 -12746302.72247  21960651.438    21960656.484
  20707389.302   -26655426.67449 -20737501.93248  20707389.033    20707391.064
  24646530.416    -4404898.26749  -3395188.91345  24646529.952    24646536.943
 04  2 29  1 11 30.0000000  0  8G18G 9G15G14G21G 3G22G16
  20834319.649   -25142973.85449 -19547583.88148  20834319.161    20834322.567
  24297571.567    -7820011.51149  -6079586.87745  24297571.161    24297577.865
  20521722.692   -29241986.98249 -19963180.97348  20521721.918    20521726.875
  23040441.804   -15769940.02649 -12275841.47346  23040441.285    23040446.681
  21115325.723   -23806669.69149 -18292282.24947  21115325.115    21115328.546
  21951872.723   -16427124.20349 -12782251.61347  21951872.325    21951877.367
  20704269.397   -26671821.73649 -20750277.28648  20704269.163    20704271.151
  24660040.708    -4333902.68549  -3339867.76245  24660040.089    24660047.114
 04  2 29  1 12  0.0000000  0  8G18G 9G15G14G21G 3G22G16
  20841969.232   -25102775.07049 -19516260.14648  20841968.735    20841972.129
  24286625.370    -7877532.81649  -6124408.56045  24286625.049    24286631.776
  20514374.223   -29280603.30449 -19993271.59648  20514373.475    20514378.400
  23020213.740   -15876238.42249 -12358671.28746  23020213.278    23020218.636
  21123111.564   -23765754.99749 -18260400.66947  21123110.935    21123114.327
  21943189.953   -16472752.17949 -12817805.86347  21943189.586    21943194.610
  20701212.400   -26687886.37449 -20762795.16348  20701212.139    20701214.110
  24673569.549    -4262807.82749  -3284469.23045  24673568.964    24673576.089
 04  2 29  1 12 30.0000000  0  8G18G 9G15G14G21G 3G22G16
  20849666.027   -25062327.99549 -19484742.93448  20849665.527    20849668.923
  24275742.212    -7934723.19449  -6168972.35945  24275742.024    24275748.587
  20507074.342   -29318964.48149 -20023163.40448  20507073.578    20507078.475
  23000023.911   -15982336.60649 -12441345.10546  23000023.405    23000028.727
  21130955.775   -23724533.54749 -18228280.06447  21130955.154    21130958.482
  21934603.848   -16517872.54949 -12852964.57847  21934603.470    21934608.521
  20698218.050   -26703621.83449 -20775056.53848  20698217.772    20698219.741
  24687116.496    -4191616.81249  -3228995.79745  24687116.095    24687123.544
 04  2 29  1 13  0.0000000  0  7G18G 9G15G14G21G 3G22
  20857410.176   -25021632.11449 -19453031.85248  20857409.676    20857413.087
  24264923.117    -7991577.81449  -6213274.53045  24264922.833    24264929.285
  20499823.632   -29357067.19849 -20052853.81048  20499822.868    20499827.743
  22979873.009   -16088229.81049 -12523859.18646  22979872.485    22979877.832
  21138858.803   -23683002.80749 -18195918.44947  21138858.173    21138861.511
  21926114.940   -16562481.91149 -12887725.10647  21926114.537    21926119.596
  20695286.493   -26719027.01449 -20787060.55348  20695286.222    20695288.217
 04  2 29  1 13 30.0000000  0  7G18G 9G15G14G21G 3G22
  20865201.636   -24980687.71349 -19421127.11348  20865201.152    20865204.541
  24254168.595    -8048092.66149  -6257311.95545  24254168.080    24254174.986
  20492622.651   -29394908.96449 -20082340.88448  20492621.853    20492626.684
  22959761.766   -16193914.27649 -12606210.60146  22959761.248    22959766.625
  21146820.852   -23641161.59049 -18163314.90247  21146820.241    21146823.637
  21917723.734   -16606577.45949 -12922085.25147  21917723.376    21917728.498
  20692417.832   -26734101.63749 -20798806.99448  20692417.587    20692419.575
 04  2 29  1 14  0.0000000  0  7G18G 9G15G14G21G 3G22
  20873038.744   -24939503.36449 -19389035.40748  20873038.256    20873041.644
  24243477.929    -8104271.58549  -6301087.61645  24243477.450    24243484.415
  20485470.164   -29432495.35649 -20111628.96448  20485469.385    20485474.202
  22939689.400   -16299394.47049 -12688402.88146  22939688.964    22939694.351
  21154840.700   -23599016.69249 -18130474.72447  21154840.129    21154843.537
  21909429.414   -16650164.67649 -12956049.31147  21909429.048    21909434.084
  20689610.658   -26748853.48149 -20810301.92048  20689610.401    20689612.367
 04  2 29  1 14 30.0000000  0  7G18G 9G15G14G21G 3G22
  20880921.886   -24898077.13849 -19356755.22048  20880921.399    20880924.793
  24232852.462    -8160108.43249  -6344596.74045  24232852.075    24232858.842
  20478367.145   -29469821.65449 -20140714.36548  20478366.352    20478371.198
  22919657.087   -16404664.54349 -12770431.39046  22919656.652    22919662.099
  21162919.141   -23556564.71049 -18097395.25347  21162918.526    21162921.910
  21901232.677   -16693238.97149 -12989613.67947  21901232.292    21901237.287
  20686865.320   -26763280.30249 -20821543.57648  20686865.051    20686866.995
 04  2 29  1 15  0.0000000  0  7G18G 9G15G14G21G 3G22
  20888850.325   -24856412.80649 -19324289.49648  20888849.830    20888853.231
  24222292.348    -8215602.31849  -6387838.62245  24222291.937    24222298.633
  20471313.518   -29506888.49149 -20169597.59448  20471312.745    20471317.591
  22899665.113   -16509723.60649 -12852295.48846  22899664.572    22899669.935
  21171055.693   -23513806.96349 -18064077.52747  21171055.054    21171058.389
  21893133.377   -16735800.87449 -13022778.77347  21893133.009    21893138.042
  20684181.323   -26777384.80249 -20832534.07448  20684181.059    20684182.996
 04  2 29  1 15 30.0000000  0  7G18G 9G15G14G21G 3G22
  20896824.168   -24814510.02349 -19291637.97748  20896823.690    20896827.080
  24211798.185    -8270748.75149  -6430809.77345  24211797.802    24211804.555
  20464309.849   -29543692.95049 -20198276.37348  20464309.074    20464313.935
  22879713.982   -16614567.80249 -12933992.17846  22879713.324    22879718.662
  21179250.699   -23470741.71049 -18030520.19147  21179250.090    21179253.429
  21885132.229   -16777847.38049 -13055542.26947  21885131.858    21885136.838
  20681558.769   -26791166.45449 -20843273.00648  20681558.515    20681560.436
 04  2 29  1 16  0.0000000  0  7G18G 9G15G14G21G 3G22
  20904843.360   -24772368.75749 -19258800.61348  20904842.868    20904846.289
  24201371.007    -8325543.26949  -6473506.71345  24201370.659    24201377.217
  20457356.642   -29580232.31749 -20226748.58348  20457355.857    20457360.703
  22859804.253   -16719192.97049 -13015518.17046  22859803.648    22859809.044
  21187504.509   -23427367.60749 -17996722.18247  21187503.916    21187507.254
  21877229.665   -16819375.79949 -13087902.05747  21877229.279    21877234.223
  20678997.713   -26804624.83549 -20853760.03548  20678997.448    20678999.344
 04  2 29  1 16 30.0000000  0  7G18G 9G15G14G21G 3G22
  20912907.353   -24729992.21649 -19225779.92648  20912906.846    20912910.267
  24191011.185    -8379984.21349  -6515928.10545  24191010.862    24191017.287
  20450453.826   -29616506.71549 -20255014.32748  20450453.046    20450457.890
  22839936.581   -16823597.89849 -13096872.56846  22839935.991    22839941.357
  21195816.885   -23383685.81549 -17962684.41847  21195816.302    21195819.649
  21869425.650   -16860386.16949 -13119858.16347  21869425.242    21869430.214
  20676497.726   -26817762.36449 -20863997.05448  20676497.449    20676499.314
 04  2 29  1 17  0.0000000  0  7G18G 9G15G14G21G 3G22
  20921016.035   -24687380.77849 -19192576.20448  20921015.532    20921018.956
  24180719.315    -8434067.95449  -6558071.17545  24180718.997    24180725.555
  20443601.860   -29652513.89449 -20283071.85048  20443601.080    20443605.936
  22820111.282   -16927779.32849 -13178052.80346  22820110.757    22820116.167
  21204188.028   -23339695.27449 -17928406.07447  21204187.427    21204190.765
  21861720.620   -16900876.35849 -13151408.93447  21861720.236    21861725.231
  20674058.781   -26830579.09149 -20873984.09548  20674058.497    20674060.338
 04  2 29  1 17 30.0000000  0  8G18G 9G15G14G21G 3G22G31
  20929168.360   -24644539.96349 -19159193.74548  20929167.859    20929171.284
  24170495.174    -8487795.51949  -6599936.70245  24170494.885    24170501.262
  20436800.306   -29688256.23349 -20310923.00548  20436799.538    20436804.359
  22800328.437   -17031738.32849 -13259059.72746  22800327.961    22800333.325
  21212617.250   -23295399.45749 -17893889.84947  21212616.641    21212619.917
  21854114.098   -16940848.73849 -13182556.22447  21854113.702    21854118.646
  20671679.980   -26843079.59049 -20883724.73048  20671679.714    20671681.546
  24391071.052    -6016109.36049  -4662806.24145  24391070.554    24391076.851
 04  2 29  1 18  0.0000000  0  8G18G 9G15G14G21G 3G22G31
  20937364.999   -24601466.03549 -19125629.63847  20937364.494    20937367.949
  24160340.370    -8541158.66549  -6641518.26045  24160340.055    24160346.457
  20430050.416   -29723727.13249 -20338562.64648  20430049.641    20430054.482
  22780589.447   -17135467.09349 -13339887.24046  22780588.937    22780594.265
  21221105.641   -23250792.77249 -17859131.39447  21221105.035    21221108.255
  21846607.345   -16980296.69949 -13213294.87447  21846606.939    21846611.875
  20669362.181   -26855259.52749 -20893215.57448  20669361.909    20669363.764
  24373548.777    -6108189.53549  -4734556.93345  24373548.204    24373554.505
 04  2 29  1 18 30.0000000  0  8G18G 9G15G14G21G 3G22G31
  20945605.809   -24558160.18749 -19091884.81547  20945605.299    20945608.775
  24150255.710    -8594153.95449  -6682813.17545  24150255.446    24150261.755
  20423352.469   -29758925.02749 -20365989.55848  20423351.698    20423356.526
  22760894.745   -17238962.85549 -13420533.20446  22760894.261    22760899.533
  21229653.229   -23205874.92449 -17824130.46947  21229652.617    21229655.821
  21839200.758   -17019218.47349 -13243623.50447  21839200.386    21839205.287
  20667105.194   -26867119.71049 -20902457.25948  20667104.931    20667106.815
  24356082.731    -6199973.93049  -4806077.17945  24356082.235    24356088.312
 04  2 29  1 19  0.0000000  0  8G18G 9G15G14G21G 3G22G31
  20953890.419   -24514624.11549 -19057960.59247  20953889.924    20953893.380
  24140241.480    -8646778.63249  -6723819.30445  24140241.119    24140247.475
  20416706.749   -29793848.39949 -20393202.55348  20416705.969    20416710.813
  22741245.022   -17342222.81449 -13500995.41846  22741244.504    22741249.746
  21238260.036   -23160645.74349 -17788886.94247  21238259.429    21238262.664
  21831894.512   -17057612.94549 -13273541.24147  21831894.154    21831899.087
  20664908.915   -26878661.22249 -20911450.62248  20664908.661    20664910.544
  24338673.548    -6291459.69449  -4877364.72545  24338673.008    24338678.936
 04  2 29  1 19 30.0000000  0  8G18G 9G15G14G21G 3G22G31
  20962218.240   -24470861.21949 -19023859.62947  20962217.739    20962221.188
  24130297.621    -8699032.43049  -6764536.43645  24130297.373    24130303.692
  20410113.068   -29828498.53449 -20420202.64648  20410112.283    20410117.117
  22721640.045   -17445247.17949 -13581274.06146  22721639.536    22721644.774
  21246925.661   -23115107.35149 -17753402.48447  21246925.070    21246928.339
  21824688.319   -17095481.56349 -13303049.23047  21824687.933    21824692.864
  20662772.680   -26889887.12649 -20920198.06548  20662772.420    20662774.295
  24321321.148    -6382646.86449  -4948419.56545  24321320.570    24321326.658
 04  2 29  1 20  0.0000000  0  8G18G 9G15G14G21G 3G22G31
  20970589.349   -24426870.62649 -18989581.22747  20970588.853    20970592.290
  24120425.576    -8750910.02349  -6804960.41445  24120425.307    24120431.706
  20403572.114   -29862871.42349 -20446986.69948  20403571.341    20403576.118
  22702081.061   -17548030.34049 -13661364.76146  22702080.517    22702085.658
  21255650.723   -23069256.99049 -17717674.92947  21255650.130    21255653.385
  21817582.918   -17132820.45749 -13332144.45147  21817582.552    21817587.458
  20660696.815   -26900795.71149 -20928698.24348  20660696.577    20660698.458
  24304026.473    -6473530.39749  -5019237.80645  24304025.874    24304031.942
 04  2 29  1 20 30.0000000  0  8G18G 9G15G14G21G 3G22G31
  20979003.440   -24382654.27249 -18955126.92147  20979002.909    20979006.374
  24110625.693    -8802409.10049  -6845089.44145  24110625.411    24110631.781
  20397084.087   -29896966.30049 -20473554.12348  20397083.293    20397088.063
  22682568.152   -17650570.69549 -13741266.25646  22682567.616    22682572.712
  21264435.059   -23023095.17949 -17681704.68747  21264434.448    21264437.713
  21810578.495   -17169628.87649 -13360826.31747  21810578.111    21810582.997
  20658680.963   -26911389.02649 -20936952.75748  20658680.723    20658682.615
  24286789.925    -6564108.20449  -5089817.83345  24286789.336    24286795.358
 04  2 29  1 21  0.0000000  0  8G18G 9G15G14G21G 3G22G31
  20987459.665   -24338216.43349 -18920500.02947  20987459.164    20987462.619
  24100897.654    -8853529.48349  -6884923.41145  24100897.377    24100903.707
  20390648.699   -29930784.30749 -20499905.80448  20390647.918    20390652.698
  22663101.527   -17752868.04149 -13820978.38746  22663101.042    22663106.080
  21273278.120   -22976624.47049 -17645493.74547  21273277.497    21273280.775
  21803674.755   -17205908.23549 -13389095.92647  21803674.371    21803679.308
  20656724.500   -26921670.42849 -20944964.22448  20656724.257    20656726.122
  24269611.588    -6654380.20649  -5160159.60145  24269610.997    24269616.837
 04  2 29  1 21 30.0000000  0  8G18G 9G15G14G21G 3G22G31
  20995958.369   -24293555.31949 -18885699.15047  20995957.871    20995961.329
  24091242.762    -8904265.11649  -6924457.56945  24091242.610    24091248.859
  20384266.853   -29964320.93049 -20526038.21648  20384266.086    20384270.888
  22643682.334   -17854916.88749 -13900496.88146  22643681.815    22643686.761
  21282180.660   -22929841.20949 -17609039.25147  21282180.053    21282183.371
  21796872.459   -17241654.24449 -13416949.93247  21796872.109    21796877.026
  20654827.806   -26931637.53049 -20952730.77548  20654827.551    20654829.432
  24252492.493    -6744341.03049  -5230258.87745  24252491.899    24252497.628
 04  2 29  1 22  0.0000000  0  8G18G 9G15G14G21G 3G22G31
  21004499.175   -24248673.12549 -18850726.01147  21004498.678    21004502.122
  24081661.738    -8954613.93549  -6963690.28845  24081661.553    24081667.617
  20377938.750   -29997575.18749 -20551950.61348  20377937.987    20377942.763
  22624310.589   -17956715.11949 -13979820.09246  22624310.156    22624315.114
  21291142.554   -22882746.03849 -17572341.72047  21291141.939    21291145.245
  21790171.794   -17276866.53449 -13444388.06647  21790171.448    21790176.291
  20652990.509   -26941292.32949 -20960253.98348  20652990.252    20652992.161
  24235433.053    -6833988.62949  -5300114.05845  24235432.510    24235438.289
 04  2 29  1 22 30.0000000  0  8G18G 9G15G14G21G 3G22G31
  21013081.401   -24203573.08449 -18815583.12147  21013080.907    21013084.349
  24072154.421    -9004575.42049  -7002621.21445  24072154.074    24072160.122
  20371664.241   -30030547.97449 -20577643.67848  20371663.481    20371668.231
  22604986.808   -18058262.22249 -14058947.62446  22604986.354    22604991.276
  21300163.517   -22835340.63049 -17535402.44647  21300162.894    21300166.185
  21783572.479   -17311545.85049 -13471410.88747  21783572.137    21783576.999
  20651212.163   -26950637.48349 -20967535.90848  20651211.914    20651213.810
  24218433.325    -6923322.48449  -5369724.74645  24218432.648    24218438.550
 04  2 29  1 23  0.0000000  0  8G18G 9G15G14G21G 3G22G31
  21021705.539   -24158252.87849 -18780268.67247  21021705.037    21021708.492
  24062721.888    -9054142.59249  -7041244.89545  24062721.714    24062727.750
  20365444.260   -30063234.05649 -20603113.33548  20365443.487    20365448.244
  22585712.008   -18159551.83049 -14137874.48546  22585711.508    22585716.406
  21309244.169   -22787621.45349 -17498218.67547  21309243.548    21309246.824
  21777075.600   -17345687.01949 -13498014.36547  21777075.264    21777080.204
  20649493.316   -26959670.11849 -20974574.30548  20649493.083    20649494.955
  24201494.439    -7012336.08449  -5439085.91845  24201493.725    24201499.800
 04  2 29  1 23 30.0000000  0  8G18G 9G15G14G21G 3G22G31
  21030370.678   -24112717.33849 -18744786.42847  21030370.178    21030373.595
  24053364.392    -9103315.76549  -7079561.55845  24053364.242    24053370.336
  20359278.575   -30095634.98349 -20628360.79148  20359277.785    20359282.554
  22566486.240   -18260584.47249 -14216601.13446  22566485.617    22566490.453
  21318384.074   -22739591.13549 -17460792.45647  21318383.430    21318386.708
  21770680.707   -17379292.21549 -13524200.20447  21770680.382    21770685.327
  20647833.127   -26968394.41549 -20981372.44148  20647832.873    20647834.746
  24184616.554    -7101030.04749  -5508197.99945  24184615.829    24184621.956
 04  2 29  1 24  0.0000000  0  8G18G 9G15G14G21G 3G22G31
  21039076.589   -24066967.56649 -18709137.25147  21039076.061    21039079.467
  24044082.485    -9152092.14949  -7117569.04945  24044082.299    24044088.429
  20353167.442   -30127749.10549 -20653384.76748  20353166.656    20353171.427
  22547309.674   -18361357.41449 -14295125.41946  22547309.053    22547313.882
  21327583.141   -22691249.51349 -17423123.66347  21327582.502    21327585.797
  21764388.115   -17412360.15549 -13549967.41447  21764387.778    21764392.619
  20646231.468   -26976811.21449 -20987930.97148  20646231.202    20646233.059
  24167799.878    -7189401.69949  -5577058.92945  24167799.221    24167805.278
 04  2 29  1 24 30.0000000  0  8G18G 9G15G14G21G 3G22G31
  21047823.450   -24021002.57749 -18673320.37347  21047822.925    21047826.304
  24034877.068    -9200466.64449  -7155263.37545  24034876.751    24034882.845
  20347111.560   -30159572.82449 -20678182.45548  20347110.768    20347115.550
  22528183.390   -18461866.11349 -14373443.79646  22528182.803    22528187.623
  21336841.921   -22642594.23449 -17385210.46647  21336841.302    21336844.621
  21758198.375   -17444887.49249 -13575313.37347  21758198.023    21758202.830
  20644688.571   -26984919.29649 -20994248.94248  20644688.310    20644690.159
  24151045.476    -7277446.32749  -5645665.03645  24151044.810    24151050.932
 04  2 29  1 25  0.0000000  0  8G18G 9G15G14G21G 3G22G31
  21056610.434   -23974826.59449 -18637339.08547  21056609.932    21056613.289
  24025748.140    -9248439.11049  -7192644.42445  24025747.821    24025754.091
  20341110.678   -30191107.50049 -20702754.91048  20341109.903    20341114.701
  22509107.391   -18562110.39349 -14451556.13046  22509106.890    22509111.774
  21346159.940   -22593627.70249 -17347054.73447  21346159.321    21346162.629
  21752111.195   -17476875.84949 -13600239.33747  21752110.817    21752115.684
  20643203.689   -26992722.40649 -21000329.26848  20643203.418    20643205.291
  24134353.260    -7365163.82549  -5714016.21345  24134352.635    24134358.754
 04  2 29  1 25 30.0000000  0  8G18G 9G15G14G21G 3G22G31
  21065437.925   -23928437.80049 -18601191.96947  21065437.421    21065440.761
  24016696.825    -9296003.60549  -7229707.58445  24016696.547    24016702.794
  20335165.689   -30222348.48249 -20727098.52048  20335164.928    20335169.706
  22490082.841   -18662084.72449 -14529458.11846  22490082.330    22490087.240
  21355537.823   -22544346.60749 -17308653.89447  21355537.219    21355540.534
  21746127.327   -17508321.00449 -13624742.03547  21746126.979    21746131.848
  20641777.278   -27000218.11249 -21006170.06648  20641777.015    20641778.876
  24117724.351    -7452548.59149  -5782108.11945  24117723.738    24117729.992
 04  2 29  1 26  0.0000000  0  8G18G 9G15G14G21G 3G22G31
  21074305.181   -23881840.26449 -18564882.19747  21074304.672    21074308.022
  24007723.054    -9343160.24649  -7266452.93245  24007722.840    24007729.115
  20329276.368   -30253297.04749 -20751214.26448  20329275.615    20329280.385
  22471109.666   -18761789.21549 -14607149.84346  22471109.105    22471113.985
  21364975.094   -22494753.41649 -17270009.85947  21364974.496    21364977.821
  21740246.565   -17539224.55849 -13648822.71147  21740246.161    21740251.073
  20640408.665   -27007410.06949 -21011774.17248  20640408.413    20640410.261
  24101158.822    -7539600.60249  -5849940.74645  24101158.276    24101164.476
 04  2 29  1 26 30.0000000  0  8G18G 9G15G14G21G 3G22G31
  21083211.780   -23835035.65549 -18528411.07247  21083211.277    21083214.651
  23998827.460    -9389906.49749  -7302878.47945  23998827.267    23998833.522
  20323442.865   -30283952.17749 -20775101.35748  20323442.104    20323446.896
  22452188.094   -18861221.67649 -14684629.60746  22452187.664    22452192.537
  21374471.649   -22444848.71349 -17231123.08347  21374471.032    21374474.368
  21734468.908   -17569585.92449 -13672480.90147  21734468.541    21734473.470
  20639097.583   -27014299.71349 -21017142.70848  20639097.330    20639099.209
  24084657.103    -7626317.83449  -5917512.51145  24084656.429    24084662.561
 04  2 29  1 27  0.0000000  0  8G18G 9G15G14G21G 3G22G31
  21092157.860   -23788023.68849 -18491778.36147  21092157.373    21092160.735
  23990010.987    -9436237.77449  -7338980.67745  23990010.781    23990016.809
  20317665.827   -30314310.53249 -20798757.19748  20317665.073    20317669.884
  22433319.266   -18960377.64149 -14761893.90846  22433318.817    22433323.660
  21384027.957   -22394630.12349 -17191991.72647  21384027.346    21384030.699
  21728795.024   -17599402.28349 -13695714.40847  21728794.678    21728799.623
  20637844.216   -27020886.21949 -21022275.03248  20637843.968    20637845.854
  24068219.890    -7712695.98349  -5984820.06545  24068219.239    24068225.299
 04  2 29  1 27 30.0000000  0  8G18G 9G15G14G21G 3G22G31
  21101143.290   -23740804.89149 -18454984.48647  21101142.793    21101146.153
  23981273.932    -9482150.56649  -7374756.80445  23981273.700    23981279.953
  20311945.723   -30344369.79249 -20822179.97848  20311944.943    20311949.767
  22414503.725   -19059253.82849 -14838940.20746  22414503.293    22414508.084
  21393644.087   -22344096.95849 -17152615.24447  21393643.469    21393646.828
  21723225.239   -17628671.84549 -13718521.84447  21723224.864    21723229.825
  20636648.475   -27027169.76249 -21027171.27948  20636648.236    20636650.100
  24051847.802    -7798731.60449  -6051860.72045  24051847.203    24051853.180
 04  2 29  1 28  0.0000000  0  8G18G 9G15G14G21G 3G22G31
  21110167.057   -23693384.63049 -18418033.62547  21110166.566    21110169.939
  23972616.203    -9527646.55549  -7410208.11545  23972616.003    23972622.186
  20306282.008   -30374132.69749 -20845371.82948  20306281.244    20306286.073
  22395741.149   -19157852.07949 -14915769.92546  22395740.632    22395745.430
  21403319.303   -22293253.43549 -17112996.92047  21403318.671    21403322.018
  21717758.821   -17657397.84049 -13740905.71547  21717758.469    21717763.438
  20635509.429   -27033155.44849 -21031835.42848  20635509.164    20635511.016
  24035540.518    -7884426.55649  -6118635.89745  24035539.932    24035545.931
 04  2 29  1 28 30.0000000  0  8G18G 9G15G14G21G 3G22G31
  21119229.889   -23645759.15249 -18380922.85647  21119229.392    21119232.764
  23964039.581    -9572717.48949  -7445328.21945  23964039.291    23964045.245
  20300675.996   -30403592.39649 -20868327.42648  20300675.245    20300680.064
  22377032.906   -19256163.95349 -14992376.51546  22377032.423    22377037.226
  21413054.676   -22242093.62349 -17073132.14447  21413054.061    21413057.386
  21712397.020   -17685573.98949 -13762861.15047  21712396.681    21712401.597
  20634427.927   -27038838.75449 -21036263.96348  20634427.663    20634429.501
  24019299.706    -7969772.71249  -6185139.31545  24019299.175    24019305.023
 04  2 29  1 29  0.0000000  0  8G18G 9G15G14G21G 3G22G31
  21128331.021   -23597932.45349 -18343655.29347  21128330.541    21128333.856
  23955543.515    -9617363.71249  -7480117.38945  23955543.223    23955549.295
  20295127.344   -30432750.64449 -20891048.12048  20295126.586    20295131.423
  22358379.006   -19354190.32549 -15068760.62646  22358378.547    22358383.335
  21422849.654   -22190620.75749 -17033023.42547  21422849.040    21422852.372
  21707139.544   -17713202.43549 -13784389.79447  21707139.170    21707144.119
  20633403.161   -27044223.74849 -21040460.04448  20633402.912    20633404.772
  24003125.119    -8054770.56149  -6251371.33845  24003124.523    24003130.302
 04  2 29  1 29 30.0000000  0  8G18G 9G15G14G21G 3G22G31
  21137469.830   -23549907.90049 -18306233.54547  21137469.325    21137472.609
  23947128.595    -9661584.72449  -7514575.21545  23947128.288    23947134.368
  20289635.998   -30461607.80049 -20913534.19348  20289635.228    20289640.080
  22339779.665   -19451930.54949 -15144921.76146  22339779.133    22339783.871
  21432703.807   -22138836.59849 -16992672.12647  21432703.198    21432706.564
  21701986.027   -17740284.05749 -13805492.32647  21701985.658    21701990.685
  20632434.607   -27049313.35049 -21044425.94548  20632434.353    20632436.223
  23987016.949    -8139419.44349  -6317331.43645  23987016.314    23987022.043
 04  2 29  1 30  0.0000000  0  8G18G 9G15G14G21G 3G22G31
  21146647.070   -23501680.89149 -18268654.05147  21146646.591    21146649.855
  23938796.036    -9705371.95049  -7548695.04445  23938795.727    23938801.769
  20284203.416   -30490156.25049 -20935779.72448  20284202.649    20284207.477
  22321236.356   -19549375.96049 -15220853.19046  22321235.840    22321240.532
  21442618.407   -22086734.89549 -16952073.40947  21442617.824    21442621.201
  21696937.889   -17766812.05949 -13826163.48547  21696937.533    21696942.482
  20631523.230   -27054102.38949 -21048157.65248  20631522.984    20631524.852
  23970976.761    -8223710.88549  -6383013.02345  23970976.099    23970981.861
 04  2 29  1 30 30.0000000  0  8G18G 9G15G14G21G 3G22G31
  21155861.646   -23453257.85149 -18230921.80047  21155861.162    21155864.435
  23930545.685    -9748727.58349  -7582478.55645  23930545.408    23930551.344
  20278828.863   -30518399.71849 -20957787.60248  20278828.070    20278832.892
  22302748.608   -19646529.08649 -15296556.85246  22302748.149    22302752.838
  21452592.514   -22034320.83249 -16911231.29047  21452591.910    21452595.272
  21691994.370   -17792790.49749 -13846406.40647  21691993.995    21691998.853
  20630667.952   -27058597.02749 -21051659.94848  20630667.696    20630669.527
  23955004.059    -8307647.35749  -6448418.00845  23955003.476    23955009.201
 04  2 29  1 31  0.0000000  0  8G18G 9G15G14G21G 3G22G31
  21165113.605   -23404638.52849 -18193036.60547  21165113.117    21165116.362
  23922378.355    -9791647.35149  -7615922.43945  23922377.982    23922383.931
  20273512.966   -30546335.11049 -20979555.42548  20273512.170    20273516.970
  22284317.314   -19743386.12949 -15372029.81046  22284316.859    22284321.476
  21462626.383   -21981592.74649 -16870144.47447  21462625.783    21462629.101
  21687155.864   -17818217.04049 -13866219.27447  21687155.465    21687160.400
  20629868.787   -27062796.77149 -21054932.45848  20629868.519    20629870.316
  23939099.716    -8391224.88449  -6513543.28845  23939099.197    23939104.866
 04  2 29  1 31 30.0000000  0  8G18G 9G15G14G21G 3G22G31
  21174402.785   -23355823.57849 -18154998.97447  21174402.306    21174405.572
  23914294.376    -9834128.14749  -7649024.28545  23914294.019    23914300.104
  20268256.037   -30573960.37249 -21001081.58748  20268255.239    20268260.021
  22265942.977   -19839943.79449 -15447269.48946  22265942.469    22265947.062
  21472720.100   -21928549.91649 -16828812.40747  21472719.486    21472722.859
  21682422.603   -17843090.20949 -13885600.94247  21682422.191    21682427.180
  20629125.644   -27066701.89349 -21057975.39048  20629125.374    20629127.136
  23923264.261    -8474440.29849  -6578386.38445  23923263.779    23923269.469
 04  2 29  1 32  0.0000000  0  8G18G 9G15G14G21G 3G22G31
  21183728.646   -23306815.71649 -18116811.02847  21183728.160    21183731.435
  23906294.187    -9876168.91249  -7681783.23745  23906293.937    23906299.916
  20263058.091   -30601275.72249 -21022366.26048  20263057.287    20263062.067
  22247625.747   -19936201.14849 -15522275.15546  22247625.260    22247629.834
  21482873.346   -21875194.04149 -16787236.40847  21482872.757    21482876.176
  21677794.565   -17867410.75049 -13904551.99747  21677794.185    21677799.112
  20628438.076   -27070315.03149 -21060790.80648  20628437.810    20628439.586
  23907497.881    -8557292.74449  -6642946.65345  23907497.434    23907503.106
 04  2 29  1 32 30.0000000  0  8G18G 9G15G14G21G 3G22G31
  21193091.085   -23257615.73449 -18078473.38247  21193090.589    21193093.900
  23898378.441    -9917766.54549  -7714196.89245  23898378.167    23898383.981
  20257919.477   -30628279.11949 -21043407.85748  20257918.685    20257923.486
  22229366.233   -20032155.18449 -15597044.48846  22229365.761    22229370.266
  21493086.380   -21821524.00749 -16745415.60947  21493085.816    21493089.248
  21673271.940   -17891177.40849 -13923071.46347  21673271.536    21673276.409
  20627805.983   -27073636.51749 -21063378.96648  20627805.717    20627807.498
  23891801.284    -8639778.85249  -6707221.48045  23891800.811    23891806.500
 04  2 29  1 33  0.0000000  0  8G18G 9G15G14G21G 3G22G31
  21202490.231   -23208222.79949 -18039985.37547  21202489.742    21202493.068
  23890547.914    -9958916.33449  -7746261.58045  23890547.658    23890553.229
  20252840.928   -30654966.91149 -21064203.52048  20252840.151    20252844.942
  22211165.296   -20127801.23449 -15671573.81546  22211164.861    22211169.399
  21503359.596   -21767538.02149 -16703348.61447  21503359.034    21503362.417
  21668855.191   -17914387.36049 -13941157.11347  21668854.794    21668859.718
  20627229.672   -27076665.08149 -21065738.86348  20627229.396    20627231.182
  23876175.202    -8721894.05049  -6771207.28845  23876174.728    23876180.347
 04  2 29  1 33 30.0000000  0  8G18G 9G15G14G21G 3G22G31
  21211924.983   -23158642.63949 -18001351.48847  21211924.500    21211927.857
  23882802.179    -9999620.23049  -7777978.82445  23882801.900    23882807.481
  20247821.923   -30681341.94149 -21084755.47948  20247821.165    20247825.914
  22193022.688   -20223141.20049 -15745864.63846  22193022.230    22193026.725
  21513692.139   -21713240.19349 -16661038.63147  21513691.561    21513694.928
  21664543.767   -17937044.01849 -13958811.64147  21664543.379    21664548.261
  20626708.053   -27079406.14349 -21067874.74348  20626707.777    20626709.557
  23860619.354    -8803640.45549  -6834905.73145  23860618.798    23860624.427
 04  2 29  1 34  0.0000000  0  8G18G 9G15G14G21G 3G22G31
  21221395.808   -23108873.17649 -17962570.09147  21221395.314    21221398.651
  23875142.513   -10039872.07949  -7809343.82745  23875142.173    23875147.824
  20242863.357   -30707399.35049 -21105059.94248  20242862.578    20242867.325
  22174939.473   -20318169.18149 -15819912.35746  22174938.979    22174943.419
  21524084.691   -21658627.05449 -16618482.94747  21524084.097    21524087.480
  21660338.429   -17959143.46849 -13976031.98347  21660338.000    21660342.848
  20626241.596   -27081857.27349 -21069784.70048  20626241.320    20626243.093
  23845134.759    -8885012.00749  -6898312.08345  23845134.218    23845139.720
 04  2 29  1 34 30.0000000  0  8G18G 9G15G14G21G 3G22G31
  21230902.460   -23058915.55349 -17923642.07347  21230901.953    21230905.303
  23867569.188   -10079669.56849  -7840354.77945  23867568.947    23867574.387
  20237965.450   -30733137.93149 -21125115.96848  20237964.669    20237969.418
  22156915.990   -20412882.76149 -15893715.08847  22156915.527    22156919.978
  21534537.150   -21603698.88349 -16575681.78447  21534536.551    21534539.966
  21656239.059   -17980685.19749 -13992817.72947  21656238.668    21656243.544
  20625830.107   -27084019.73449 -21071469.71648  20625829.845    20625831.594
  23829721.922    -8966006.37649  -6961424.48945  23829721.408    23829726.951
 04  2 29  1 35  0.0000000  0  8G18G 9G15G14G21G 3G22G31
  21240444.153   -23008773.67149 -17884570.47547  21240443.647    21240446.957
  23860082.426   -10119012.50349  -7871011.52145  23860082.109    23860087.696
  20233128.082   -30758558.34549 -21144924.06548  20233127.327    20233132.052
  22138952.376   -20507281.84349 -15967272.75747  22138951.923    22138956.302
  21545049.171   -21548457.90849 -16532636.87447  21545048.583    21545051.971
  21652245.621   -18001670.59149 -14009169.96847  21652245.272    21652250.162
  20625472.911   -27085896.74849 -21072932.30348  20625472.632    20625474.395
  23814380.945    -9046623.42449  -7024242.89245  23814380.407    23814385.930
 04  2 29  1 35 30.0000000  0  8G18G 9G15G14G21G 3G22G31
  21250021.511   -22958444.14049 -17845352.66247  21250021.017    21250024.333
  23852683.352   -10157894.21149  -7901308.87045  23852682.942    23852688.596
  20228352.378   -30783654.69349 -21164479.65248  20228351.614    20228356.348
  22121049.909   -20601359.56749 -16040580.00447  22121049.456    22121053.915
  21555621.527   -21492899.77049 -16489344.83247  21555620.944    21555624.296
  21648359.129   -18022094.69449 -14025084.84947  21648358.733    21648363.552
  20625170.711   -27087484.75449 -21074169.70048  20625170.452    20625172.183
  23799113.141    -9126856.30749  -7086761.96845  23799112.657    23799118.081
 04  2 29  1 36  0.0000000  0  8G18G 9G15G14G21G 3G22G31
  21259633.183   -22907934.32049 -17805994.36147  21259632.683    21259636.016
  23845371.475   -10196318.06749  -7931249.45545  23845371.103    23845376.678
  20223637.499   -30808431.63649 -21183786.34648  20223636.718    20223641.445
  22103207.899   -20695119.57549 -16113639.68647  22103207.468    22103211.911
  21566253.114   -21437030.33449 -16445810.21247  21566252.544    21566255.924
  21644578.290   -18041962.91449 -14040566.56947  21644577.911    21644582.715
  20624922.197   -27088790.86749 -21075187.43648  20624921.914    20624923.646
  23783917.745    -9206708.65149  -7148984.50545  23783917.177    23783922.603
 04  2 29  1 36 30.0000000  0  8G18G 9G15G14G21G 3G22G31
  21269279.982   -22857240.12649 -17766492.38647  21269279.494    21269282.792
  23838148.136   -10234276.51949  -7960827.37545  23838147.863    23838153.352
  20218984.583   -30832882.67049 -21202839.08348  20218983.809    20218988.533
  22085427.752   -20788554.33649 -16186445.92247  22085427.327    22085431.805
  21576944.926   -21380844.59149 -16402029.12847  21576944.352    21576947.724
  21640904.341   -18061269.56949 -14055610.70647  21640903.984    21640908.773
  20624728.078   -27089810.91849 -21075982.26448  20624727.798    20624729.506
  23768796.124    -9286172.67449  -7210904.43745  23768795.625    23768801.087
 04  2 29  1 37  0.0000000  0  8G18G 9G15G14G21G 3G22G31
  21278960.971   -22806366.37649 -17726850.50147  21278960.432    21278963.728
  23831013.216   -10271770.49449  -7990043.39445  23831012.963    23831018.464
  20214393.368   -30857009.63449 -21221639.30248  20214392.597    20214397.316
  22067709.377   -20881664.72349 -16258999.40147  22067708.893    22067713.432
  21587696.318   -21324345.94749 -16358004.22047  21587695.719    21587699.076
  21637336.829   -18080017.40249 -14070219.40347  21637336.453    21637341.191
  20624587.494   -27090549.49949 -21076557.76648  20624587.205    20624588.926
  23753748.176    -9365249.50449  -7272522.70145  23753747.653    23753753.076
 04  2 29  1 37 30.0000000  0  8G18G 9G15G14G21G 3G22G31
  21288676.351   -22755311.43149 -17687067.41847  21288675.837    21288679.115
  23823967.554   -10308794.48949  -8018893.17645  23823967.380    23823972.854
  20209864.660   -30880808.02449 -21240183.48748  20209863.902    20209868.621
  22050053.756   -20974445.34849 -16331295.92647  22050053.306    22050057.820
  21598507.768   -21267531.32549 -16313733.09947  21598507.175    21598510.512
  21633876.205   -18098202.89949 -14084389.90647  21633875.810    21633880.570
  20624500.862   -27091004.53649 -21076912.32248  20624500.575    20624502.317
  23738775.046    -9443933.61549  -7333834.93145  23738774.499    23738779.950
 04  2 29  1 38  0.0000000  0  8G18G 9G15G14G21G 3G22G31
  21298425.497   -22704079.20249 -17647146.19447  21298424.997    21298428.313
  23817011.476   -10345348.96449  -8047377.08645  23817011.286    23817016.638
  20205398.262   -30904279.07149 -21258472.59748  20205397.514    20205402.194
  22032460.832   -21066896.54349 -16403335.74547  22032460.355    22032464.924
  21609378.823   -21210403.55049 -16269217.95447  21609378.239    21609381.597
  21630522.146   -18115828.18349 -14098123.87947  21630521.791    21630526.566
  20624467.515   -27091179.66949 -21077048.77148  20624467.248    20624468.999
  23723876.690    -9522225.35549  -7394841.41945  23723876.092    23723881.547
 04  2 29  1 38 30.0000000  0  8G18G 9G15G14G21G 3G22G31
  21308208.295   -22652670.45249 -17607087.42247  21308207.765    21308211.089
  23810145.261   -10381430.94449  -8075492.84545  23810145.060    23810150.456
  20200994.543   -30927420.89049 -21276505.17248  20200993.763    20200998.441
  22014931.104   -21159015.45949 -16475116.66247  22014930.671    22014935.170
  21620309.559   -21152962.22949 -16224458.49247  21620308.962    21620312.311
  21627275.012   -18132892.41049 -14111420.67647  21627274.619    21627279.400
  20624487.375   -27091075.33249 -21076967.45948  20624487.105    20624488.862
  23709053.472    -9600121.74749  -7455539.84245  23709052.914    23709058.372
 04  2 29  1 39  0.0000000  0  8G18G 9G15G14G21G 3G22G31
  21318024.753   -22601084.67449 -17566890.70347  21318024.219    21318027.564
  23803369.567   -10417036.52749  -8103237.37645  23803369.391    23803374.871
  20196654.034   -30950230.31849 -21294278.73448  20196653.278    20196657.941
  21997465.389   -21250798.10949 -16546635.54347  21997464.962    21997469.490
  21631300.343   -21095205.58049 -16179453.32547  21631299.733    21631303.064
  21624134.950   -18149393.34349 -14124278.53347  21624134.543    21624139.363
  20624560.471   -27090691.06849 -21076668.01248  20624560.194    20624561.941
  23694306.144    -9677619.03249  -7515927.27545  23694305.633    23694311.078
 04  2 29  1 39 30.0000000  0  8G18G 9G15G14G21G 3G22G31
  21327874.494   -22549323.74749 -17526557.50447  21327873.980    21327877.313
  23796684.919   -10452164.22549  -8130609.53845  23796684.679    23796690.236
  20192376.930   -30972706.56349 -21311792.67448  20192376.179    20192380.848
  21980064.099   -21342242.54649 -16617890.88647  21980063.639    21980068.127
  21642350.848   -21037134.60549 -16134203.22047  21642350.253    21642353.619
  21621102.016   -18165331.07249 -14136697.52647  21621101.673    21621106.513
  20624686.610   -27090028.13449 -21076151.42148  20624686.337    20624688.077
  23679635.204    -9754715.18449  -7576002.12845  23679634.650    23679640.092
 04  2 29  1 40  0.0000000  0  8G18G 9G15G14G21G 3G22G31
  21337757.345   -22497389.06349 -17486088.91047  21337756.808    21337760.189
  23790091.599   -10486812.17949  -8157607.86345  23790091.333    23790096.730
                   -924148.81949   -713705.27943
  21962727.517   -21433346.78349 -16688881.14147  21962727.051    21962731.462
  21653461.142   -20978749.76849 -16088708.55447  21653460.531    21653463.887
  21618176.327   -18180706.03949 -14148678.01247  21618175.938    21618180.748
  20624865.408   -27089088.45649 -21075419.18748  20624865.133    20624866.858
  23665040.938    -9831408.38549  -7635763.01145  23665040.394    23665045.798
 04  2 29  1 40 30.0000000  0  8G18G 9G15G14G21G 3G22G31
  21347673.099   -22445281.28849 -17445485.44547  21347672.574    21347675.967
  23783590.168   -10520977.17549  -8184229.87145  23783589.863    23783595.313
  20184013.943     -945954.51349   -730696.79847  20184013.138    20184017.753
  21945456.184   -21524108.20749 -16759604.27747  21945455.687    21945460.075
  21664631.301   -20920050.20749 -16042968.64947  21664630.688    21664634.037
  21615357.864   -18195516.86149 -14160218.89747  21615357.460    21615362.324
  20625096.842   -27087872.17749 -21074471.42548  20625096.573    20625098.301
  23650523.933    -9907695.39149  -7695207.37745  23650523.344    23650528.753
 04  2 29  1 41  0.0000000  0  8G18G 9G15G14G21G 3G22G31
  21357621.893   -22393000.00149 -17404746.76947  21357621.367    21357624.784
  23777181.396   -10554655.35249  -8210472.54045  23777181.080    23777186.477
  20179929.018     -967420.52749   -747423.54248  20179928.276    20179932.952
  21928250.900   -21614522.47049 -16830056.89447  21928250.398    21928254.763
  21675861.703   -20861034.20349 -15996982.15447  21675861.093    21675864.477
  21612647.109   -18209761.41549 -14171318.53247  21612646.756    21612651.636
  20625381.068   -27086378.49649 -21073307.49748  20625380.786    20625382.528
  23636084.964    -9983572.17049  -7754332.09145  23636084.419    23636089.773
 04  2 29  1 41 30.0000000  0  8G18G 9G15G14G21G 3G22G31
  21367602.202   -22340552.89449 -17363878.89047  21367601.717    21367605.131
  23770864.550   -10587850.86549  -8236339.09245  23770864.193    23770869.507
  20175907.702     -988552.26349   -763889.81748  20175907.000    20175911.681
  21911110.859   -21704593.65549 -16900242.18547  21911110.374    21911114.747
  21687150.901   -20801708.82949 -15950754.60347  21687150.258    21687153.722
  21610043.097   -18223445.76249 -14181981.64847  21610042.729    21610047.612
  20625716.565   -27084615.13149 -21071933.43248  20625716.284    20625718.031
  23621723.374   -10059043.00149  -7813140.48246  23621722.791    23621728.104
 04  2 29  1 42  0.0000000  0  8G18G 9G15G14G21G 3G22G31
  21377614.699   -22287936.78649 -17322879.31947  21377614.206    21377617.596
  23764640.726   -10620557.16649  -8261824.47745  23764640.312    23764645.569
  20171951.107    -1009343.75649   -780090.96348  20171950.499    20171955.180
  21894037.423   -21794315.12649 -16970154.96647  21894036.904    21894041.236
  21698499.883   -20742069.43549 -15904282.35947  21698499.262    21698502.719
  21607546.492   -18236565.22249 -14192204.57847  21607546.127    21607551.071
  20626104.090   -27082578.50849 -21070346.43548  20626103.825    20626105.564
  23607440.268   -10134101.10849  -7871627.23946  23607439.699    23607444.991
 04  2 29  1 42 30.0000000  0  8G18G 9G15G14G21G 3G22G31
  21387659.424   -22235151.50349 -17281747.92047  21387658.952    21387662.280
  23758510.514   -10652770.59249  -8286925.80345  23758510.235    23758515.482
                   -905597.43949   -700478.98447                  20168063.836
  21877031.225   -21883683.37249 -17039792.51247  21877030.707    21877034.970
  21709908.904   -20682115.03049 -15857564.65547  21709908.263    21709911.708
  21605157.729   -18249118.35049 -14201986.21747  21605157.381    21605162.277
  20626543.655   -27080268.47249 -21068546.38948  20626543.411    20626545.147
  23593236.355   -10208742.97549  -7929789.66045  23593235.783    23593241.138
 04  2 29  1 43  0.0000000  0  8G18G 9G15G14G21G 3G22G31
  21397735.312   -22182202.25149 -17240488.75547  21397734.846    21397738.145
  23752474.093   -10684492.65049  -8311644.23445  23752473.804    23752478.746
  20164233.631     -925705.58049   -716147.65048  20164232.722    20164237.354
  21860091.857   -21972699.88849 -17109155.98047  21860091.374    21860095.622
  21721377.084   -20621849.23249 -15810604.29347  21721376.434    21721379.902
  21602876.093   -18261108.50249 -14211329.17147  21602875.750    21602880.600
  20627034.314   -27077689.89749 -21066537.09348  20627034.071    20627035.809
  23579111.301   -10282969.89149  -7987628.73345  23579110.762    23579116.020
 04  2 29  1 43 30.0000000  0  8G18G 9G15G14G21G 3G22G31
  21407842.901   -22129086.68249 -17199099.99547  21407842.439    21407845.702
  23746532.140   -10715718.07249  -8335975.68345  23746531.739    23746536.658
  20160472.757     -945468.44749   -731547.27448  20160471.996    20160476.596
  21843220.552   -22061358.90449 -17178240.87647  21843220.064    21843224.295
  21732905.107   -20561268.85149 -15763398.81047  21732904.483    21732907.958
  21600702.266   -18272532.11949 -14220230.67647  21600701.895    21600706.745
  20627576.557   -27074840.38449 -21064316.68248  20627576.316    20627578.058
  23565066.341   -10356776.32949  -8045140.17945  23565065.805    23565071.010
 04  2 29  1 44  0.0000000  0  8G18G 9G15G14G21G 3G22G31
  21417982.070   -22075805.11349 -17157581.88247  21417981.580    21417984.836
  23740685.012   -10746444.26949  -8359918.11345  23740684.606    23740689.775
                   -889594.81149   -687106.06543
  21826417.841   -22149657.63549 -17247045.02847  21826417.376    21826421.560
  21744492.981   -20500374.03549 -15715948.30247  21744492.391    21744495.869
  21598636.294   -18283388.59449 -14228690.24447  21598635.955    21598640.804
  20628170.259   -27071720.35049 -21061885.47048  20628170.005    20628171.754
  23551101.996   -10430159.36149  -8102321.72745  23551101.452    23551106.580
 04  2 29  1 44 30.0000000  0  8G18G 9G15G14G21G 3G22G31
  21428152.141   -22022361.00049 -17115937.11747  21428151.649    21428154.924
  23734933.009   -10776671.04149  -8383471.38645  23734932.668    23734937.688
                   -908663.34449   -701434.80543
  21809683.732   -22237595.84349 -17315568.25447  21809683.260    21809687.438
  21756140.390   -20439166.48449 -15668254.11947  21756139.818    21756143.246
  21596678.003   -18293679.40149 -14236709.03447  21596677.661    21596682.513
  20628814.875   -27068332.79149 -21059245.79748  20628814.629    20628816.366
  23537218.265   -10503118.74549  -8159173.13145  23537217.713    23537222.791
 04  2 29  1 45  0.0000000  0  8G18G 9G15G14G21G 3G22G31
  21438352.760   -21968756.22549 -17074167.16247  21438352.268    21438355.549
  23729276.287   -10806396.76449  -8406634.21545  23729275.945    23729280.874
                   -927384.20749   -715478.50543
  21793018.546   -22325171.89449 -17383809.28147  21793018.048    21793022.213
  21767847.188   -20377647.12249 -15620316.95847  21767846.553    21767849.981
  21594827.268   -18303405.03849 -14244287.43447  21594826.942    21594831.726
  20629510.146   -27064679.27749 -21056398.88848  20629509.887    20629511.620
  23523415.465   -10575652.74749  -8215693.06945  23523414.919    23523420.033
 04  2 29  1 45 30.0000000  0  8G18G 9G15G14G21G 3G22G31
  21448583.775   -21914991.80649 -17032272.80847  21448583.305    21448586.587
  23723715.298   -10835619.28049  -8429404.96445  23723715.034    23723720.078
                   -945756.12949   -672711.13147                  20146094.806
  21776422.636   -22412383.36249 -17451766.21347  21776422.167    21776426.372
  21779613.277   -20315816.13049 -15572136.97647  21779612.638    21779616.042
  21593084.114   -18312565.42249 -14251425.37947  21593083.739    21593088.542
  20630255.782   -27060760.89449 -21053345.58748  20630255.521    20630257.208
  23509694.009   -10647759.18649  -8271879.85045  23509693.528    23509698.610
 04  2 29  1 46  0.0000000  0  8G18G 9G15G14G21G 3G22G31
  21458845.773   -21861064.77749 -16990251.74247  21458845.301    21458848.566
  23718251.376   -10864332.61249  -8451778.94845  23718251.037    23718256.182
  20142662.248     -963773.58249   -686750.69348  20142661.526    20142666.132
  21759897.304   -22499224.05549 -17519434.22947  21759896.847    21759901.077
  21791439.374   -20253669.63749 -15523711.15847  21791438.761    21791442.170
  21591449.285   -18321156.16949 -14258119.45447  21591448.951    21591453.754
  20631052.372   -27056574.77249 -21050083.66048  20631052.110    20631053.784
  23496055.080   -10719431.83449  -8327728.60845  23496054.640    23496059.690
 04  2 29  1 46 30.0000000  0  8G18G 9G15G14G21G 3G22G31
  21469137.820   -21806979.60549 -16948107.44347  21469137.346    21469140.593
  23712884.234   -10892537.83449  -8473756.98145  23712883.842    23712888.743
  20139300.777     -981438.34649   -700515.42448  20139300.033    20139304.636
  21743442.400   -22585695.20749 -17586814.29047  21743441.929    21743446.105
  21803324.925   -20191210.82449 -15475041.95747  21803324.283    21803327.753
  21589922.296   -18329180.73149 -14264372.34247  21589921.958    21589926.695
  20631899.101   -27052125.04449 -21046616.31948  20631898.824    20631900.532
  23482498.508   -10790671.60749  -8383240.06045  23482498.055    23482503.142
 04  2 29  1 47  0.0000000  0  8G18G 9G15G14G21G 3G22G31
  21479459.776   -21752737.55749 -16905840.90347  21479459.290    21479462.528
  23707613.831   -10920232.81749  -8495337.42945  23707613.531    23707618.379
  20136006.704     -998748.85749   -714004.11748  20136005.933    20136010.515
  21727058.254   -22671794.24849 -17653904.38947  21727057.771    21727061.927
  21815269.774   -20128439.95949 -15426129.59847  21815269.183    21815272.633
  21588503.040   -18336638.87849 -14270183.86747  21588502.671    21588507.467
  20632795.769   -27047412.74149 -21042944.37348  20632795.513    20632797.230
  23469024.777   -10861476.19949  -8438412.41345  23469024.402    23469029.476
 04  2 29  1 47 30.0000000  0  8G18G 9G15G14G21G 3G22G31
  21489811.623   -21698338.27449 -16863451.84947  21489811.143    21489814.377
  23702441.227   -10947414.59049  -8516517.99045  23702440.953    23702445.842
  20132780.481    -1015702.87749   -727215.03548  20132779.697    20132784.282
  21710745.574   -22757518.02649 -17720702.08447  21710745.064    21710749.185
  21827274.190   -20065356.59349 -15376973.74947  21827273.603    21827276.949
  21587191.742   -18343529.49949 -14275553.17547  21587191.418    21587196.181
  20633742.449   -27042437.75849 -21039067.74848  20633742.207    20633743.916
  23455634.549   -10931842.37749  -8493243.17246  23455634.112    23455639.227
 04  2 29  1 48  0.0000000  0  8G18G 9G15G14G21G 3G22G31
  21500192.299   -21643787.41649 -16820944.67547  21500191.807    21500195.054
  23697365.764   -10974085.90649  -8537300.77645  23697365.425    23697370.551
  20129621.437    -1032303.69049   -740150.71548  20129620.664    20129625.259
  21694503.706   -22842869.00649 -17787209.28147  21694503.218    21694507.354
  21839337.182   -20001965.30449 -15327577.94747  21839336.592    21839339.946
  21585987.697   -18349857.09249 -14280483.75347  21585987.342    21585992.069
  20634738.065   -27037205.77249 -21034990.85448  20634737.798    20634739.538
  23442327.254   -11001772.52249  -8547734.13445  23442326.795    23442331.946
 04  2 29  1 48 30.0000000  0  8G18G 9G15G14G21G 3G22G31
  21510602.989   -21589078.84949 -16778314.61547  21510602.480    21510605.741
  23692389.288   -11000237.04749  -8557678.22745  23692389.081    23692394.070
  20126531.298    -1048542.23849   -752804.11348  20126530.543    20126535.147
  21678334.759   -22927837.19449 -17853418.19347  21678334.252    21678338.446
  21851460.198   -19938258.23349 -15277936.07447  21851459.600    21851463.033
  21584892.195   -18355614.02249 -14284969.65947  21584891.820    21584896.593
  20635783.839   -27031710.15149 -21030708.53648  20635783.564    20635785.336
  23429104.741   -11071256.73349  -8601877.60545  23429104.249    23429109.480
 04  2 29  1 49  0.0000000  0  8G18G 9G15G14G21G 3G22G31
  21521041.767   -21534222.58649 -16735569.46847  21521041.273    21521044.561
  23687510.462   -11025875.17149  -8577655.93345  23687510.168    23687515.146
  20123508.683    -1064426.12849   -765181.15848  20123507.935    20123512.544
  21662237.291   -23012429.77349 -17919334.43547  21662236.796    21662240.975
  21863641.457   -19874245.05249 -15228055.68847  21863640.886    21863644.327
  21583903.547   -18360809.17649 -14289017.82447  21583903.205    21583907.930
  20636877.804   -27025961.08149 -21026228.72948  20636877.547    20636879.337
  23415965.734   -11140302.12949  -8655679.14445  23415965.315    23415970.553
 04  2 29  1 49 30.0000000  0  8G18G 9G15G14G21G 3G22G31
  21531510.719   -21479207.60649 -16692700.65047  21531510.246    21531513.544
  23682731.919   -11050986.27449  -8597222.96845  23682731.616    23682736.675
  20120556.168    -1079941.64049   -777271.15748  20120555.419    20120560.010
  21646214.086   -23096632.11949 -17984946.59847  21646213.618    21646217.732
  21875883.263   -19809914.10149 -15177927.68947  21875882.701    21875886.075
  21583024.170   -18365430.53049 -14292618.88047  21583023.814    21583028.453
  20638022.131   -27019947.33849 -21021542.68848  20638021.875    20638023.662
  23402913.048   -11208894.25349  -8709127.50345  23402912.581    23402917.815
 04  2 29  1 50  0.0000000  0  8G18G 9G15G14G21G 3G22G31
  21542007.280   -21424047.45949 -16649718.71147  21542006.819    21542010.150
  23678051.679   -11075580.77249  -8616387.46145  23678051.356    23678056.477
  20117671.625    -1095100.01049   -789082.86248  20117670.886    20117675.470
  21630263.124   -23180454.77049 -18050262.88947  21630262.631    21630266.704
  21888183.184   -19745277.82849 -15127561.77447  21888182.606    21888185.908
  21582251.520   -18369490.59649 -14295782.56147  21582251.158    21582255.863
  20639214.297   -27013682.38549 -21016660.89048  20639214.049    20639215.811
  23389944.663   -11277043.36749  -8762230.65045  23389944.218    23389949.465
 04  2 29  1 50 30.0000000  0  8G18G 9G15G14G21G 3G22G31
  21552533.032   -21368734.10249 -16606617.38247  21552532.602    21552535.937
  23673471.917   -11099647.55349  -8635140.73145  23673471.657    23673476.620
  20114857.039    -1109890.74949   -800608.09248  20114856.275    20114860.888
  21614386.613   -23263886.30749 -18115274.41347  21614386.122    21614390.167
  21900542.860   -19680327.22649 -15076950.91647  21900542.270    21900545.655
  21581587.397   -18372980.18249 -14298501.70047  21581587.068    21581591.855
  20640455.873   -27007157.79849 -21011576.77648  20640455.640    20640457.355
  23377062.747   -11344737.94649  -8814979.63145  23377062.316    23377067.451
 04  2 29  1 51  0.0000000  0  8G18G 9G15G14G21G 3G22G31
  21563086.770   -21313274.01549 -16563401.71047  21563086.286    21563089.615
  23668991.681   -11123190.59949  -8653485.89745  23668991.438    23668996.494
  20112111.631    -1124317.93949   -811850.03748  20112110.865    20112115.475
  21598583.850   -23346930.23749 -18179983.91047  21598583.332    21598587.370
  21912961.131   -19615068.51149 -15026099.97047  21912960.543    21912964.002
  21581030.857   -18375905.17449 -14300780.90947  21581030.493    21581035.229
  20641745.563   -27000380.41149 -21006295.67748  20641745.317    20641747.015
  23364266.661   -11411981.93649  -8867377.48245  23364266.165    23364271.302
 04  2 29  1 51 30.0000000  0  8G18G 9G15G14G21G 3G22G31
  21573668.426   -21257666.81449 -16520071.41747  21573667.941    21573671.272
  23664612.062   -11146206.01749  -8671419.93445  23664611.740    23664616.663
  20109436.032    -1138378.32549   -822806.17148  20109435.258    20109439.883
  21582855.637   -23429582.19149 -18244387.98047  21582855.150    21582859.158
  21925438.492   -19549499.59849 -14975007.32147  21925437.915    21925441.310
  21580582.026   -18378263.77849 -14302618.78147  21580581.654    21580586.345
  20643083.555   -26993349.34349 -21000816.91048  20643083.301    20643084.968
  23351557.136   -11478770.88049  -8919420.77545  23351556.584    23351561.742
 04  2 29  1 52  0.0000000  0  8G18G 9G15G14G21G 3G22G31
  21584277.505   -21201915.82449 -16476629.07647  21584276.996    21584280.337
  23660332.499   -11168694.87249  -8688943.64445  23660332.093    23660337.058
  20106829.913    -1152073.35549   -833477.60448  20106829.122    20106833.760
  21567201.769   -23511843.49449 -18308487.64047  21567201.287    21567205.285
  21937974.251   -19483623.82949 -14923675.56247  21937973.637    21937977.019
  21580240.406   -18380058.90249 -14304017.56747  21580240.061    21580244.786
  20644469.051   -26986068.55849 -20995143.55548  20644468.802    20644470.432
  23338933.932   -11545105.80749  -8971110.26645  23338933.363    23338938.543
 04  2 29  1 52 30.0000000  0  8G18G 9G15G14G21G 3G22G31
  21594915.278   -21146013.78949 -16433069.04447  21594914.762    21594918.115
  23656155.122   -11190646.70649  -8706048.91845  23656154.825    23656159.774
  20104295.244    -1165392.96949   -843856.50748  20104294.497    20104299.109
  21551624.376   -23593703.16649 -18372274.33847  21551623.901    21551627.870
  21950569.959   -19417432.74549 -14872098.10147  21950569.377    21950572.806
  21580007.643   -18381282.14149 -14304970.73047  21580007.292    21580012.020
  20645903.517   -26978530.30849 -20989269.58148  20645903.249    20645904.898
  23326399.325   -11610975.86949  -9022437.54145  23326398.760    23326403.747
 04  2 29  1 53  0.0000000  0  8G18G 9G15G14G21G 3G22G31
  21605580.473   -21089967.88549 -16389396.91047  21605579.968    21605583.316
  23652079.020   -11212066.02649  -8722739.23345  23652078.777    23652083.881
  20101831.102    -1178342.07849   -853946.71148  20101830.342    20101834.971
  21536122.688   -23675165.29349 -18435751.26647  21536122.163    21536126.095
  21963224.402   -19350933.15949 -14820280.25047  21963223.827    21963227.302
  21579882.547   -18381939.67049 -14305483.08647  21579882.178    21579886.847
  20647385.550   -26970741.98349 -20983200.74448  20647385.293    20647386.963
  23313952.302   -11676385.09149  -9073405.72645  23313951.677    23313956.670
 04  2 29  1 53 30.0000000  0  8G18G 9G15G14G21G 3G22G31
  21616272.195   -21033782.40249 -16345616.00547  21616271.696    21616275.022
  23648103.980   -11232954.41549  -8739015.85245  23648103.739    23648108.798
  20099437.106    -1190922.52949   -863749.63948  20099436.350    20099440.954
  21520696.295   -23756230.95249 -18498919.25347  21520695.793    21520699.741
  21975937.019   -19284128.41449 -14768224.61646  21975936.396    21975939.845
  21579864.346   -18382034.91149 -14305557.28247  21579864.001    21579868.671
  20648914.424   -26962707.51449 -20976940.10448  20648914.174    20648915.853
  23301592.727   -11741334.80049  -9124015.84145  23301592.104    23301597.174
 04  2 29  1 54  0.0000000  0  8G18G 9G15G14G21G 3G22G31
  21626991.496   -20977452.09649 -16301722.25247  21626991.016    21626994.325
  23644231.669   -11253303.79149  -8754872.43645  23644231.439    23644236.302
  20097114.703    -1203126.88649   -873259.51148  20097113.948    20097118.545
  21505346.994   -23836891.91249 -18561771.89747  21505346.479    21505350.391
  21988708.607   -19217012.71449 -14715926.67446  21988708.034    21988711.542
  21579954.313   -18381562.18149 -14305188.91547  21579953.979    21579958.624
  20650491.105   -26954421.93549 -20970483.79348  20650490.863    20650492.541
  23289322.131   -11805816.83049  -9174261.53845  23289321.568    23289326.613
 04  2 29  1 54 30.0000000  0  8G18G 9G15G14G21G 3G22G31
  21637737.559   -20920981.02149 -16257718.80847  21637737.106    21637740.407
  23640461.429   -11273115.64549  -8770310.18445  23640461.290    23640466.224
  20094863.509    -1214956.89649   -882477.68548  20094862.746    20094867.340
  21490074.488   -23917149.39249 -18624310.13447  21490074.001    21490077.855
  22001538.834   -19149589.61549 -14663389.20546  22001538.272    22001541.757
  21580151.775   -18380524.80949 -14304380.56547  21580151.412    21580156.037
  20652114.833   -26945889.17649 -20963834.87348  20652114.589    20652116.257
  23277140.490   -11869831.94149  -9224143.40146  23277139.891    23277144.927
 04  2 29  1 55  0.0000000  0  8G18G 9G15G14G21G 3G22G31
  21648510.516   -20864368.84049 -16213605.41247  21648510.048    21648513.325
  23636794.294   -11292386.58149  -8785326.45945  23636794.078    23636799.117
  20092684.138    -1226409.55149   -891401.81648  20092683.375    20092687.961
  21474879.438   -23996999.90449 -18686531.25647  21474878.881    21474882.765
  22014427.830   -19081857.71849 -14610611.11646  22014427.239    22014430.713
  21580456.770   -18378921.42649 -14303131.15847  21580456.431    21580461.121
  20653785.640   -26937108.81849 -20956993.02048  20653785.382    20653787.068
  23265048.265   -11933376.79049  -9273658.83146  23265047.722    23265052.693
 04  2 29  1 55 30.0000000  0  8G18G 9G15G14G21G 3G22G31
  21659309.744   -20807618.38549 -16169384.26947  21659309.252    21659312.569
  23633230.003   -11311117.09449  -8799921.59545  23633229.725    23633234.769
  20090576.396    -1237485.77349   -900032.62148  20090575.624    20090580.210
  21459761.776   -24076443.02849 -18748434.93447  21459761.276    21459765.137
  22027375.062   -19013819.25349 -14557594.13046  22027374.496    22027378.018
  21580869.121   -18376754.43449 -14301442.57947  21580868.785    21580873.439
  20655503.040   -26928083.85149 -20949960.56048  20655502.773    20655504.471
  23253045.522   -11996451.28349  -9322807.74646  23253044.992    23253049.953
 04  2 29  1 56  0.0000000  0  8G18G 9G15G14G21G 3G22G31
  21670135.098   -20750730.69149 -16125056.18947  21670134.618    21670137.903
  23629768.926   -11329305.21549  -8814094.09345  23629768.781    23629773.622
  20088540.611    -1248183.65949   -908368.62748  20088539.843    20088544.431
  21444722.168   -24155476.58249 -18810019.47047  21444721.658    21444725.484
  22040380.620   -18945474.31949 -14504338.34646  22040380.072    22040383.654
  21581388.776   -18374023.89449 -14299314.88247  21581388.416    21581393.055
  20657266.850   -26918814.90149 -20942737.98648  20657266.602    20657268.298
  23241132.802   -12059053.13349  -9371588.35346  23241132.229    23241137.205
 04  2 29  1 56 30.0000000  0  8G18G 9G15G14G21G 3G22G31
  21680986.890   -20693704.11049 -16080619.87847  21680986.405    21680989.667
  23626411.879   -11346946.71449  -8827840.66645  23626411.706    23626416.460
  20086577.574    -1258499.36549   -916406.82148  20086576.832    20086581.409
  21429761.316   -24234096.12749 -18871281.39547  21429760.806    21429764.633
  22053445.012   -18876820.89149 -14450842.17246  22053444.418    22053447.991
  21582016.055   -18370727.46249 -14296746.21647  21582015.672    21582020.376
  20659077.355   -26909300.44649 -20935324.10448  20659077.118    20659078.795
  23229310.865   -12121177.77649  -9419997.12646  23229310.323    23229315.222
 04  2 29  1 57  0.0000000  0  8G18G 9G15G14G21G 3G22G31
  21691864.315   -20636542.85349 -16036078.62847  21691863.825    21691867.077
  23623158.354   -11364043.70349  -8841162.94945  23623158.158    23623162.886
  20084686.892    -1268434.98749   -924148.85248  20084686.141    20084690.722
  21414878.921   -24312303.24949 -18932221.96047  21414878.438    21414882.277
  22066567.310   -18807862.62349 -14397108.46846  22066566.763    22066570.319
  21582750.191   -18366868.88849 -14293739.51947  21582749.853    21582754.589
  20660933.767   -26899545.06349 -20927722.49348  20660933.503    20660935.182
  23217579.434   -12182826.72949  -9468035.24246  23217578.865    23217583.681
 04  2 29  1 57 30.0000000  0  8G18G 9G15G14G21G 3G22G31
  21702767.573   -20579245.75849 -15991431.52847  21702767.087    21702770.316
  23620009.321   -11380592.27349  -8854057.87745  23620009.038    23620013.836
  20082869.158    -1277987.08349   -931592.02848  20082868.390    20082872.998
  21400075.862   -24390093.67949 -18992837.82047  21400075.366    21400079.158
  22079747.929   -18738597.91849 -14343135.97946  22079747.369    22079750.941
  21583591.813   -18362446.54849 -14290293.53547  21583591.460    21583596.104
  20662836.275   -26889547.29649 -20919932.00448  20662836.016    20662837.664
  23205939.265   -12243995.79849  -9515699.41346  23205938.723    23205943.566
 04  2 29  1 58  0.0000000  0  8G18G 9G15G14G21G 3G22G31
  21713696.798   -20521812.06449 -15946677.99247  21713696.311    21713699.560
  23616965.122   -11396589.17949  -8866522.96745  23616964.855    23616969.660
  20081125.057    -1287152.44249   -938733.85448  20081124.287    20081128.874
  21385352.798   -24467463.78449 -19053126.16447  21385352.289    21385356.074
  22092987.201   -18669025.35249 -14288923.60546  22092986.623    22092990.143
  21584540.830   -18357459.35549 -14286407.40247  21584540.454    21584545.153
  20664785.011   -26879306.54049 -20911952.17748  20664784.757    20664786.384
  23194391.113   -12304681.34049  -9562986.80846  23194390.588    23194395.450
 04  2 29  1 58 30.0000000  0  8G18G 9G15G14G21G 3G22G31
  21724651.050   -20464247.02749 -15901822.10647  21724650.567    21724653.796
  23614025.419   -11412037.05049  -8878560.21745  23614025.151    23614030.012
  20079453.939    -1295934.18349   -945576.75448  20079453.154    20079457.726
  21370709.242   -24544415.63049 -19113088.59047  21370708.766    21370712.570
  22106284.178   -18599149.26149 -14234474.71646  22106283.588    22106287.133
  21585596.434   -18351911.68849 -14282084.52847  21585596.073    21585600.876
  20666779.024   -26868827.91549 -20903786.99748  20666778.757    20666780.396
  23182934.616   -12364885.75249  -9609899.29246  23182934.069    23182938.948
 04  2 29  1 59  0.0000000  0  8G18G 9G15G14G21G 3G22G31
  21735630.132   -20406551.59249 -15856864.60647  21735629.657    21735632.866
  23611190.256   -11426934.36549  -8890168.47245  23611190.163    23611195.186
  20077856.063    -1304330.98649   -952119.69948  20077855.290    20077859.860
  21356145.694   -24620947.56349 -19172723.80547  21356145.188    21356148.986
  22119638.776   -18528970.46249 -14179789.93446  22119638.203    22119641.779
  21586758.740   -18345804.00049 -14277325.28547  21586758.378    21586763.116
  20668818.066   -26858112.48749 -20895437.29248  20668817.805    20668819.451
  23171570.012   -12424607.00449  -9656435.28946  23171569.506    23171574.331
 04  2 29  1 59 30.0000000  0  8G18G 9G15G14G21G 3G22G31
  21746635.133   -20348719.80949 -15811800.87747  21746634.658    21746637.920
  23608461.647   -11441273.14549  -8901341.47645  23608461.612    23608466.616
  20076332.987    -1312334.74149   -958356.37848  20076332.224    20076336.791
  21341663.703   -24697050.78949 -19232024.97247  21341663.194    21341667.024
  22133052.278   -18458482.41749 -14124864.20246  22133051.687    22133055.221
  21588028.731   -18339130.32649 -14272125.01347  21588028.339    21588033.041
  20670903.281   -26847154.51849 -20886898.60448  20670903.032    20670904.698
  23160298.999   -12483836.55149  -9702588.15446  23160298.519    23160303.221
 04  2 29  2  0  0.0000000  0  8G18G 9G15G14G21G 3G22G31
  21757664.303   -20290761.20549 -15766638.31947  21757663.823    21757667.083
  23605838.140   -11455060.38349  -8912084.75145  23605837.889    23605842.874
  20074883.259    -1319952.88749   -964292.58348  20074882.518    20074887.073
  21327261.966   -24772731.93749 -19290997.24447  21327261.474    21327265.301
  22146522.842   -18387694.27249 -14069704.62046  22146522.272    22146525.726
  21589404.577   -18331899.73049 -14266490.77047  21589404.226    21589408.972
  20673032.796   -26835963.65049 -20878178.43348  20673032.557    20673034.202
  23149120.194   -12542581.10849  -9748363.09846  23149119.728    23149124.432
 04  2 29  2  0 30.0000000  0  8G18G 9G15G14G21G 3G22G31
  21768718.651   -20232670.24949 -15721372.62547  21768718.170    21768721.424
  23603321.115   -11468287.59049  -8922391.61345  23603320.811    23603325.897
  20073508.524    -1327177.20149   -969921.90048  20073507.770    20073512.314
  21312942.278   -24847982.23549 -19349633.78447  21312941.768    21312945.599
  22160051.663   -18316599.59349 -14014306.16546  22160051.116    22160054.609
  21590887.851   -18324105.57349 -14260417.39547  21590887.479    21590892.201
  20675207.860   -26824533.59449 -20869271.87748  20675207.602    20675209.253
  23138035.447   -12600831.85349  -9793753.24046  23138034.962    23138039.739
 04  2 29  2  1  0.0000000  0  8G18G 9G15G14G21G 3G22G31
  21779796.730   -20174454.63749 -15676009.79347  21779796.261    21779799.512
  23600909.503   -11480960.66949  -8932266.68145  23600909.151    23600914.134
  20072207.576    -1334013.64549   -975248.98548  20072206.820    20072211.350
  21298703.481   -24922807.22449 -19407938.92147  21298703.015    21298706.860
  22173637.493   -18245205.85149 -13958674.69646  22173636.900    22173640.379
  21592476.774   -18315755.94749 -14253911.19047  21592476.360    21592481.026
  20677426.814   -26812872.81149 -20860185.53448  20677426.565    20677428.181
  23127043.590   -12658594.18749  -9838762.80146  23127043.102    23127047.891
 04  2 29  2  1 30.0000000  0  8G18G 9G15G14G21G 3G22G31
  21790899.700   -20116108.19549 -15630545.01747  21790899.214    21790902.487
  23598604.939   -11493071.36849  -8941703.53045  23598604.606    23598609.383
  20070982.023    -1340453.85249   -980267.30848  20070981.269    20070985.814
  21284547.396   -24997197.80349 -19465905.54647  21284546.905    21284550.754
  22187281.461   -18173506.47749 -13902805.05546  22187280.845    22187284.344
  21594172.480   -18306844.27949 -14246967.02147  21594172.106    21594176.821
  20679690.833   -26800975.21449 -20850914.65848  20679690.588    20679692.207
  23116146.393   -12715859.10549  -9883384.76346  23116145.875    23116150.695
 04  2 29  2  2  0.0000000  0  8G18G 9G15G14G21G 3G22G31
  21802026.734   -20057635.02149 -15584981.50047  21802026.261    21802029.548
  23596407.208   -11504621.23449  -8950703.36445  23596406.788    23596411.519
  20069831.595    -1346499.39749   -984978.12048  20069830.845    20069835.396
  21270473.722   -25071155.10949 -19523534.57547  21270473.238    21270477.079
  22200982.820   -18101505.04049 -13846700.05646  22200982.230    22200985.753
  21595974.596   -18297373.98049 -14239587.57147  21595974.248    21595978.947
  20681999.200   -26788844.72949 -20841462.32748  20681998.950    20682000.565
  23105343.619   -12772627.80849  -9927620.08846  23105343.124    23105347.909
 04  2 29  2  2 30.0000000  0  8G18G 9G15G14G21G 3G22G31
  21813177.811   -19999035.74849 -15539319.70747  21813177.322    21813180.617
  23594316.114   -11515609.10049  -8959265.28045  23594315.795    23594320.687
  20068756.489    -1352148.98049   -989380.37048  20068755.730    20068760.282
  21256482.860   -25144677.30549 -19580824.53747  21256482.394    21256486.213
  22214741.695   -18029201.79449 -13790359.86646  22214741.125    22214744.587
  21597882.973   -18287345.66349 -14231773.28547  21597882.597    21597887.294
  20684351.687   -26776482.20749 -20831829.16748  20684351.442    20684353.056
  23094635.704   -12828898.45949  -9971467.29446  23094635.147    23094639.951
 04  2 29  2  3  0.0000000  0  8G18G 9G15G14G21G 3G22G31
  21824352.515   -19940312.05949 -15493560.97847  21824352.026    21824355.307
  23592332.347   -11526033.87249  -8967388.43445  23592331.948    23592336.817
  20067756.916    -1357401.69849   -993473.38448  20067756.162    20067760.710
  21242575.116   -25217762.92649 -19637774.32047  21242574.622    21242578.419
  22228557.802   -17956597.83749 -13733785.37146  22228557.180    22228560.670
  21599897.228   -18276760.59549 -14223525.17247  21599896.843    21599901.581
  20686748.093   -26763888.97049 -20822016.24348  20686747.843    20686749.457
  23084022.664   -12884669.74849 -10014925.39846  23084022.114    23084027.034
 04  2 29  2  3 30.0000000  0  8G18G 9G15G14G21G 3G22G31
  21835550.862   -19881464.38149 -15447705.62347  21835550.373    21835553.617
  23590456.096   -11535894.02849  -8975071.59645  23590455.717    23590460.475
  20066833.131    -1362256.24149   -997256.13348  20066832.371    20066836.908
  21228750.835   -25290409.84349 -19694382.26347  21228750.352    21228754.158
  22242431.005   -17883693.19749 -13676976.56646  22242430.416    22242433.964
  21602017.321   -18265618.99649 -14214843.40147  21602017.005    21602021.673
  20689188.248   -26751065.71549 -20812024.08148  20689187.993    20689189.616
  23073505.104   -12939939.51449 -10057992.70746  23073504.575    23073509.470
 04  2 29  2  4  0.0000000  0  8G18G 9G15G14G21G 3G22G31
  21846772.511   -19822493.87249 -15401754.56347  21846772.065    21846775.273
  23588687.355   -11545188.58449  -8982314.03045  23588686.942    23588691.535
  20065985.258    -1366711.69349  -1000727.89448  20065984.498    20065989.027
  21215010.270   -25362616.53949 -19750647.16947  21215009.795    21215013.611
  22256361.285   -17810488.89749 -13619934.25646  22256360.702    22256364.259
  21604243.280   -18253921.99449 -14205728.84447  21604242.924    21604247.533
  20691671.959   -26738013.69849 -20801853.65648  20691671.694    20691673.320
  23063083.314   -12994706.54549 -10100668.26946  23063082.760    23063087.592
 04  2 29  2  4 30.0000000  0  8G18G 9G15G14G21G 3G22G31
  21858017.687   -19763399.90749 -15355707.29447  21858017.220    21858020.417
  23587026.447   -11553915.16149  -8989113.91845  23587026.122    23587030.830
  20065213.848    -1370765.31849  -1003886.54248  20065213.102    20065217.646
  21201354.071   -25434380.22049 -19806566.87047  21201353.608    21201357.373
  22270348.836   -17736983.96249 -13562657.68946  22270348.239    22270351.751
  21606574.891   -18241669.06349 -14196181.08947  21606574.540    21606579.202
  20694199.230   -26724732.66149 -20791504.77948  20694198.974    20694200.595
  23052757.786   -13048967.54349 -10142949.51946  23052757.218    23052762.042
 04  2 29  2  5  0.0000000  0  8G18G 9G15G14G21G 3G22G31
  21869285.816   -19704185.45349 -15309566.14847  21869285.349    21869288.549
  23585473.734   -11562074.40649  -8995471.73045  23585473.436    23585478.318
  20064518.733    -1374418.05649  -1006732.81648  20064518.003    20064522.555
  21187782.211   -25505700.86049 -19862141.34147  21187781.694    21187785.446
  22284393.160   -17663180.79249 -13505148.73046  22284392.516    22284396.090
  21609011.777   -18228862.88549 -14186202.23647  21609011.443    21609016.138
  20696769.549   -26711225.35249 -20780979.58748  20696769.305    20696770.916
  23042528.461   -13102722.88149 -10184836.75146  23042527.891    23042532.670
 04  2 29  2  5 30.0000000  0  8G18G 9G15G14G21G 3G22G31
  21880576.915   -19644850.11549 -15263330.79847  21880576.472    21880579.677
  23584029.560   -11569664.01149  -9001385.64245  23584029.177    23584034.011
  20063900.377    -1377667.51049  -1009264.83848  20063899.631    20063904.195
  21174295.113   -25576575.69949 -19917368.43747  21174294.631    21174298.363
  22298494.288   -17589078.79249 -13447406.90846  22298493.654    22298497.248
  21611554.157   -18215502.83749 -14175791.79747  21611553.813    21611558.383
  20699382.994   -26697491.70449 -20770278.02248  20699382.736    20699384.330
  23032395.917   -13155969.66949 -10226327.71346  23032395.324    23032400.046
 04  2 29  2  6  0.0000000  0  8G18G 9G15G14G21G 3G22G31
  21891891.060   -19585394.03349 -15217001.36847  21891890.609    21891893.826
  23582694.047   -11576681.75149  -9006853.92645  23582693.701    23582698.396
  20063359.174    -1380511.51649  -1011480.93548  20063358.426    20063362.957
  21160893.469   -25647001.86149 -19972245.91447  21160892.988    21160896.661
  22312652.335   -17514677.86549 -13389432.16446  22312651.702    22312655.270
  21614201.876   -18201589.10449 -14164949.91447  21614201.480    21614206.014
  20702039.517   -26683531.67849 -20759400.06048  20702039.246    20702040.811
  23022360.556   -13208705.33949 -10267420.40246  23022359.942    23022364.733
 04  2 29  2  6 30.0000000  0  8G18G 9G15G14G21G 3G22G31
  21903227.596   -19525820.08249 -15170580.08947  21903227.131    21903230.360
  23581466.874   -11583128.93749  -9011877.66945  23581466.601    23581471.372
  20062894.958    -1382950.98049  -1013381.79948  20062894.207    20062898.726
  21147577.028   -25716979.99649 -20026774.28047  21147576.518    21147580.164
  22326866.776   -17439980.44849 -13331226.39546  22326866.152    22326869.696
  21616954.346   -18187124.41549 -14153678.71147  21616953.974    21616958.580
  20704738.485   -26669348.41849 -20748348.14848  20704738.228    20704739.774
  23012422.371   -13260930.35749 -10308115.17546  23012421.832    23012426.632
 04  2 29  2  7  0.0000000  0  8G18G 9G15G14G21G 3G22G31
  21914586.811   -19466127.16149 -15124066.10947  21914586.328    21914589.554
  23580349.104   -11589002.47549  -9016454.41045  23580348.953    23580353.643
  20062508.369    -1384982.60949  -1014964.86948  20062507.605    20062512.112
  21134346.509   -25786506.46849 -20080950.70247  21134346.047    21134349.659
  22341137.931   -17364984.97349 -13272788.37046  22341137.312    22341140.896
  21619811.891   -18172107.85249 -14141977.48047  21619811.546    21619816.173
  20707480.189   -26654940.76749 -20737121.39048  20707479.910    20707481.454
  23002582.108   -13312641.10149 -10348409.22146  23002581.564    23002586.338
 04  2 29  2  7 30.0000000  0  8G18G 9G15G14G21G 3G22G31
  21925968.122   -19406317.90149 -15077461.47847  21925967.638    21925970.889
  23579340.698   -11594303.00349  -9020584.61145  23579340.402    23579345.052
  20062199.230    -1386606.87449  -1016230.51448  20062198.469    20062202.996
  21121202.069   -25855580.96449 -20134774.93447  21121201.567    21121205.181
  22355465.334   -17289693.86649 -13214119.99046  22355464.724    22355468.313
  21622774.058   -18156541.81249 -14129848.09147  21622773.695    21622778.253
  20710264.057   -26640311.23049 -20725721.73248  20710263.783    20710265.329
  22992839.768   -13363837.58349 -10388302.56246  22992839.199    22992843.927
 04  2 29  2  8  0.0000000  0  8G18G 9G15G14G21G 3G22G31
  21937371.512   -19346392.52649 -15030766.36147  21937371.054    21937374.259
  23578441.411   -11599028.76749  -9024266.99545  23578441.055    23578445.816
  20061967.938    -1387822.24349  -1017177.54148  20061967.179    20061971.706
  21108143.968   -25924201.52149 -20188245.44847  21108143.496    21108147.099
  22369849.052   -17214107.12549 -13155221.24246  22369848.456    22369851.983
  21625840.586   -18140426.63349 -14117290.79747  21625840.243    21625844.797
  20713090.007   -26625460.40449 -20714149.64348  20713089.756    20713091.324
  22983195.601   -13414517.67449 -10427793.50346  22983195.016    22983199.818
 04  2 29  2  8 30.0000000  0  8G18G 9G15G14G21G 3G22G31
  21948797.111   -19286350.73949 -14983980.53347  21948796.624    21948799.823
  23577651.542   -11603178.02249  -9027500.16345  23577651.232    23577656.152
  20061814.827    -1388626.66349  -1017804.33848  20061814.065    20061818.600
  21095172.689   -25992365.69749 -20241360.33747  21095172.206    21095175.825
  22384289.100   -17138224.37749 -13096091.82646  22384288.510    22384291.969
  21629011.627   -18123762.46949 -14104305.72347  21629011.297    21629015.849
  20715958.142   -26610388.26049 -20702405.09748  20715957.871    20715959.415
  22973650.154   -13464679.01049 -10466880.21446  22973649.584    22973654.479
 04  2 29  2  9  0.0000000  0  8G18G 9G15G14G21G 3G22G31
  21960244.277   -19226195.19749 -14937106.07047  21960243.810    21960247.014
  23576971.533   -11606751.54349  -9030284.64245  23576971.313    23576975.945
  20061739.816    -1389020.69249  -1018111.35448  20061739.067    20061743.609
  21082288.245   -26060073.69649 -20294119.76347  21082287.766    21082291.404
  22398784.908   -17062048.42649 -13036733.95446  22398784.314    22398787.792
  21632286.790   -18106551.98749 -14090894.95147  21632286.420    21632290.944
  20718867.855   -26595097.62549 -20690490.29448  20718867.586    20718869.118
  22964203.392   -13514321.91149 -10505562.95946  22964202.853    22964207.654
 04  2 29  2  9 30.0000000  0  8G18G 9G15G14G21G 3G22G31
  21971713.469   -19165924.08649 -14890141.55147  21971712.990    21971716.169
  23576401.978   -11609745.48849  -9032617.49345  23576401.737    23576406.130
  20061743.640    -1389000.56849  -1018095.65748  20061742.874    20061747.392
  21069491.492   -26127320.96449 -20346520.18147  21069490.995    21069494.630
  22413336.924   -16985576.72849 -12977145.62946  22413336.380    22413339.882
  21635666.089   -18088793.53149 -14077057.18247  21635665.691    21635670.249
  20721819.504   -26579586.44349 -20678403.64548  20721819.233    20721820.752
  22954856.220   -13563441.81449 -10543838.18446  22954855.635    22954860.379
 04  2 29  2 10  0.0000000  0  8G18G 9G15G14G21G 3G22G31
  21983203.542   -19105543.15249 -14843091.45447  21983203.055    21983206.253
  23575941.711   -11612164.13349  -9034502.10545  23575941.366    23575945.950
  20061825.530    -1388570.27949  -1017760.34848  20061824.758    20061829.266
  21056781.673   -26194111.18649 -20398564.46047  21056781.194    21056784.847
  22427944.356   -16908814.61049 -12917330.99846  22427943.768    22427947.207
  21639148.426   -18070493.21049 -14062797.17847  21639148.080    21639152.638
  20724811.986   -26563860.80449 -20666149.87948  20724811.721    20724813.235
  22945607.775   -13612042.47649 -10581708.79346  22945607.207    22945611.983
 04  2 29  2 10 30.0000000  0  8G18G 9G15G14G21G 3G22G31
  21994715.863   -19045045.77349 -14795950.63147  21994715.345    21994718.517
  23575592.299   -11613999.42849  -9035932.21645  23575591.977    23575596.754
  20061987.054    -1387721.46949  -1017098.92348  20061986.276    20061990.783
  21044160.584   -26260435.39149 -20450245.60447  21044160.091    21044163.709
  22442608.038   -16831756.55549 -12857285.76646  22442607.456    22442610.792
  21642735.195   -18051644.72949 -14048110.04747  21642734.836    21642739.375
  20727846.459   -26547914.64449 -20653724.28948  20727846.201    20727847.679
  22936459.890   -13660115.05449 -10619167.90646  22936459.330    22936464.015
 04  2 29  2 11  0.0000000  0  8G18G 9G15G14G21G 3G22G31
  22006249.300   -18984436.94249 -14748722.95147  22006248.771    22006251.958
  23575353.517   -11615254.42649  -9036910.08045  23575353.262    23575357.861
  20062227.664    -1386456.96149  -1016113.57848  20062226.899    20062231.391
  21031627.714   -26326295.95149 -20501565.46947  21031627.198    21031630.794
  22457327.271   -16754406.41749 -12797012.93446  22457326.666    22457330.086
  21646425.317   -18032253.03649 -14032999.62647  21646424.942    21646429.510
  20730922.019   -26531752.43249 -20641130.34348  20730921.742    20730923.218
  22927411.952   -13707662.13849 -10656217.54846  22927411.394    22927416.122
 04  2 29  2 11 30.0000000  0  8G18G 9G15G14G21G 3G22G31
  22017803.727   -18923717.89649 -14701409.39547  22017803.202    22017806.350
  23575225.311   -11615928.79049  -9037435.46245  23575225.051    23575229.358
  20062547.492    -1384776.25149  -1014803.91948  20062546.738    20062551.224
  21019183.211   -26391691.88049 -20552523.28747  21019182.723    21019186.312
  22472101.822   -16676765.44349 -12736513.48646  22472101.218    22472104.733
  21650218.438   -18012319.71249 -14017467.16047  21650218.076    21650222.702
  20734038.393   -26515375.75049 -20628369.27548  20734038.124    20734039.600
  22918464.185   -13754682.57449 -10692856.81146  22918463.678    22918468.346
 04  2 29  2 12  0.0000000  0  8G18G 9G15G14G21G 3G22G31
  22029378.513   -18862891.96449 -14654012.54447  22029377.999    22029381.133
  23575207.000   -11616024.15649  -9037509.71745  23575206.765    23575211.037
  20062946.290    -1382680.40549  -1013170.76848  20062945.522    20062950.013
  21006827.004   -26456624.16249 -20603119.81547  21006826.517    21006830.073
  22486931.154   -16598836.76149 -12675789.83546  22486930.572    22486934.059
  21654114.010   -17991848.22449 -14001515.33747  21654113.669    21654118.251
  20737194.909   -26498787.98649 -20615443.72348  20737194.639    20737196.116
  22909616.553   -13801177.47749 -10729086.56946  22909616.003    22909620.639
 04  2 29  2 12 30.0000000  0  8G18G 9G15G14G21G 3G22G31
  22040974.550   -18801954.09849 -14606528.48747  22040974.051    22040977.227
  23575300.225   -11615533.33849  -9037127.23945  23575300.019    23575304.474
  20063425.425    -1380162.45449  -1011208.71948  20063424.660    20063429.135
  20994560.447   -26521085.17649 -20653349.13847  20994559.939    20994563.484
  22501816.284   -16520614.85449 -12614837.72246  22501815.677    22501819.205
  21658112.961   -17970833.65849 -13985140.34947  21658112.591    21658117.228
  20740392.560   -26481984.06549 -20602349.75348  20740392.295    20740393.785
  22900870.168   -13847139.30049 -10764900.93246  22900869.668    22900874.358
 04  2 29  2 13  0.0000000  0  8G18G 9G15G14G21G 3G22G31
  22052591.126   -18740908.57049 -14558960.52247  22052590.609    22052593.788
  23575504.434   -11614459.90049  -9036290.75045  23575504.308    23575508.906
  20063984.313    -1377225.22849  -1008919.94848  20063983.553    20063988.045
  20982383.060   -26585077.49249 -20703213.22447  20982382.579    20982386.116
  22516756.344   -16442104.52949 -12553660.85346  22516755.724    22516759.273
  21662214.193   -17949281.13949 -13968346.16247  21662213.881    21662218.559
  20743630.456   -26464968.63649 -20589090.95648  20743630.204    20743631.696
  22892224.843   -13892570.63449 -10800301.94346  22892224.393    22892228.991
 04  2 29  2 13 30.0000000  0  8G18G 9G15G14G21G 3G22G31
  22064228.346   -18679754.39849 -14511307.90747  22064227.843    22064231.022
  23575820.167   -11612800.95749  -9034998.01145  23575820.069    23575824.494
  20064623.667    -1373865.30149  -1006301.80648  20064622.941    20064627.397
  20970295.633   -26648597.36149 -20752709.17847  20970295.117    20970298.642
  22531751.492   -16363304.33449 -12492258.10146  22531750.874    22531754.500
  21666418.112   -17927189.57549 -13951131.95447  21666417.791    21666422.427
  20746908.870   -26447740.34449 -20575666.29948  20746908.634    20746910.128
  22883681.160   -13937468.09649 -10835286.92746  22883680.658    22883685.238
 04  2 29  2 14  0.0000000  0  8G18G 9G15G14G21G 3G22G31
  22075885.685   -18618494.61549 -14463572.98747  22075885.193    22075888.312
  23576246.802   -11610558.36649  -9033250.46745  23576246.644    23576251.000
  20065343.119    -1370084.57949  -1003355.76748  20065342.363    20065346.845
  20958297.776   -26711646.09949 -20801838.01847  20958297.283    20958300.834
  22546801.190   -16284217.58749 -12430632.06846  22546800.565    22546804.214
  21670723.791   -17904563.15449 -13933500.96647  21670723.430    21670728.046
  20750227.061   -26430303.19249 -20562078.88648  20750226.817    20750228.293
  22875238.742   -13981832.75849 -10869856.74546  22875238.242    22875242.940
 04  2 29  2 14 30.0000000  0  8G18G 9G15G14G21G 3G22G31
  22087563.301   -18557128.33949 -14415755.09447  22087562.818    22087565.958
  23576784.674   -11607730.14749  -9031046.62645  23576784.612    23576789.104
  20066143.085    -1365880.61149  -1000079.93048  20066142.339    20066146.773
  20946390.107   -26774220.97049 -20850597.61047  20946389.626    20946393.174
  22561905.577   -16204843.33649 -12368782.01146  22561904.998    22561908.643
  21675131.280   -17881401.49149 -13915452.90647  21675130.969    21675135.550
  20753585.105   -26412656.43649 -20548328.14948  20753584.852    20753586.334
  22866898.280   -14025662.28949 -10904009.59646  22866897.776    22866902.398
 04  2 29  2 15  0.0000000  0  8G18G 9G15G14G21G 3G22G31
  22099261.131   -18495655.72249 -14367854.33947  22099260.670    22099263.800
  23577434.802   -11604314.47449  -9028385.02845  23577434.572    23577439.155
  20067024.075    -1361251.13449   -996472.53048  20067023.319    20067027.738
  20934573.158   -26836319.29849 -20898985.86947  20934572.667    20934576.211
  22577064.718   -16125181.86149 -12306708.14046  22577064.094    22577067.704
  21679640.701   -17857704.71149 -13896987.87347  21679640.357    21679644.935
  20756983.095   -26394799.77249 -20534413.84648  20756982.840    20756984.318
  22858660.116   -14068953.79149 -10937743.19946  22858659.590    22858664.233
 04  2 29  2 15 30.0000000  0  8G18G 9G15G14G21G 3G22G31
  22110978.934   -18434078.11349 -14319871.77647  22110978.448    22110981.632
  23578196.543   -11600311.96349  -9025266.13245  23578196.374    23578200.863
  20067986.009    -1356196.02349   -992533.46848  20067985.253    20067989.641
  20922846.934   -26897940.82449 -20947002.59547  20922846.445    20922849.940
  22592278.174   -16045234.56349 -12244411.54846  22592277.522    22592281.144
  21684251.438   -17833475.06849 -13878107.62547  21684251.095    21684255.669
  20760420.653   -26376735.31749 -20520337.62848  20760420.400    20760421.867
  22850524.334   -14111707.24449 -10971057.53846  22850523.782    22850528.532
 04  2 29  2 16  0.0000000  0  8G18G 9G15G14G21G 3G22G31
  22122716.435   -18372396.88349 -14271808.46247  22122715.992    22122719.180
  23579070.049   -11595722.22149  -9021689.66045  23579069.631    23579074.243
  20069029.012    -1350714.76349   -988262.33848  20069028.271    20069032.659
  20911211.677   -26959084.51149 -20994646.98347  20911211.170    20911214.630
  22607545.821   -15965002.21749 -12181892.84246  22607545.232    22607548.885
  21688963.245   -17808714.25449 -13858813.47747  21688962.893    21688967.464
  20763897.484   -26358464.16049 -20506100.34648  20763897.233    20763898.720
  22842491.114   -14153921.89349 -11003952.04146  22842490.553    22842495.290
 04  2 29  2 16 30.0000000  0  8G18G 9G15G14G21G 3G22G31
  22134473.718   -18310612.37449 -14223664.67147  22134473.243    22134476.379
  23580055.117   -11590544.50749  -9017655.03645  23580054.768    23580059.373
  20070153.340    -1344806.33249   -983658.34948  20070152.612    20070156.995
  20899667.582   -27019748.91749 -21041917.90248  20899667.092    20899670.517
  22622867.625   -15884485.80949 -12119152.77946  22622867.035    22622870.631
  21693775.952   -17783423.28149 -13839106.22447  21693775.592    21693780.170
  20767413.527   -26339987.05349 -20491702.57948  20767413.289    20767414.763
  22834560.786   -14195596.06549 -11036425.39146  22834560.203    22834564.898
 04  2 29  2 17  0.0000000  0  8G18G 9G15G14G21G 3G22G31
  22146250.633   -18248724.24949 -14175440.13747  22146250.160    22146253.309
  23581152.605   -11584776.93349  -9013160.78445  23581152.238    23581156.890
  20071359.404    -1338468.40249   -978719.67948  20071358.668    20071363.057
  20888215.233   -27079931.21549 -21088813.14948  20888214.740    20888218.147
  22638243.684   -15803684.81449 -12056190.96946  22638243.020    22638246.518
  21698689.551   -17757602.13649 -13818985.83847  21698689.170    21698693.762
  20770968.888   -26321303.60049 -20477144.01948  20770968.628    20770970.102
  22826733.739   -14236727.01449 -11068475.45046  22826733.181    22826737.932
 04  2 29  2 17 30.0000000  0  8G18G 9G15G14G21G 3G22G31
  22158046.709   -18186735.42149 -14127137.13747  22158046.224    22158049.378
  23582361.935   -11578421.38249  -9008208.34945  23582361.761    23582366.288
  20072646.942    -1331702.15249   -973447.26048  20072646.216    20072650.615
  20876854.438   -27139632.43949 -21135333.54048  20876853.935    20876857.339
  22653673.131   -15722602.11649 -11993009.64746  22653672.489    22653676.036
  21703703.348   -17731254.27549 -13798455.03447  21703702.969    21703707.593
  20774562.896   -26302416.81049 -20462427.02448  20774562.630    20774564.087
  22819009.838   -14277316.11649 -11100103.30646  22819009.338    22819014.037
 04  2 29  2 18  0.0000000  0  8G18G 9G15G14G21G 3G22G31
  22169862.189   -18124644.47449 -14078754.56447  22169861.714    22169864.873
  23583683.772   -11571475.43849  -9002795.87845  23583683.565    23583688.009
  20074016.610    -1324504.68549   -967838.83348  20074015.858    20074020.216
  20865585.820   -27198849.29349 -21181476.50148  20865585.316    20865588.669
  22669156.520   -15641236.23449 -11929607.66546  22669155.890    22669159.467
  21708817.538   -17704379.24249 -13777513.44347  21708817.149    21708821.778
  20778195.791   -26283325.69749 -20447550.81248  20778195.535    20778197.001
  22811389.755   -14317360.15649 -11131306.42046  22811389.194    22811393.904
 04  2 29  2 18 30.0000000  0  8G18G 9G15G14G21G 3G22G31
  22181696.710   -18062453.28149 -14030293.87547  22181696.251    22181699.443
  23585117.756   -11563939.60649  -8996923.78545  23585117.354    23585122.055
  20075468.214    -1316876.28349   -961894.61448  20075467.483    20075471.833
  20854409.393   -27257581.61949 -21227241.91048  20854408.883    20854412.210
  22684693.365   -15559589.54449 -11865986.87946  22684692.754    22684696.279
  21714031.437   -17676979.66749 -13756163.12247  21714031.039    21714035.729
  20781867.235   -26264032.14949 -20432516.86648  20781866.993    20781868.426
  22803873.351   -14356859.17249 -11162084.86146  22803872.828    22803877.415
 04  2 29  2 19  0.0000000  0  8G18G 9G15G14G21G 3G22G31
  22193550.471   -18000161.21249 -13981754.58247  22193550.015    22193553.191
  23586664.136   -11555812.48749  -8990590.95945  23586663.843    23586668.468
  20077002.274    -1308814.70749   -955612.85048  20077001.531    20077005.870
  20843325.607   -27315827.06849 -21272627.92848  20843325.106    20843328.420
  22700283.722   -15477661.66649 -11802146.96546  22700283.111    22700286.602
  21719345.220   -17649055.72449 -13734404.20247  21719344.840    21719349.440
  20785577.216   -26244535.98749 -20417325.03448  20785576.955    20785578.395
  22796461.115   -14395810.80549 -11192436.76246  22796460.569    22796465.068
 04  2 29  2 19 30.0000000  0  8G18G 9G15G14G21G 3G22G31
  22205423.032   -17937770.38549 -13933138.32947  22205422.566    22205425.743
  23588323.025   -11547095.06449  -8983798.11745  23588322.863    23588327.317
  20078618.691    -1300320.47449   -948993.95348  20078617.942    20078622.260
  20832334.452   -27373585.88449 -21317634.75148  20832333.955    20832337.231
  22715927.218   -15395454.77449 -11738089.64646  22715926.561    22715930.045
  21724758.205   -17620610.38349 -13712238.98947  21724757.793    21724762.433
  20789325.315   -26224839.58249 -20401977.16748  20789325.070    20789326.473
  22789152.949   -14434215.48349 -11222362.46246  22789152.418    22789156.923
 04  2 29  2 20  0.0000000  0  8G18G 9G15G14G21G 3G22G31
  22217314.294   -17875281.65049 -13884445.79247  22217313.803    22217316.903
  23590094.494   -11537786.95549  -8976544.97545  23590094.257    23590098.485
  20080317.565    -1291392.85749   -942037.35648  20080316.806    20080321.143
  20821436.157   -27430856.62349 -21362261.26248  20821435.660    20821438.923
  22731623.641   -15312969.42149 -11673815.35746  22731622.965    22731626.457
  21730270.082   -17591644.96249 -13689668.52947  21730269.697    21730274.358
  20793111.397   -26204943.64449 -20386473.82448  20793111.139    20793112.525
  22781949.092   -14472071.80849 -11251860.87746  22781948.565    22781953.123
 04  2 29  2 20 30.0000000  0  8G18G 9G15G14G21G 3G22G31
  22229224.443   -17812693.62649 -13835675.88247  22229223.929    22229226.989
  23591978.314   -11527885.90449  -8968829.85545  23591978.134    23591982.558
  20082099.428    -1282028.93749   -934740.77848  20082098.682    20082103.020
  20810631.221   -27487636.43449 -21406505.22848  20810630.750    20810634.047
  22747373.166   -15230204.72649 -11609323.37946  22747372.572    22747376.082
  21735881.040   -17562158.97949 -13666692.43047  21735880.683    21735885.326
  20796935.593   -26184847.04749 -20370814.12048  20796935.361    20796936.770
  22774850.147   -14509377.06749 -11280929.89246  22774849.580    22774854.122
 04  2 29  2 21  0.0000000  0  8G18G 9G15G14G21G 3G22G31
  22241152.669   -17750009.97549 -13786831.46247  22241152.181    22241155.252
  23593974.504   -11517394.56549  -8960654.77945  23593974.271    23593978.896
  20083963.946    -1272230.73849   -927105.80548  20083963.212    20083967.540
  20799919.456   -27543927.04949 -21450368.00148  20799918.986    20799922.243
  22763175.213   -15147164.60249 -11544616.78946  22763174.572    22763178.082
  21741590.311   -17532156.93149 -13643314.21047  21741589.930    21741594.486
  20800797.333   -26164553.54349 -20355000.98248  20800797.088    20800798.469
  22767855.702   -14546133.07349 -11309570.91346  22767855.132    22767859.677
 04  2 29  2 21 30.0000000  0  8G18G 9G15G14G21G 3G22G31
  22253099.585   -17687228.54849 -13737910.84347  22253099.090    22253102.161
  23596083.904   -11506309.99649  -8952017.39645  23596083.691    23596088.302
  20085911.817    -1261994.65449   -919129.62048  20085911.083    20085915.403
  20789301.559   -27599724.24849 -21493846.29348  20789301.086    20789304.358
  22779030.012   -15063847.07349 -11479694.04246  22779029.376    22779032.943
  21747397.981   -17501637.46349 -13619532.79647  21747397.590    21747402.134
  20804696.838   -26144061.22349 -20339032.92248  20804696.598    20804697.990
  22760966.474   -14582336.01349 -11337780.96746  22760965.931    22760970.504
 04  2 29  2 22  0.0000000  0  8G18G 9G15G14G21G 3G22G31
  22265064.739   -17624351.06149 -13688915.38746  22265064.227    22265067.320
  23598306.283   -11494633.14849  -8942918.49345  23598305.952    23598310.222
  20087942.925    -1251320.95549   -910812.43848  20087942.187    20087946.510
  20778777.496   -27655028.40749 -21536940.40548  20778777.012    20778780.300
  22794937.227   -14980254.02049 -11414556.60546  22794936.594    22794940.152
  21753303.550   -17470603.35549 -13595350.37547  21753303.191    21753307.696
  20808633.813   -26123372.31349 -20322911.68148  20808633.553    20808634.946
  22754182.444   -14617985.96449 -11365560.12846  22754181.888    22754186.459
 04  2 29  2 22 30.0000000  0  8G18G 9G15G14G21G 3G22G31
  22277048.190   -17561377.37249 -13639844.96046  22277047.711    22277050.775
  23600641.170   -11482362.28649  -8933356.75045  23600640.897    23600645.179
  20090057.752    -1240207.44949   -902152.54848  20090057.003    20090061.323
  20768347.747   -27709836.89749 -21579648.27648  20768347.262    20768350.541
  22810896.962   -14896384.95349 -11349204.07946  22810896.395    22810899.925
  21759307.088   -17439054.91049 -13570767.16747  21759306.685    21759311.157
  20812608.322   -26102486.01749 -20306636.62148  20812608.051    20812609.461
  22747504.074   -14653080.77649 -11392906.69846  22747503.541    22747508.118
 04  2 29  2 23  0.0000000  0  8G18G 9G15G14G21G 3G22G31
  22289049.487   -17498310.20849 -13590701.70046  22289048.982    22289052.031
  23603088.615   -11469499.84649  -8923334.04445  23603088.371    23603092.793
  20092255.888    -1228656.05849   -893151.45348  20092255.141    20092259.466
  20758011.982   -27764151.33549 -21621971.17348  20758011.518    20758014.781
  22826908.619   -14812243.45549 -11283639.28546  22826908.050    22826911.526
  21765407.544   -17406996.43549 -13545786.53247  21765407.152    21765411.624
  20816619.696   -26081406.00149 -20290210.62148  20816619.444    20816620.847
  22740931.141   -14687622.03349 -11419821.93746  22740930.541    22740935.181
 04  2 29  2 23 30.0000000  0  8G18G 9G15G14G21G 3G22G31
  22301068.947   -17435147.23149 -13541483.78246  22301068.462    22301071.448
  23605649.548   -11456042.52749  -8912847.77745  23605649.289    23605653.639
  20094538.097    -1216662.90649   -883806.12148  20094537.341    20094541.658
  20747771.112   -27817967.46949 -21663905.77848  20747770.607    20747773.885
  22842972.421   -14727827.47749 -11217860.59746  22842971.860    22842975.371
  21771605.410   -17374426.44349 -13520407.30847  21771605.012    21771609.522
  20820668.396   -26060130.05849 -20273631.94448  20820668.121    20820669.525
  22734464.109   -14721605.89249 -11446302.82946  22734463.559    22734468.207
 04  2 29  2 24  0.0000000  0  8G18G 9G15G14G21G 3G22G31
  22313105.802   -17371892.99049 -13492194.74946  22313105.299    22313108.257
  23608322.947   -11441994.32749  -8901901.07645  23608322.638    23608326.904
  20096903.813    -1204230.89149   -874118.82148  20096903.054    20096907.370
  20737624.439   -27871288.38249 -21705454.49848  20737623.962    20737627.211
  22859087.556   -14643141.92049 -11151871.85546  22859087.003    22859090.453
  21777899.594   -17341350.26849 -13494633.65747  21777899.174    21777903.746
  20824753.442   -26038662.85849 -20256904.23948  20824753.173    20824754.579
  22728102.694   -14755035.11149 -11472351.55746  22728102.182    22728106.813
 04  2 29  2 24 30.0000000  0  8G18G 9G15G14G21G 3G22G31
  22325160.609   -17308544.60349 -13442832.35846  22325160.083    22325163.069
  23611109.308   -11427351.63349  -8890491.16145  23611109.099    23611113.342
  20099353.827    -1191355.82049   -864086.28248  20099353.087    20099357.412
  20727572.949   -27924109.20549 -21746613.54148  20727572.460    20727575.684
  22875254.512   -14558183.90549 -11085670.81246  22875253.912    22875257.433
  21784290.427   -17307765.88049 -13468463.99947  21784290.040    21784294.603
  20828875.430   -26017001.61449 -20240025.32948  20828875.180    20828876.559
  22721847.608   -14787905.55349 -11497964.84446  22721847.093    22721851.738
 04  2 29  2 25  0.0000000  0  8G18G 9G15G14G21G 3G22G31
  22337233.039   -17245103.53549 -13393397.74646  22337232.506    22337235.544
  23614008.582   -11412114.74249  -8878618.24345  23614008.372    23614012.753
  20101888.198    -1178037.49549   -853708.35248  20101887.443    20101891.796
  20717616.618   -27976429.78449 -21787382.78948  20717616.133    20717619.370
  22891473.041   -14472954.99149 -11019258.67846  22891472.443    22891475.989
  21790777.468   -17273675.95049 -13441900.41347  21790777.109    21790781.716
  20833034.004   -25995148.06649 -20222996.57648  20833033.731    20833035.120
  22715698.914   -14820216.82849 -11523142.43246  22715698.399    22715703.076
 04  2 29  2 25 30.0000000  0  8G18G 9G15G14G21G 3G22G31
  22349322.899   -17181570.71949 -13343891.63546  22349322.386    22349325.402
  23617020.963   -11396284.41649  -8866282.88845  23617020.787    23617025.094
  20104506.953    -1164275.87949   -842984.99848  20104506.200    20104510.542
  20707755.535   -28028249.84849 -21827762.01548  20707755.040    20707758.288
  22907742.720   -14387457.21749 -10952637.03946  22907742.130    22907745.697
  21797360.324   -17239082.71249 -13414944.63447  21797359.972    21797364.606
  20837228.905   -25973103.49049 -20205818.96048  20837228.657    20837230.051
  22709656.765   -14851968.73349 -11547884.14346  22709656.242    22709660.834
 04  2 29  2 26  0.0000000  0  8G18G 9G15G14G21G 3G22G31
  22361429.719   -17117948.75749 -13294316.06146  22361429.215    22361432.213
  23620146.077   -11379862.55549  -8853486.57445  23620145.863    23620150.127
  20107209.843    -1150071.94849   -831916.98448  20107209.099    20107213.438
  20697989.559   -28079570.17049 -21867751.83848  20697989.080    20697992.335
  22924063.084   -14301693.02049 -10885807.79246  22924062.472    22924066.082
  21804038.243   -17203989.85549 -13387599.54847  21804037.899    21804042.544
  20841459.674   -25950870.48749 -20188494.52548  20841459.418    20841460.807
  22703720.763   -14883162.46149 -11572190.90846  22703720.222    22703724.829
 04  2 29  2 26 30.0000000  0  8G18G 9G15G14G21G 3G22G31
  22373554.113   -17054234.54649 -13244668.61646  22373553.611    22373556.634
  23623384.280   -11362845.56049  -8840226.55445  23623384.052    23623388.282
  20109997.683    -1135421.54849   -820501.07448  20109996.949    20110001.286
  20688319.550   -28130386.34949 -21907348.82448  20688319.065    20688322.327
  22940434.682   -14215659.94749 -10818769.03846  22940434.009    22940437.623
  21810811.645   -17168395.47449 -13359863.65847  21810811.300    21810815.894
  20845726.800   -25928446.52649 -20171021.28948  20845726.554    20845727.930
  22697891.780   -14913793.81649 -11596059.46446  22697891.267    22697895.840
 04  2 29  2 27  0.0000000  0  8G18G 9G15G14G21G 3G22G31
  22385695.768   -16990429.89949 -13194950.68946  22385695.296    22385698.285
  23626735.340   -11345234.27949  -8826503.47845  23626735.112    23626739.531
  20112870.558    -1120324.70249   -808737.28448  20112869.820    20112874.124
  20678745.499   -28180698.04949 -21946552.70948  20678745.023    20678748.290
  22956856.992   -14129359.75849 -10751522.13946  22956856.359    22956859.963
  21817679.964   -17132302.24149 -13331739.05647  21817679.625    21817684.232
  20850029.985   -25905832.97549 -20153400.32448  20850029.745    20850031.101
  22692169.945   -14943862.48149 -11619489.56346  22692169.428    22692173.910
 04  2 29  2 27 30.0000000  0  8G18G 9G15G14G21G 3G22G31
  22397854.440   -16926535.90949 -13145163.15346  22397853.948    22397856.898
  23630199.593   -11327029.82849  -8812318.16945  23630199.363    23630203.710
  20115828.324    -1104781.47049   -796625.66048  20115827.552    20115831.894
  20669267.452   -28230505.31049 -21985363.52948  20669266.984    20669270.242
  22973330.003   -14042794.09549 -10684068.38346  22973329.285    22973332.797
  21824642.772   -17095712.67449 -13303227.70147  21824642.424    21824646.968
  20854368.945   -25883031.65449 -20135633.04248  20854368.691    20854370.024
  22686555.109   -14973368.76249 -11642481.43246  22686554.555    22686559.019
 04  2 29  2 28  0.0000000  0  8G18G 9G15G14G21G 3G22G31
  22410030.038   -16862552.77749 -13095306.14346  22410029.550    22410032.474
  23633776.906   -11308231.75549  -8797670.28445  23633776.547    23633780.867
  20118871.209    -1088790.82049   -784165.39748  20118870.456    20118874.798
  20659885.648   -28279806.96349 -22023780.36548  20659885.169    20659888.431
  22989853.222   -13955963.65549 -10616408.29846  22989852.546    22989856.076
  21831699.741   -17058628.13749 -13274330.66147  21831699.389    21831703.888
  20858743.573   -25860042.89149 -20117719.70148  20858743.313    20858744.640
  22681047.415   -15002311.71449 -11665034.33746  22681046.898    22681051.389
 04  2 29  2 28 30.0000000  0  8G18G 9G15G14G21G 3G22G31
  22422222.313   -16798481.72649 -13045380.63746  22422221.859    22422224.775
  23637466.907   -11288840.65649  -8782560.30245  23637466.633    23637470.817
  20121999.357    -1072352.31149   -771356.15348  20121998.590    20122002.920
  20650600.125   -28328602.47749 -22061802.80848  20650599.647    20650602.912
  23006426.592   -13868870.01349 -10548543.14346  23006425.973    23006429.476
  21838850.420   -17021050.94649 -13245049.72547  21838850.089    21838854.636
  20863153.597   -25836867.91549 -20099661.26148  20863153.340    20863154.652
  22675647.015   -15030690.87549 -11687147.93446  22675646.457    22675650.983
 04  2 29  2 29  0.0000000  0  8G18G 9G15G14G21G 3G22G31
  22434431.397   -16734322.88049 -12995386.70846  22434430.927    22434433.785
  23641269.667   -11268856.17049  -8766987.96945  23641269.410    23641273.704
  20125212.870    -1055465.12649   -758197.29548  20125212.106    20125216.414
  20641411.208   -28376890.54149 -22099429.83548  20641410.739    20641413.960
  23023050.075   -13781513.59249 -10480473.20446  23023049.385    23023052.807
  21846094.657   -16982982.41249 -13215385.93347  21846094.284    21846098.797
  20867599.005   -25813507.06649 -20081457.98448  20867598.762    20867600.069
  22670354.079   -15058505.14649 -11708821.35046  22670353.511    22670358.102
 04  2 29  2 29 30.0000000  0  8G18G 9G15G14G21G 3G22G31
  22446657.370   -16670075.18749 -12945323.55346  22446656.893    22446659.662
  23645185.619   -11248277.19649  -8750952.39045  23645185.459    23645189.756
  20128512.157    -1038127.17049   -744687.18648  20128511.392    20128515.704
  20632319.243   -28424668.97349 -22136659.74948  20632318.743    20632321.975
  23039723.460   -13693893.86749 -10412198.09846  23039722.812    23039726.246
  21853432.295   -16944422.78749 -13185339.46747  21853431.914    21853436.435
  20872079.916   -25789959.54249 -20063109.24548  20872079.680    20872081.013
  22665169.079   -15085752.32649 -11730052.87346  22665168.530    22665173.114
 04  2 29  2 30  0.0000000  0  8G18G 9G15G14G21G 3G22G31
  22458899.848   -16605740.58449 -12895192.67846  22458899.308    22458902.095
  23649214.548   -11227105.51049  -8734454.95045  23649214.300    23649218.538
  20131897.087    -1020339.21849   -730826.43048  20131896.328    20131900.622
  20623324.134   -28471938.47849 -22173493.09248  20623323.670    20623326.870
  23056446.417   -13606013.67449 -10343720.02746  23056445.805    23056449.319
  21860862.622   -16905375.90949 -13154913.32947  21860862.270    21860866.811
  20876595.868   -25766228.00349 -20044617.11848  20876595.624    20876596.950
  22660091.836   -15112433.85249 -11750843.64346  22660091.256    22660095.745
 04  2 29  2 30 30.0000000  0  8G18G 9G15G14G21G 3G22G31
  22471158.539   -16541320.33449 -12844995.06146  22471158.001    22471160.837
  23653356.037   -11205342.09949  -8717496.42645  23653355.753    23653360.016
  20135367.644    -1002101.36749   -716615.09948  20135366.876    20135371.140
  20614425.971   -28518698.85949 -22209929.71448  20614425.470    20614428.627
  23073218.709   -13517874.65849 -10275040.27646  23073218.093    23073221.717
  21868385.271   -16865844.15349 -13124109.35947  21868384.892    21868389.465
  20881146.545   -25742313.89049 -20025982.72248  20881146.313    20881147.652
  22655122.097   -15138549.53449 -11771193.48046  22655121.536    22655126.090
 04  2 29  2 31  0.0000000  0  8G18G 9G15G14G21G 3G22G31
  22483433.736   -16476813.11449 -12794729.68246  22483433.233    22483436.112
  23657610.262   -11182984.64249  -8700075.02345  23657609.998    23657614.434
  20138924.291     -983410.82549   -702051.02948  20138923.523    20138927.802
  20605625.165   -28564947.16549 -22245967.32248  20605624.673    20605627.807
  23090040.493   -13429475.67849 -10206157.95946  23090039.869    23090043.485
  21876000.196   -16825827.12349 -13092927.25847  21875999.871    21876004.455
  20885732.289   -25718215.60349 -20007204.82048  20885732.039    20885733.366
  22650260.577   -15164096.54149 -11791100.21446  22650260.031    22650264.556
 04  2 29  2 31 30.0000000  0  8G18G 9G15G14G21G 3G22G31
  22495725.263   -16412220.50749 -12744397.76146  22495724.774    22495727.709
  23661977.330   -11160035.03549  -8682192.20945  23661977.064    23661981.534
  20142566.964     -964268.35449   -687134.80248  20142566.222    20142570.493
  20596921.702   -28610684.10749 -22281606.46348  20596921.208    20596924.327
  23106911.280   -13340818.97149 -10137074.81946  23106910.669    23106914.302
  21883707.003   -16785328.03849 -13061369.53047  21883706.645    21883711.164
  20890352.672   -25693935.16749 -19988284.98248  20890352.430    20890353.760
  22645507.280   -15189075.67949 -11810564.44646  22645506.702    22645511.108
 04  2 29  2 32  0.0000000  0  8G18G 9G15G14G21G 3G22G31
  22508032.638   -16347544.61949 -12694000.96146  22508032.164    22508035.093
  23666456.809   -11136495.32449  -8663849.54045  23666456.623    23666460.987
  20146295.513     -944674.83349   -671867.11148  20146294.760    20146299.008
  20588315.410   -28655910.35049 -22316847.66148  20588314.916    20588318.014
  23123830.652   -13251907.25449 -10067792.97946  23123830.025    23123833.602
  21891504.822   -16744350.37549 -13029438.88447  21891504.437    21891508.943
  20895007.264   -25669474.99749 -19969225.09648  20895007.028    20895008.332
  22640861.731   -15213487.97149 -11829586.97946  22640861.198    22640865.646
 04  2 29  2 32 30.0000000  0  8G18G 9G15G14G21G 3G22G31
  22520356.481   -16282782.33149 -12643536.82946  22520355.982    22520358.944
  23671049.341   -11112362.15849  -8645044.45045  23671049.084    23671053.389
  20150110.687     -924625.97749   -656244.61248  20150109.909    20150114.153
  20579807.130   -28700621.51949 -22351687.49848  20579806.636    20579809.705
  23140798.959   -13162738.07049  -9998310.49146  23140798.398    23140802.017
  21899393.946   -16702892.58949 -12997134.10947  21899393.595    21899398.094
  20899696.686   -25644832.02649 -19950022.76648  20899696.451    20899697.747
  22636324.813   -15237329.27549 -11848164.59646  22636324.279    22636328.732
 04  2 29  2 33  0.0000000  0  8G18G 9G15G14G21G 3G22G31
  22532695.973   -16217937.63149 -12593008.47646  22532695.460    22532698.456
  23675753.981   -11087638.97149  -8625779.62045  23675753.687    23675758.131
  20154011.984     -904124.51949   -640269.43448  20154011.208    20154015.443
  20571396.314   -28744820.42849 -22386128.16948  20571395.839    20571398.884
  23157815.504   -13073315.41249  -9928630.49745  23157814.879    23157818.593
  21907373.509   -16660959.76149 -12964459.18047  21907373.131    21907377.595
  20904420.091   -25620010.24049 -19930681.09648  20904419.871    20904421.151
  22631896.077   -15260602.25849 -11866299.36546  22631895.575    22631899.950
 04  2 29  2 33 30.0000000  0  8G18G 9G15G14G21G 3G22G31
  22545051.354   -16153009.44949 -12542415.07246  22545050.866    22545053.863
  23680571.120   -11062324.54549  -8606054.08845  23680570.892    23680575.339
  20157999.790     -883168.28549   -623939.88448  20157999.028    20158003.287
  20563083.496   -28788504.56349 -22420167.72248  20563083.004    20563086.023
  23174880.302   -12983638.98649  -9858752.76745  23174879.695    23174883.432
  21915443.388   -16618552.47249 -12931414.53347  21915443.004    21915447.438
  20909177.666   -25595008.95349 -19911199.55948  20909177.428    20909178.701
  22627575.909   -15283305.12049 -11883989.88546  22627575.366    22627579.728
 04  2 29  2 34  0.0000000  0  8G18G 9G15G14G21G 3G22G31
  22557422.776   -16087997.39449 -12491756.31246  22557422.242    22557425.192
  23685500.805   -11036418.65949  -8585867.67045  23685500.569    23685504.913
  20162074.360     -861756.12349   -607255.07448  20162073.597    20162077.860
  20554868.847   -28831672.64949 -22453805.16348  20554868.351    20554871.365
  23191993.481   -12893708.96749  -9788677.43045  23191992.877    23191996.499
  21923603.259   -16575672.04449 -12898001.21147  21923602.895    21923607.291
  20913969.442   -25569828.16749 -19891578.15548  20913969.210    20913970.457
  22623364.335   -15305436.64649 -11901235.21046  22623363.811    22623368.200
 04  2 29  2 34 30.0000000  0  8G18G 9G15G14G21G 3G22G31
  22569809.328   -16022905.65549 -12441035.46246  22569808.787    22569811.751
  23690542.281   -11009925.65949  -8565223.73345  23690541.969    23690546.298
  20166235.092     -839891.23749   -590217.48648  20166234.336    20166238.592
  20546751.803   -28874327.83549 -22487042.93648  20546751.330    20546754.299
  23209154.018   -12803530.14849  -9718408.22645  23209153.357    23209156.979
  21931852.080   -16532324.41349 -12864223.83647  21931851.705    21931856.062
  20918794.429   -25544472.51949 -19871820.49348  20918794.190    20918795.420
  22619260.897   -15327000.22149 -11918037.97346  22619260.382    22619264.719
 04  2 29  2 35  0.0000000  0  8G18G 9G15G14G21G 3G22G31
  22582212.165   -15957728.22849 -12390247.84646  22582211.660    22582214.546
  23695696.668   -10982839.32849  -8544117.47845  23695696.361    23695700.578
  20170483.302     -817566.73949   -572821.76348  20170482.555    20170486.793
  20538733.746   -28916463.02749 -22519875.52148  20538733.241    20538736.221
  23226362.634   -12713097.81249  -9647941.46345  23226361.994    23226365.720
  21940190.659   -16488504.76449 -12830078.65047  21940190.292    21940194.671
  20923653.853   -25518936.04249 -19851921.92648  20923653.616    20923654.864
  22615266.901   -15347988.98249 -11934392.83846  22615266.377    22615270.686
 04  2 29  2 35 30.0000000  0  8G18G 9G15G14G21G 3G22G31
  22594630.423   -15892469.97749 -12339397.24446  22594629.893    22594632.773
  23700962.932   -10955164.52249  -8522552.69345  23700962.545    23700966.927
  20174818.196     -794786.45749   -555070.87848  20174817.445    20174821.722
  20530813.780   -28958082.16249 -22552305.98348  20530813.304    20530816.300
  23243618.566   -12622417.03449  -9577281.12145  23243617.938    23243621.662
  21948617.787   -16444219.68349 -12795570.78247  21948617.438    21948621.849
  20928546.687   -25493223.96549 -19831886.52248  20928546.439    20928547.697
  22611381.431   -15368406.90249 -11950302.87946  22611380.917    22611385.231
 04  2 29  2 36  0.0000000  0  8G18G 9G15G14G21G 3G22G31
  22607063.911   -15827131.35749 -12288484.02046  22607063.386    22607066.292
  23706341.067   -10926901.74049  -8500529.74745  23706340.792    23706345.168
  20179240.027     -771549.53949   -536964.17648  20179239.283    20179243.530
  20522992.313   -28999184.31949 -22584333.60848  20522991.838    20522994.814
  23260921.708   -12531488.68549  -9506427.87445  23260921.039    23260924.710
  21957133.211   -16399471.32049 -12760701.92647  21957132.833    21957137.186
  20933472.859   -25467336.58849 -19811714.52648  20933472.628    20933473.881
  22607604.765   -15388253.59349 -11965767.81746  22607604.231    22607608.456
 04  2 29  2 36 30.0000000  0  8G18G 9G15G14G21G 3G22G31
  22619512.514   -15761713.61849 -12237509.15346  22619512.017    22619514.887
  23711830.908   -10898052.43249  -8478049.77345  23711830.701    23711835.061
  20183748.655     -747856.54949   -518502.09548  20183747.902    20183752.145
  20515269.103   -29039769.91449 -22615958.71648  20515268.605    20515271.569
  23278271.504   -12440315.03849  -9435383.47245  23278270.818    23278274.454
  21965736.155   -16354262.62749 -12725474.36247  21965735.748    21965740.117
  20938432.050   -25441275.86149 -19791407.45248  20938431.815    20938433.073
  22603936.667   -15407529.66649 -11980788.11846  22603936.111    22603940.345
 04  2 29  2 37  0.0000000  0  8G18G 9G15G14G21G 3G22G31
  22631976.966   -15696212.19449 -12186469.06646  22631976.479    22631979.340
  23717433.223   -10868612.47649  -8455109.48945  23717432.883    23717437.210
  20188345.045     -723702.25249   -499680.54748  20188344.290    20188348.531
  20507645.232   -29079833.57749 -22647177.12048  20507644.733    20507647.683
  23295668.672   -12348892.13249  -9364144.83245  23295668.015    23295671.644
  21974427.221   -16308590.60149 -12689885.76247  21974426.841    21974431.194
  20943425.035   -25415037.40049 -19770961.87648  20943424.789    20943426.038
  22600378.113   -15426229.93049 -11995359.72746  22600377.564    22600381.859
 04  2 29  2 37 30.0000000  0  8G18G 9G15G14G21G 3G22G31
  22644456.440   -15630632.04349 -12135367.63946  22644455.959    22644458.802
  23723146.980   -10838586.63349  -8431712.70545  23723146.737    23723150.895
  20193028.534     -699090.38649   -480502.46248  20193027.798    20193032.011
  20500119.931   -29119379.20349 -22677991.86648  20500119.433    20500122.382
  23313112.143   -12257225.40649  -9292716.21845  23313111.539    23313115.220
  21983205.288   -16262461.73249 -12653941.18947  21983204.874    21983209.223
  20948450.980   -25388625.94649 -19750381.50748  20948450.749    20948451.963
  22596928.396   -15444358.32349 -12009485.73546  22596927.852    22596932.047
 04  2 29  2 38  0.0000000  0  8G18G 9G15G14G21G 3G22G31
  22656951.020   -15564972.54649 -12084204.38046  22656950.560    22656953.385
  23728972.294   -10807974.19749  -8407858.86745  23728972.055    23728976.337
  20197799.409     -674019.22149   -460966.47948  20197798.655    20197802.877
  20492693.559   -29158404.71449 -22708401.32348  20492693.074    20492696.021
  23330602.125   -12165314.88749  -9221097.62645  23330601.601    23330605.212
  21992070.053   -16215876.79149 -12617641.22347  21992069.667    21992074.048
  20953509.876   -25362041.22249 -19729666.12048  20953509.647    20953510.844
  22593587.693   -15461913.46249 -12023165.04446  22593587.125    22593591.317
 04  2 29  2 38 30.0000000  0  8G18G 9G15G14G21G 3G22G31
  22669460.514   -15499234.51549 -12032979.92646  22669460.059    22669462.899
  23734908.906   -10776776.46649  -8383548.97045  23734908.714    23734913.171
  20202657.693     -648488.73349   -441072.58148  20202656.932    20202661.164
  20485366.204   -29196910.19049 -22738405.55948  20485365.706    20485368.626
  23348138.410   -12073162.10149  -9149290.26745  23348137.820    23348141.310
  22001021.114   -16168838.46249 -12580987.97847  22001020.740    22001025.100
  20958601.556   -25335284.30449 -19708816.55548  20958601.332    20958602.492
  22590356.062   -15478895.52749 -12036397.80146  22590355.542    22590359.796
 04  2 29  2 39  0.0000000  0  8G18G 9G15G14G21G 3G22G31
  22681985.027   -15433417.85149 -11981694.19446  22681984.529    22681987.337
  23740957.114   -10744993.57549  -8358783.05845  23740956.887    23740961.264
  20207603.542     -622497.97249   -420820.02948  20207602.798    20207607.037
  20478137.968   -29234894.78649 -22768003.91748  20478137.460    20478140.380
  23365720.416   -11980767.81149  -9077294.70645  23365719.839    23365723.358
  22010058.188   -16121348.42849 -12543982.76047  22010057.784    22010062.143
  20963725.967   -25308355.33949 -19687832.92848  20963725.715    20963726.892
  22587233.710   -15495303.80049 -12049183.44846  22587233.154    22587237.484
 04  2 29  2 39 30.0000000  0  8G18G 9G15G14G21G 3G22G31
  22694524.391   -15367523.05349 -11930347.58146  22694523.898    22694526.726
  23747116.477   -10712626.42249  -8333561.85445  23747116.174    23747120.394
  20212636.990     -596047.03849   -400208.90148  20212636.243    20212640.473
  20471008.910   -29272358.16049 -22797196.12548  20471008.416    20471011.318
  23383348.013   -11888133.37349  -9005112.02245  23383347.555    23383351.133
  22019180.675   -16073409.13649 -12506627.46347  22019180.299    22019184.711
  20968882.936   -25281255.16949 -19666715.89548  20968882.675    20968883.854
  22584220.408   -15511138.45949 -12061522.12146  22584219.830    22584224.208
 04  2 29  2 40  0.0000000  0  8G18G 9G15G14G21G 3G22G31
  22707078.698   -15301549.79249 -11878939.82846  22707078.207    22707081.023
  23753386.857   -10679674.91749  -8307885.32445  23753386.603    23753390.811
  20217758.226     -569134.76449   -379238.28848  20217757.468    20217761.708
  20463979.213   -29309299.44849 -22825981.51348  20463978.712    20463981.574
  23401021.608   -11795259.25649  -8932742.60545  23401021.070    23401024.550
  22028388.370   -16025022.06249 -12468923.25547  22028388.004    22028392.428
  20974072.449   -25253983.86849 -19645465.51048  20974072.192    20974073.379
  22581316.506   -15526398.76049 -12073413.24746  22581315.920    22581320.174
 04  2 29  2 40 30.0000000  0  8G18G 9G15G14G21G 3G22G31
  22719647.530   -15235500.26549 -11827472.65246  22719647.045    22719649.785
  23759767.839   -10646141.84349  -8281755.65545  23759767.625    23759771.928
  20222966.924     -541762.63449   -357909.34448  20222966.172    20222970.425
  20457048.549   -29345720.05949 -22854361.17748  20457048.070    20457050.922
  23418740.214   -11702148.65149  -8860188.88145  23418739.504    23418742.858
  22037680.601   -15976191.26549 -12430873.27847  22037680.182    22037684.626
  20979294.118   -25226543.74949 -19624083.57948  20979293.867    20979295.065
  22578521.583   -15541086.27749 -12084858.03346  22578520.975    22578525.295
 04  2 29  2 41  0.0000000  0  8G18G 9G15G14G21G 3G22G31
  22732231.315   -15169371.98449 -11775944.12046  22732230.794    22732233.565
  23766260.009   -10612025.11549  -8255171.19245  23766259.770    23766264.115
  20228263.772     -513927.60649   -336219.70148  20228263.015    20228267.248
  20450217.627   -29381616.67549 -22882332.53648  20450217.149    20450219.991
  23436503.766   -11608799.84049  -8787449.55045  23436503.157    23436506.553
  22047057.270   -15926916.32349 -12392477.21347  22047056.870    22047061.362
  20984548.313   -25198932.66549 -19602568.43148  20984548.060    20984549.280
  22575836.078   -15555198.14449 -12095854.26146  22575835.485    22575839.885
 04  2 29  2 41 30.0000000  0  8G18G 9G15G14G21G 3G22G31
  22744829.462   -15103167.86149 -11724356.48946  22744828.992    22744831.729
  23772862.773   -10577327.73549  -8228134.24945  23772862.500    23772866.854
  20233648.320     -485631.47649   -314170.76648  20233647.567    20233651.779
  20443486.115   -29416991.05949 -22909896.96548  20443485.619    20443488.466
  23454312.034   -11515216.02249  -8714527.09645  23454311.468    23454314.976
  22056517.692   -15877201.43049 -12353738.34047  22056517.301    22056521.805
  20989834.448   -25171153.64649 -19580922.43048  20989834.210    20989835.429
  22573259.795   -15568736.42849 -12106403.56346  22573259.238    22573263.584
 04  2 29  2 42  0.0000000  0  8G18G 9G15G14G21G 3G22G31
  22757442.160   -15036887.59049 -11672709.51246  22757441.701    22757444.444
  23779575.901   -10542050.00949  -8200645.10945  23779575.632    23779579.951
  20239120.833     -456873.28649   -291761.77248  20239120.089    20239124.281
  20436854.073   -29451842.54749 -22937053.93848  20436853.581    20436856.432
  23472165.217   -11421398.04549  -8641422.18545  23472164.529    23472167.829
  22066061.509   -15827048.39049 -12314658.04147  22066061.114    22066065.620
  20995152.587   -25143206.64649 -19559145.52848  20995152.339    20995153.552
  22570792.777   -15581700.74249 -12116505.59146  22570792.206    22570796.528
 04  2 29  2 42 30.0000000  0  8G18G 9G15G14G21G 3G22G31
  22770069.486   -14970530.87849 -11621002.99046  22770069.029    22770071.700
  23786399.428   -10506192.02249  -8172703.79445  23786399.099    23786403.331
  20244681.487     -427651.79349   -268991.76848  20244680.739    20244684.949
  20430321.774   -29486169.84249 -22963802.45148  20430321.303    20430324.118
  23490062.731   -11327346.33149  -8568135.13645  23490062.048    23490065.356
  22075688.378   -15776458.58049 -12275237.40447  22075688.009    22075692.519
  21000502.695   -25115091.49549 -19537237.60448  21000502.445    21000503.684
  22568435.162   -15594089.97449 -12126159.50746  22568434.608    22568438.941
 04  2 29  2 43  0.0000000  0  8G18G 9G15G14G21G 3G22G31
  22782711.125   -14904098.79149 -11569237.71946  22782710.638    22782713.302
  23793332.931   -10469755.34149  -8144311.56445  23793332.648    23793336.860
  20250330.236     -397967.47349   -245861.12348  20250329.469    20250333.683
  20423889.134   -29519973.54849 -22990142.97348  20423888.646    20423891.468
  23508004.223   -11233062.63249  -8494667.32745  23508003.687    23508007.010
  22085397.839   -15725435.13449 -12235478.87347  22085397.428    22085401.967
  21005884.580   -25086809.49549 -19515199.66948  21005884.319    21005885.544
  22566186.767   -15605905.09049 -12135366.05946  22566186.234    22566190.511
 04  2 29  2 43 30.0000000  0  8G18G 9G15G14G21G 3G22G31
  22795366.981   -14837591.56749 -11517413.90446  22795366.507    22795369.222
  23800376.510   -10432741.04849  -8115469.26145  23800376.263    23800380.545
  20256067.047     -367820.26449   -222369.78348  20256066.287    20256070.511
  20417556.149   -29553253.43049 -23016075.32248  20417555.670    20417558.496
  23525989.725   -11138548.45949  -8421019.91745  23525989.146    23525992.449
  22095189.318   -15673980.41749 -12195384.28447  22095188.899    22095193.489
  21011298.055   -25058361.30849 -19493032.23448  21011297.801    21011299.010
  22564047.726   -15617146.08349 -12144125.25046  22564047.155    22564051.392
 04  2 29  2 44  0.0000000  0  8G18G 9G15G14G21G 3G22G31
  22808037.175   -14771009.31149 -11465531.62346  22808036.695    22808039.452
  23807529.914   -10395149.59749  -8086177.22445  23807529.720    23807534.000
  20261892.046     -337209.62049   -198517.32448  20261891.275    20261895.519
  20411322.974   -29586008.90649 -23041599.03848  20411322.476    20411325.296
  23544018.921   -11043804.92649  -8347193.77845  23544018.245    23544021.609
  22105062.433   -15622096.46149 -12154955.21447  22105062.044    22105066.676
  21016743.100   -25029747.41049 -19470735.67548  21016742.842    21016744.043
  22562017.909   -15627812.86249 -12152436.98846  22562017.320    22562021.520
 04  2 29  2 44 30.0000000  0  8G18G 9G15G14G21G 3G22G31
  22820721.417   -14704352.93349 -11413591.58046  22820720.924    22820723.825
  23814792.846   -10356982.70849  -8056436.78945  23814792.642    23814796.972
  20267805.174     -306135.76349   -174303.91848  20267804.411    20267808.653
  20405189.506   -29618240.22349 -23066714.32048  20405189.022    20405191.829
  23562091.296   -10948833.52849  -8273190.10845  23562090.674    23562094.062
  22115016.792   -15569786.14649 -12114193.92447  22115016.393    22115021.045
  21022219.480   -25000968.67449 -19448310.67048  21022219.220    21022220.427
  22560097.240   -15637905.96949 -12160301.72346  22560096.660    22560100.782
 04  2 29  2 45  0.0000000  0  8G18G 9G15G14G21G 3G22G31
  22833420.055   -14637620.78449 -11361592.50946  22833419.603    22833422.596
  23822165.516   -10318239.44649  -8026247.21945  23822165.338    23822169.511
  20273806.916     -274596.40749   -149727.78948  20273806.166    20273810.380
  20399156.280   -29649945.09849 -23091419.39448  20399155.768    20399158.586
  23580207.220   -10853633.45849  -8199008.23645  23580206.642    23580210.002
  22125052.208   -15517049.60249 -12073100.50947  22125051.795    22125056.412
  21027727.519   -24972023.61749 -19425756.07048  21027727.257    21027728.454
  22558286.165   -15647423.38249 -12167717.86846  22558285.534    22558289.633
 04  2 29  2 45 30.0000000  0  8G18G 9G15G14G21G 3G22G31
  22846132.579   -14570815.86949 -11309536.72646  22846132.112    22846135.114
  23829647.287   -10278923.10249  -7995611.09545  23829647.079    23829651.167
  20279896.748     -242593.93149   -124790.79348  20279895.990    20279900.206
  20393222.691   -29681125.94249 -23115716.13048  20393222.206    20393225.027
  23598365.819   -10758208.52349  -8124651.14645  23598365.302    23598368.721
  22135167.779   -15463891.73849 -12031678.79247  22135167.402    22135172.044
  21033266.569   -24942915.64149 -19403074.51948  21033266.313    21033267.519
  22556583.894   -15656367.97449 -12174687.65146  22556583.342    22556587.510
 04  2 29  2 46  0.0000000  0  8G18G 9G15G14G21G 3G22G31
  22858859.281   -14503936.62349 -11257423.02446  22858858.831    22858861.817
  23837238.090   -10239032.96149  -7964527.85645  23837237.823    23837241.950
  20286075.094     -210126.49349    -99491.47948  20286074.333    20286078.573
  20387389.248   -29711780.85449 -23139603.04548  20387388.745    20387391.566
  23616567.421   -10662558.54849  -8050118.69745  23616566.811    23616570.214
  22145363.346   -15410313.33649 -11989929.37347  22145362.974    22145367.632
  21038836.877   -24913643.37449 -19380264.94648  21038836.627    21038837.836
  22554991.236   -15664737.93149 -12181209.66946  22554990.655    22554994.750
 04  2 29  2 46 30.0000000  0  8G18G 9G15G14G21G 3G22G31
  22871599.645   -14436985.85449 -11205253.59146  22871599.151    22871602.079
  23844937.413   -10198572.60849  -7933000.30445  23844937.064    23844941.337
  20292341.493     -177196.30449    -73831.58348  20292340.745    20292344.968
  20381655.367   -29741912.30049 -23163082.06948  20381654.884    20381657.685
  23634811.272   -10566687.03049  -7975413.61245  23634810.561    23634814.043
  22155638.057   -15356319.40649 -11947856.17947  22155637.671    22155642.345
  21044437.808   -24884210.03949 -19357329.86947  21044437.559    21044438.807
  22553507.231   -15672536.14849 -12187286.17146  22553506.623    22553510.768
 04  2 29  2 47  0.0000000  0  8G18G 9G15G14G21G 3G22G31
  22884354.576   -14369958.19749 -11153024.24846  22884354.101    22884356.967
  23852746.105   -10157537.60949  -7901024.97845  23852745.818    23852749.985
  20298697.081     -143797.30749    -47806.38748  20298696.345    20298700.549
  20376022.297   -29771514.28749 -23186148.52648  20376021.804    20376024.604
  23653097.905   -10470589.59849  -7900532.49745  23653097.351    23653100.811
  22165992.537   -15301906.28249 -11905456.33547  22165992.163    22165996.809
  21050070.401   -24854610.39049 -19334265.19647  21050070.180    21050071.407
  22552133.033   -15679757.01749 -12192912.80146  22552132.533    22552136.627
 04  2 29  2 47 30.0000000  0  8G18G 9G15G14G21G 3G22G31
  22897122.804   -14302860.63749 -11100740.43246  22897122.362    22897125.148
  23860662.731   -10115935.63349  -7868607.84245  23860662.527    23860666.586
  20305140.661     -109936.11749    -21421.04148  20305139.904    20305144.144
  20370488.687   -29800593.49049 -23208807.62148  20370488.205    20370490.999
  23671426.018   -10374274.18049  -7825481.53845  23671425.603    23671428.933
  22176425.036   -15247083.09949 -11862736.96647  22176424.651    22176429.292
  21055733.361   -24824851.48949 -19311076.43047  21055733.109    21055734.367
  22550867.571   -15686407.40149 -12198094.90446  22550867.010    22550871.056
 04  2 29  2 48  0.0000000  0  8G18G 9G15G14G21G 3G22G31
  22909904.763   -14235690.90649 -11048400.38046  22909904.293    22909907.079
  23868687.488   -10073765.46849  -7835747.94345  23868687.271    23868691.250
  20311672.660      -75610.17349      5326.45348  20311671.902    20311676.127
  20365055.088   -29829147.12049 -23231057.17648  20365054.606    20365057.383
  23689796.040   -10277739.56849  -7750259.76745  23689795.396    23689798.845
  22186935.529   -15191849.99649 -11819698.17247  22186935.155    22186939.812
  21061426.930   -24794931.46949 -19287762.11547  21061426.678    21061427.933
  22549710.971   -15692485.03949 -12202830.69146  22549710.401    22549714.566
 04  2 29  2 48 30.0000000  0  8G18G 9G15G14G21G 3G22G31
  22922700.110   -14168450.52249 -10996005.27346  22922699.645    22922702.440
  23876819.909   -10031028.94349  -7802446.75145  23876819.682    23876823.699
  20318292.902      -40820.35949     32435.40748  20318292.169    20318296.404
  20359721.289   -29857176.22749 -23252898.01348  20359720.819    20359723.591
  23708207.164   -10180988.19449  -7674869.07945  23708206.490    23708209.932
  22197523.406   -15136210.43149 -11776342.66147  22197523.005    22197527.679
  21067150.834   -24764851.98049 -19264323.53847  21067150.575    21067151.846
  22548663.048   -15697991.39449 -12207121.32646  22548662.496    22548666.708
 04  2 29  2 49  0.0000000  0  8G18G 9G15G14G21G 3G22G31
  22935509.574   -14101136.26049 -10943552.58146  22935509.127    22935511.887
  23885060.554    -9987723.86549  -7768702.52845  23885060.316    23885064.391
  20325002.181       -5562.95349     59908.71448  20325001.424    20325005.654
  20354487.997   -29884677.33149 -23274327.42048  20354487.522    20354490.275
  23726659.891   -10084017.85149  -7599307.76745  23726659.265    23726662.758
  22208188.704   -15080163.23549 -11732669.51347  22208188.371    22208193.085
  21072905.725   -24734609.91749 -19240758.28147  21072905.461    21072906.739
  22547724.559   -15702923.13249 -12210964.22746  22547724.006    22547728.208
 04  2 29  2 49 30.0000000  0  8G18G 9G15G14G21G 3G22G31
  22948332.897   -14033749.10949 -10891043.10346  22948332.470    22948335.234
  23893408.994    -9943852.22549  -7734516.83045  23893408.788    23893412.922
  20331800.269       30161.38849     87745.87048  20331799.528    20331803.745
  20349355.090   -29911650.98749 -23295345.82448  20349354.615    20349357.346
  23745154.045    -9986830.69149  -7523577.51645  23745153.442    23745157.038
  22218931.202   -15023711.36549 -11688681.03847  22218930.844    22218935.498
  21078691.210   -24704206.81349 -19217067.53247  21078690.946    21078692.200
  22546895.089   -15707281.51649 -12214360.33146  22546894.550    22546898.868
 04  2 29  2 50  0.0000000  0  8G18G 9G15G14G21G 3G22G31
  22961169.418   -13966292.79049 -10838479.74246  22961168.973    22961171.770
  23901864.346    -9899418.70249  -7699893.31245  23901864.164    23901868.399
  20338686.589       66349.16249    115944.13348  20338685.831    20338690.061
  20344321.826   -29938100.85949 -23315956.09348  20344321.369    20344324.055
  23763688.700    -9889431.31249  -7447681.91045  23763687.862    23763691.556
  22229749.475   -14966861.04049 -11644382.08547  22229749.095    22229753.738
  21084506.627   -24673646.49849 -19193254.29347  21084506.370    21084507.614
  22546174.146   -15711070.04049 -12217312.41646  22546173.589    22546177.896
 04  2 29  2 50 30.0000000  0  8G18G 9G15G14G21G 3G22G31
  22974019.339   -13898766.30249 -10785861.69546  22974018.887    22974021.690
  23910426.705    -9854423.37049  -7664832.02245  23910426.556    23910430.655
  20345661.322      103001.67049    144504.53648  20345660.552    20345664.807
  20339388.499   -29964025.74949 -23336157.28248  20339388.015    20339390.702
  23782263.447    -9791819.88049  -7371621.04845  23782262.703    23782266.277
  22240643.254   -14909613.63449 -11599773.71047  22240642.883    22240647.555
  21090352.065   -24642928.41149 -19169318.10947  21090351.813    21090353.062
  22545561.721   -15714288.33349 -12219820.16246  22545561.113    22545565.398
 04  2 29  2 51  0.0000000  0  8G18G 9G15G14G21G 3G22G31
  22986882.909   -13831168.19149 -10733187.82746  22986882.432    22986885.214
  23919096.115    -9808865.52749  -7629332.39945  23919095.915    23919099.960
  20352724.835      140120.78749    173428.53348  20352724.082    20352728.369
  20334555.436   -29989423.61849 -23355947.80348  20334554.961    20334557.617
  23800878.588    -9693995.96549  -7295394.62145  23800878.065    23800881.426
  22251612.584   -14851969.56449 -11554856.24447  22251612.239    22251616.873
  21096227.843   -24612050.92449 -19145257.71547  21096227.586    21096228.831
  22545058.110   -15716934.50049 -12221882.07546  22545057.542    22545061.866
 04  2 29  2 51 30.0000000  0  8G18G 9G15G14G21G 3G22G31
  22999760.026   -13763498.15349 -10680457.92146  22999759.588    22999762.414
  23927872.236    -9762746.29549  -7593395.35345  23927871.979    23927876.128
  20359877.284      177707.14649    202716.60548  20359876.541    20359880.783
  20329822.701   -30014294.20249 -23375327.45548  20329822.217    20329824.879
  23819534.343    -9595960.25349  -7219003.16245  23819533.811    23819537.083
  22262657.015   -14793930.99549 -11509631.38847  22262656.624    22262661.215
  21102133.937   -24581014.25249 -19121073.28647  21102133.687    21102134.921
  22544663.379   -15719008.84349 -12223498.42346  22544662.854    22544667.124
 04  2 29  2 52  0.0000000  0  8G18G 9G15G14G21G 3G22G31
  23012650.314   -13695759.09449 -10627674.23146  23012649.854    23012652.680
  23936754.630    -9716069.31649  -7557023.66145  23936754.459    23936758.486
  20367118.184      215758.31349    232366.86548  20367117.428    20367121.658
  20325189.821   -30038640.05249 -23394298.22748  20325189.354    20325192.007
  23838229.613    -9497716.95649  -7142449.93245  23838228.908    23838232.106
  22273775.476   -14735502.68549 -11464102.82347  22273775.136    22273779.765
  21108069.753   -24549821.32849 -19096767.10247  21108069.507    21108070.723
  22544377.021   -15720514.04849 -12224671.28946  22544376.423    22544380.672
 04  2 29  2 52 30.0000000  0  8G18G 9G15G14G21G 3G22G31
  23025553.822   -13627950.63749 -10574836.46446  23025553.381    23025556.198
  23945742.984    -9668835.53649  -7520218.11245  23945742.807    23945746.767
  20374447.569      254274.45449    262379.44948  20374446.824    20374451.047
  20320656.846   -30062461.07149 -23412860.03448  20320656.352    20320659.011
  23856963.801    -9399266.72649  -7065735.45445  23856963.168    23856966.719
  22284967.806   -14676686.95049 -11418272.37547  22284967.418    22284972.032
  21114035.248   -24518472.25249 -19072339.24147  21114034.998    21114036.220
  22544198.742   -15721450.43649 -12225400.92546  22544198.216    22544202.406
 04  2 29  2 53  0.0000000  0  8G18G 9G15G14G21G 3G22G31
  23038470.624   -13560072.25149 -10521944.20646  23038470.188    23038473.018
  23954837.095    -9621045.43249  -7482979.06645  23954836.902    23954840.906
  20381865.621      293256.29849    292754.91248  20381864.859    20381869.063
  20316223.917   -30085756.15149 -23431012.02448  20316223.431    20316226.073
  23875737.454    -9300610.12349  -6988860.19045  23875736.881    23875740.524
  22296233.480   -14617485.56049 -11372141.42347  22296233.109    22296237.709
  21120030.573   -24486966.54649 -19047789.33147  21120030.337    21120031.557
  22544129.077   -15721817.46849 -12225686.90246  22544128.504    22544132.616
 04  2 29  2 53 30.0000000  0  8G18G 9G15G14G21G 3G22G31
  23051400.946   -13492122.76049 -10468996.55746  23051400.508    23051403.355
  23964037.191    -9572698.89149  -7445306.41945  23964036.943    23964040.967
  20389372.575      332705.65849    323494.67848  20389371.812    20389376.005
  20311891.272   -30108524.08849 -23448753.25348  20311890.791    20311893.441
  23894550.597    -9201746.93349  -6911823.94245  23894549.987    23894553.507
  22307572.361   -14557899.29649 -11325710.56547  22307572.009    22307576.619
  21126055.912   -24455303.27349 -19023116.64347  21126055.666    21126056.850
  22544167.682   -15721614.19249 -12225528.48146  22544167.058    22544171.327
 04  2 29  2 54  0.0000000  0  9G18G25G 9G15G14G21G 3G22G31
  23064344.054   -13424106.38649 -10415996.77946  23064343.607    23064346.464
  24497016.325    -4643514.80149  -3597139.49845  24497016.109    24497021.885
  23973342.013    -9523801.71249  -7407204.68145  23973341.800    23973345.812
  20396967.701      372618.28749    354595.42848  20396966.934    20396971.119
  20307658.181   -30130769.03149 -23466086.95348  20307657.721    20307660.352
  23913401.933    -9102683.03549  -6834631.28845  23913401.218    23913404.734
  22318983.188   -14497934.96449 -11278985.11547  22318982.800    22318987.466
  21132110.263   -24423487.38049 -18998325.02947  21132110.005    21132111.179
  22544313.858   -15720845.42349 -12224929.43346  22544313.327    22544317.444
 04  2 29  2 54 30.0000000  0  9G18G25G 9G15G14G21G 3G22G31
  23077299.978   -13356022.67849 -10362944.53746  23077299.558    23077302.438
  24478324.592    -4741739.77849  -3673678.36045  24478324.519    24478330.146
  23982751.562    -9474354.28349  -7368674.18345  23982751.347    23982755.319
  20404651.130      412995.05949    386057.85548  20404650.364    20404654.533
  20303524.764   -30152490.33949 -23483012.62448  20303524.283    20303526.907
  23932291.227    -9003418.46149  -6757282.27145  23932290.550    23932294.213
  22330465.664   -14437594.12449 -11231966.26347  22330465.290    22330469.944
  21138193.804   -24391518.06549 -18973413.86347  21138193.553    21138194.744
  22544567.974   -15719510.68449 -12223889.36346  22544567.331    22544571.400
 04  2 29  2 55  0.0000000  0  9G18G25G 9G15G14G21G 3G22G31
  23090269.159   -13287869.15449 -10309837.88946  23090268.710    23090271.671
  24459622.630    -4840018.39949  -3750259.01945  24459622.566    24459628.294
  23992266.032    -9424355.37049  -7329713.96245  23992265.730    23992269.747
  20412423.391      453838.44949    417883.87448  20412422.614    20412426.791
  20299491.390   -30173685.72949 -23499528.48948  20299490.915    20299493.517
  23951219.156    -8903951.95349  -6679775.89445  23951218.506    23951222.073
  22342019.858   -14376876.88349 -11184654.12447  22342019.432    22342024.042
  21144306.962   -24359393.11649 -18948381.42447  21144306.711    21144307.908
  22544929.888   -15717608.12649 -12222406.81246  22544929.301    22544933.584
 04  2 29  2 55 30.0000000  0  9G18G25G 9G15G14G21G 3G22G31
  23103251.417   -13219646.78349 -10256677.61146  23103250.942    23103253.888
  24440910.804    -4938348.93149  -3826880.14345  24440910.799    24440916.590
  24001885.011    -9373807.32449  -7290325.87245  24001884.731    24001888.795
  20420284.229      495147.63349    450072.84548  20420283.442    20420287.649
  20295557.950   -30194356.13849 -23515635.28448  20295557.468    20295560.050
  23970185.159    -8804286.14249  -6602114.23445  23970184.326    23970187.784
  22353644.878   -14315786.62949 -11137051.32947  22353644.464    22353649.072
  21150449.458   -24327113.82049 -18923228.72147  21150449.229    21150450.415
  22545399.656   -15715139.02049 -12220482.82646  22545399.135    22545403.279
 04  2 29  2 56  0.0000000  0  9G18G25G 9G15G14G21G 3G22G31
  23116246.852   -13151355.19749 -10203463.37146  23116246.395    23116249.289
  24422189.909    -5036727.97949  -3903539.05845  24422189.870    24422195.315
  24011608.300    -9322710.68949  -7250510.30245  24011608.030    24011612.218
  20428233.825      536923.09049    482625.15748  20428233.059    20428237.238
  20291724.550   -30214500.96749 -23531332.52948  20291724.052    20291726.626
  23989188.841    -8704421.13349  -6524297.33245  23989187.991    23989191.360
  22365340.538   -14254325.29449 -11089159.37147  22365340.167    22365344.789
  21156621.454   -24294679.92949 -18897955.54747  21156621.226    21156622.417
  22545977.382   -15712103.36649 -12218117.37246  22545976.845    22545980.847
 04  2 29  2 56 30.0000000  0  9G18G25G 9G15G14G21G 3G22G31
  23129255.185   -13082995.87149 -10150196.36746  23129254.760    23129257.643
  24403460.171    -5135154.36249  -3980234.85045  24403459.807    24403465.288
  24021435.409    -9271068.42849  -7210269.59145  24021435.047    24021439.381
  20436271.894      579163.49549    515539.75948  20436271.134    20436275.328
  20287990.734   -30234121.93749 -23546621.57848  20287990.257    20287992.812
  24008229.586    -8604360.40149  -6446327.95045  24008228.919    24008232.278
  22377106.215   -14192496.84949 -11040981.36047  22377105.792    22377110.342
  21162822.474   -24262093.29549 -18872563.35847  21162822.243    21162823.426
  22546662.318   -15708503.13449 -12215311.97046  22546661.821    22546666.059
 04  2 29  2 57  0.0000000  0  9G18G25G 9G15G14G21G 3G22G31
  23142276.885   -13014566.36149 -10096874.68546  23142276.455    23142279.316
  24384722.351    -5233623.00549  -4056963.56045  24384721.938    24384727.223
  24031366.524    -9218879.68449  -7169603.06245  24031366.211    24031370.591
  20444398.920      621871.36049    548818.61848  20444398.158    20444402.368
  20284357.133   -30253216.67149 -23561500.57248  20284356.642    20284359.162
  24027307.956    -8504102.61049  -6368204.99445  24027307.391    24027310.660
  22388941.651   -14130301.21749 -10992517.23146  22388941.219    22388945.794
  21169053.053   -24229351.59649 -18847050.33747  21169052.810    21169053.988
  22547455.298   -15704336.46049 -12212065.19946  22547454.782    22547459.024
 04  2 29  2 57 30.0000000  0  9G18G25G 9G15G14G21G 3G22G31
  23155311.253   -12946070.43049 -10043501.23746  23155310.802    23155313.611
  24365976.237    -5332134.60149  -4133725.73045  24365975.756    24365980.893
  24041400.760    -9166149.52149  -7128514.60445  24041400.534    24041404.875
  20452614.188      665042.94349    582458.81648  20452613.430    20452617.634
  20280822.928   -30271788.92949 -23575972.43848  20280822.459    20280824.986
  24046423.045    -8403652.47149  -6289932.17045  24046422.378    24046425.778
  22400845.695   -14067744.55849 -10943771.78246  22400845.328    22400849.948
  21175312.370   -24196458.80249 -18821419.58147  21175312.116    21175313.262
  22548355.240   -15699607.60549 -12208380.37546  22548354.679    22548358.704
 04  2 29  2 58  0.0000000  0  9G18G25G 9G15G14G21G 3G22G31
  23168358.355   -12877507.65849  -9990075.69846  23168357.899    23168360.631
  24347222.405    -5430686.09349  -4210518.96345  24347222.039    24347227.014
  24051537.867    -9112878.86449  -7087004.98445  24051537.597    24051541.934
  20460917.791      708678.56149    616460.58948  20460917.042    20460921.216
  20277388.197   -30289838.56849 -23590037.07848  20277387.727    20277390.249
  24065574.512    -8303011.10749  -6211510.33745  24065573.790    24065577.236
  22412818.133   -14004829.06749 -10894746.73446  22412817.759    22412822.304
  21181600.371   -24163414.99149 -18795671.14847  21181600.113    21181601.273
  22549361.917   -15694316.74849 -12204257.61746  22549361.362    22549365.548
 04  2 29  2 58 30.0000000  0  9G18G25G 9G15G14G21G 3G22G31
  23181418.419   -12808876.51349  -9936596.88546  23181417.939    23181420.734
  24328461.701    -5529272.96449  -4287339.76445  24328461.467    24328466.480
  24061777.893    -9059067.49149  -7045074.03845  24061777.638    24061781.901
  20469310.005      752779.88849    650825.26448  20469309.242    20469313.432
  20274053.194   -30307364.02149 -23603693.25048  20274052.705    20274055.217
  24084762.554    -8202177.72749  -6132938.87745  24084761.776    24084765.249
  22424858.764   -13941555.38049 -10845442.55046  22424858.353    22424862.904
  21187917.477   -24130218.47249 -18769803.71547  21187917.210    21187918.366
  22550475.865   -15688462.94249 -12199696.18146  22550475.330    22550479.632
 04  2 29  2 59  0.0000000  0  9G18G25G 9G15G14G21G 3G22G31
  23194491.124   -12740178.77249  -9883066.17246  23194490.708    23194493.423
  24309694.538    -5627894.29549  -4364187.39345  24309694.279    24309699.520
  24072120.183    -9004718.62249  -7002724.25545  24072119.948    24072124.106
  20477790.437      797344.91149    685551.25548  20477789.701    20477793.868
  20270817.561   -30324367.45149 -23616942.65648  20270817.065    20270819.558
  24103986.378    -8101155.70649  -6054220.46545  24103985.639    24103989.259
  22436966.616   -13877927.99049 -10795862.75946  22436966.212    22436970.792
  21194263.218   -24096871.38749 -18743818.96047  21194262.937    21194264.102
  22551696.514   -15682048.54549 -12194697.94146  22551695.956    22551700.147
 04  2 29  2 59 30.0000000  0  9G18G25G 9G15G14G21G 3G22G31
  23207576.683   -12671413.84849  -9829483.10646  23207576.309    23207578.975
  24290921.498    -5726546.45649  -4441059.05645  24290921.216    24290926.455
  24082564.532    -8949833.17849  -6959956.36045  24082564.257    24082568.413
  20486359.313      842374.40749    720639.17848  20486358.539    20486362.707
  20267681.349   -30340848.11649 -23629784.71348  20267680.857    20267683.363
  24123246.099    -7999945.52549  -5975355.40245  24123245.355    24123248.860
  22449141.409   -13813948.59649 -10746008.68746  22449141.063    22449145.687
  21200637.615   -24063373.55049 -18717716.73647  21200637.364    21200638.521
  22553023.711   -15675073.55449 -12189262.86946  22553023.197    22553027.342
 04  2 29  3  0  0.0000000  0  9G18G25G 9G15G14G21G 3G22G31
  23220674.857   -12602582.68449  -9775848.42646  23220674.432    23220677.173
  24272142.765    -5825228.23949  -4517953.78745  24272142.646    24272147.796
  24093110.418    -8894413.87249  -6916772.47045  24093110.116    24093114.322
  20495016.284      887867.09049    756088.01848  20495015.516    20495019.674
  20264644.352   -30356807.57249 -23642220.63548  20264643.879    20264646.353
  24142541.114    -7898549.74149  -5896345.70545  24142540.477    24142543.868
  22461382.636   -13749620.82449 -10695883.16346  22461382.258    22461386.812
  21207040.522   -24029726.07949 -18691497.91647  21207040.252    21207041.388
  22554457.449   -15667539.79049 -12183392.39146  22554456.884    22554461.087
 04  2 29  3  0 30.0000000  0  9G18G25G 9G15G14G21G 3G22G31
  23233785.913   -12533683.53949  -9722160.78446  23233785.465    23233788.223
  24253359.230    -5923934.86249  -4594867.87545  24253359.189    24253364.434
  24103757.899    -8838460.57249  -6873172.48745  24103757.666    24103761.876
  20503761.662      933824.56149    791899.03448  20503760.892    20503765.062
  20261706.820   -30372244.38249 -23654249.29748  20261706.333    20261708.806
  24161871.202    -7796968.08449  -5817191.18845  24161870.775    24161874.093
  22473689.954   -13684945.70949 -10645486.96446  22473689.588    22473694.105
  21213472.129   -23995927.57549 -18665161.40847  21213471.889    21213472.997
  22555997.639   -15659446.28049 -12177085.73646  22555997.058    22556001.272
 04  2 29  3  1  0.0000000  0  9G18G25G 9G15G14G21G 3G22G31
  23246909.633   -12464717.79549  -9668421.25246  23246909.200    23246911.948
  24234571.341    -6022664.67249  -4671800.02545  24234571.425    24234576.693
  24114506.583    -8781976.01849  -6829158.52345  24114506.425    24114510.515
  20512595.262      980245.55849    828071.23648  20512594.516    20512598.686
  20258868.440   -30387159.95049 -23665871.80248  20258867.948    20258870.440
  24181236.419    -7695202.84849  -5737893.61045  24181235.859    24181239.355
  22486062.627   -13619926.88549 -10594822.94646  22486062.233    22486066.792
  21219932.253   -23961979.40049 -18638708.27347  21219932.007    21219933.123
  22557643.843   -15650794.95049 -12170344.42746  22557643.258    22557647.371
 04  2 29  3  1 30.0000000  0  9G18G25G 9G15G14G21G 3G22G31
  23260046.062   -12395685.36149  -9614629.74146  23260045.605    23260048.402
  24215779.818    -6121414.65649  -4748747.90545  24215779.855    24215785.029
  24125356.070    -8724961.37649  -6784731.52745  24125355.814    24125360.119
  20521517.185     1027130.34049    864604.83348  20521516.430    20521520.567
  20256129.290   -30401554.12249 -23677088.01948  20256128.804    20256131.302
  24200636.534    -7593254.77049  -5658453.55545  24200635.829    24200639.389
  22498500.256   -13554566.40349 -10543892.70146  22498499.903    22498504.463
  21226420.892   -23927881.45049 -18612138.42947  21226420.665    21226421.762
  22559396.326   -15641586.15349 -12163168.73946  22559395.775    22559399.720
 04  2 29  3  2  0.0000000  0  9G18G25G 9G15G14G21G 3G22G31
  23273194.226   -12326591.53549  -9560790.38846  23273193.733    23273196.608
  24196983.884    -6220187.64149  -4825713.71845  24196983.917    24196989.089
  24136304.961    -8667423.99549  -6739897.18545  24136304.734    24136309.024
  20530526.195     1074473.01549    901495.23148  20530525.433    20530529.546
  20253488.174   -30415433.17849 -23687902.84648  20253487.682    20253490.197
  24220070.088    -7491131.11449  -5578876.68145  24220069.365    24220072.809
  22511001.434   -13488872.49949 -10492702.64446  22511001.068    22511005.571
  21232936.880   -23893639.64949 -18585456.49147  21232936.654    21232937.731
  22561253.493   -15631826.52949 -12155563.81146  22561252.890    22561257.026
 04  2 29  3  2 30.0000000  0  9G18G25G 9G15G14G21G 3G22G31
  23286356.260   -12257425.24949  -9506894.58646  23286355.732    23286358.581
  24178186.200    -6318969.79149  -4902686.68545  24178186.250    24178191.299
  24147355.143    -8609354.45749  -6694648.20145  24147355.053    24147359.194
  20539624.458     1122284.49349    938750.92348  20539623.684    20539627.789
  20250947.173   -30428786.21549 -23698307.79048  20250946.671    20250949.169
  24239538.942    -7388822.08149  -5499155.35845  24239538.107    24239541.437
  22523567.673   -13422836.77749 -10441246.24046  22523567.279    22523571.731
  21239482.325   -23859242.92849 -18558653.83747  21239482.102    21239483.174
  22563217.381   -15621505.67049 -12147521.56446  22563216.870    22563221.018
 04  2 29  3  3  0.0000000  0  9G18G25G 9G15G14G21G 3G22G31
  23299530.190   -12188195.85949  -9452949.60546  23299529.611    23299532.496
  24159385.595    -6417767.27449  -4979671.60845  24159385.626    24159390.675
  24158504.693    -8550763.35449  -6648992.77745  24158504.536    24158508.693
  20548810.164     1170555.73849    976364.87748  20548809.385    20548813.484
  20248504.503   -30441622.50449 -23708310.07948  20248504.002    20248506.486
  24259040.983    -7286338.08249  -5419297.68445  24259040.196    24259043.171
  22536196.643   -13356470.79749 -10389532.49246  22536196.266    22536200.766
  21246055.528   -23824700.50949 -18531737.65947  21246055.302    21246056.370
  22565286.385   -15610633.41249 -12139049.67846  22565285.818    22565289.854
 04  2 29  3  3 30.0000000  0  9G18G25G 9G15G14G21G 3G22G31
  23312716.373   -12118901.93949  -9398954.33446  23312715.832    23312718.590
  24140582.897    -6516575.82249  -5056665.16445  24140582.952    24140587.948
  24169753.447    -8491650.79249  -6602931.04345  24169753.228    24169757.425
  20558083.623     1219287.96649   1014338.04448  20558082.835    20558086.949
  20246160.371   -30453940.95949 -23717908.85148  20246159.885    20246162.363
  24278576.286    -7183679.04849  -5339303.62345  24278575.652    24278578.648
  22548888.335   -13289775.45549 -10337562.09346  22548887.960    22548892.481
  21252656.706   -23790011.26249 -18504707.06047  21252656.442    21252657.500
  22567460.280   -15599209.13049 -12130147.61646  22567459.733    22567463.876
 04  2 29  3  4  0.0000000  0  9G18G25G 9G15G14G21G 3G22G31
  23325915.231   -12049541.22949  -9344907.03546  23325914.696    23325917.413
  24121778.932    -6615390.90349  -5133663.81745  24121778.940    24121783.814
  24181101.449    -8432016.61049  -6556462.83045  24181101.272    24181105.479
  20567445.068     1268482.87349   1052671.73648  20567444.295    20567448.443
  20243915.074   -30465740.17549 -23727103.02748  20243914.580    20243917.038
  24298144.983    -7080844.43249  -5259172.74445  24298144.325    24298147.483
  22561642.509   -13222751.71849 -10285335.81046  22561642.120    22561646.673
  21259286.035   -23755173.65549 -18477560.86447  21259285.803    21259286.881
  22569739.539   -15587231.91349 -12120814.71346  22569738.975    22569743.086
 04  2 29  3  4 30.0000000  0  9G18G25G 9G15G14G21G 3G22G31
  23339126.287   -11980116.15049  -9290809.58646  23339125.740    23339128.564
  24102973.848    -6714211.77449  -5210666.98545  24102973.829    24102978.616
  24192548.045    -8371864.93649  -6509591.38845  24192547.848    24192551.939
  20576894.033     1318137.71049   1091363.81248  20576893.253    20576897.433
  20241767.969   -30477023.04349 -23735894.85548  20241767.466    20241769.949
  24317746.437    -6977838.09449  -5178908.04645  24317745.465    24317748.902
  22574458.187   -13155404.63149 -10232857.56246  22574457.828    22574462.398
  21265943.185   -23720190.09649 -18450300.93647  21265942.934    21265944.014
  22572123.278   -15574705.12149 -12111053.56246  22572122.755    22572126.732
 04  2 29  3  5  0.0000000  0  9G18G25G 9G15G14G21G 3G22G31
  23352349.943   -11910625.02249  -9236660.65746  23352349.385    23352352.298
  24084168.483    -6813034.15049  -5287671.34245  24084168.457    24084173.158
  24204093.074    -8311195.81749  -6462316.74245  24204092.795    24204096.802
  20586430.781     1368253.77749   1130415.28848  20586430.011    20586434.224
  20239719.394   -30487788.36049 -23744283.39448  20239718.894    20239721.364
  24337380.749    -6874659.58349  -5098509.21245  24337379.703    24337383.261
  22587335.359   -13087735.03749 -10180128.01246  22587334.924    22587339.523
  21272628.336   -23685059.18649 -18422926.18947  21272628.096    21272629.187
  22574611.724   -15561628.03349 -12100863.61046  22574611.182    22574615.177
 04  2 29  3  5 30.0000000  0  9G18G25G 9G15G14G21G 3G22G31
  23365586.173   -11841067.91049  -9182460.30346  23365585.712    23365588.691
  24065363.458    -6911855.23249  -5364674.70645  24065363.276    24065368.096
  24215736.083    -8250011.24049  -6414640.44945  24215735.675    24215739.971
  20596055.212     1418830.66049   1169825.84348  20596054.458    20596058.665
  20237769.175   -30498036.71549 -23752269.10748  20237768.684    20237771.146
  24357047.733    -6771310.38849  -5017977.36345  24357046.667    24357049.834
  22600273.144   -13019746.01349 -10127149.54346  22600272.757    22600277.413
  21279341.485   -23649781.21249 -18395436.84847  21279341.229    21279342.358
  22577204.769   -15548001.66049 -12090245.64946  22577204.257    22577208.223
 04  2 29  3  6  0.0000000  0  9G18G25G 9G15G14G21G 3G22G31
  23378834.832   -11771446.16149  -9128209.59246  23378834.340    23378837.309
  24046559.167    -7010672.82649  -5441675.34845  24046558.964    24046563.626
  24227476.510    -8188313.93249  -6366564.62745  24227476.187    24227480.334
  20605767.219     1469867.38449   1209594.71948  20605766.445    20605770.634
  20235917.090   -30507769.47949 -23759853.05948  20235916.606    20235919.069
  24376746.613    -6667792.89249  -4937314.37345  24376745.520    24376748.659
  22613271.250   -12951440.85149 -10073924.74246  22613270.848    22613275.467
  21286082.453   -23614357.25349 -18367833.75147  21286082.212    21286083.306
  22579901.844   -15533828.09249 -12079201.29546  22579901.320    22579905.315
 04  2 29  3  6 30.0000000  0  9G18G25G 9G15G14G21G 3G22G31
  23392095.549   -11701760.84749  -9073909.34046  23392095.090    23392097.985
  24027755.701    -7109486.05949  -5518672.60545  24027755.401    24027759.972
  24239314.057    -8126106.88949  -6318091.63145  24239313.692    24239317.974
  20615566.337     1521362.16549   1249720.52147  20615565.571    20615569.742
  20234162.767   -30516988.46649 -23767036.66548  20234162.271    20234164.731
  24396476.688    -6564110.07749  -4856522.57945  24396475.713    24396478.870
  22626328.744   -12882823.29649 -10020456.51646  22626328.329    22626332.910
  21292850.885   -23578788.82849 -18340118.08447  21292850.636    21292851.727
  22582702.635   -15519109.63849 -12067732.35646  22582702.130    22582706.125
 04  2 29  3  7  0.0000000  0 10G18G25G 9G15G14G11G21G 3G22G31
  23405368.318   -11632011.91649  -9019559.52046  23405367.882    23405370.593
  24008953.538    -7208292.14549  -5595664.27445  24008953.148    24008957.683
  24251248.320    -8063392.19449  -6269222.99845  24251247.950    24251251.862
  20625452.533     1573314.48049   1290202.84347  20625451.797    20625455.974
  20232506.047   -30525694.41349 -23773820.50348  20232505.568    20232508.024
  24629309.033    -3669507.44149  -2840073.86545  24629308.564    24629312.141
  24416237.775    -6460263.53149  -4775603.20045  24416236.871    24416240.067
  22639445.023   -12813896.77849  -9966747.53846  22639444.638    22639449.215
  21299646.688   -23543076.62749 -18312290.38347  21299646.422    21299647.511
  22585607.035   -15503847.45049 -12055839.73546  22585606.500    22585610.484
 04  2 29  3  7 30.0000000  0 10G18G25G 9G15G14G11G21G 3G22G31
  23418653.216   -11562198.99849  -8965159.83946  23418652.793    23418655.391
  23990153.307    -7307087.46849  -5672647.57645  23990152.813    23990157.505
  24263278.858    -8000171.03949  -6219959.73345  24263278.641    24263282.496
  20635425.880     1625724.73149   1331041.99347  20635425.132    20635429.296
  20230947.047   -30533887.05049 -23780204.36048  20230946.547    20230949.002
  24610326.875    -3769258.51849  -2917801.90845  24610326.426    24610329.958
  24436029.995    -6356253.54349  -4694556.44845  24436029.308    24436032.515
  22652619.780   -12744662.95049  -9912799.10846  22652619.418    22652623.931
  21306469.991   -23507219.87749 -18284350.05047  21306469.728    21306470.794
  22588614.469   -15488042.00249 -12043523.78846  22588613.978    22588618.118
 04  2 29  3  8  0.0000000  0 10G18G25G 9G15G14G11G21G 3G22G31
  23431950.790   -11492320.45549  -8910709.03546  23431950.348    23431952.771
  23971355.989    -7405867.65649  -5749619.06345  23971355.496    23971360.126
  24275405.627    -7936443.94349  -6170302.23345  24275405.376    24275409.290
  20645486.503     1678593.89849   1372238.74647  20645485.778    20645489.968
  20229485.796   -30541565.78749 -23786187.77248  20229485.299    20229487.768
  24591357.929    -3868940.26349  -2995475.93945  24591357.567    24591361.004
  24455853.349    -6252080.50949  -4613382.65345  24455852.925    24455856.168
  22665852.753   -12675122.99149  -9858612.12746  22665852.367    22665856.877
  21313321.060   -23471217.28049 -18256296.06947  21313320.785    21313321.865
  22591725.617   -15471693.01149 -12030784.30646  22591725.124    22591729.229
 04  2 29  3  8 30.0000000  0 10G18G25G 9G15G14G11G21G 3G22G31
  23445260.922   -11422375.44649  -8856206.45646  23445260.414    23445262.865
  23952562.204    -7504629.10149  -5826575.95945  23952561.727    23952566.401
  24287628.686    -7872211.75749  -6120251.16745  24287628.354    24287632.252
  20655634.613     1731922.57549   1413793.55447  20655633.892    20655638.074
  20228122.407   -30548730.19149 -23791770.41048  20228121.933    20228124.387
  24572402.876    -3968549.68349  -3073093.63345  24572402.520    24572405.941
  24475707.908    -6147744.62749  -4532081.96145  24475707.441    24475710.583
  22679143.733   -12605278.71949  -9804188.01746  22679143.326    22679147.863
  21320200.003   -23435068.02849 -18228127.81547  21320199.743    21320200.810
  22594940.282   -15454800.59649 -12017621.38946  22594939.709    22594943.742
 04  2 29  3  9  0.0000000  0  9G18G25G 9G15G14G11G 3G22G31
  23458583.402   -11352364.93449  -8801652.79046  23458582.911    23458585.542
  23933772.343    -7603369.64949  -5903516.58745  23933771.925    23933776.638
  24299947.363    -7807477.23749  -6069808.66045  24299947.076    24299950.965
  20665869.820     1785709.14749   1455705.16947  20665869.087    20665873.341
  20226856.700   -30555381.71649 -23796953.39848  20226856.209    20226858.622
  24553461.785    -4068085.63249  -3150654.05645  24553461.193    24553464.787
  22692491.840   -12535133.72249  -9749529.56946  22692491.485    22692496.010
  21327106.622   -23398773.41749 -18199846.28647  21327106.352    21327107.415
  22598257.553   -15437366.91449 -12004036.68046  22598257.033    22598261.297
 04  2 29  3  9 30.0000000  0  8G18G25G15G14G11G 3G22G31
  23471918.075   -11282289.91149  -8747048.86946  23471917.640    23471920.551
  23914986.664    -7702088.20049  -5980440.06945  23914986.281    23914990.999
  20676191.868     1839951.78849   1497972.15947  20676191.121    20676195.364
  20225688.121   -30561522.48749 -23801738.39848  20225687.648    20225690.042
  24534534.796    -4167547.53549  -3228156.79945  24534534.375    24534537.758
  22705896.459   -12464692.05549  -9694639.96746  22705896.085    22705900.625
  21334040.612   -23362334.97449 -18171452.68847  21334040.341    21334041.441
  22601677.655   -15419394.53349 -11990032.22246  22601677.184    22601681.281
 04  2 29  3 10  0.0000000  0  8G18G25G15G14G11G 3G22G31
  23485265.281   -11212149.67749  -8692394.12645  23485264.800    23485267.915
  23896206.034    -7800780.40849  -6057343.01445  23896205.691    23896210.309
  20686600.899     1894651.53649   1540595.33947  20686600.155    20686604.429
  20224616.874   -30567151.92749 -23806124.95648  20224616.389    20224618.805
  24515622.563    -4266931.86849  -3305599.05245  24515622.178    24515625.505
  22719357.130   -12393955.32449  -9639520.43346  22719356.777    22719361.335
  21341002.240   -23325751.36949 -18142945.97147  21341001.992    21341003.077
  22605200.387   -15400883.35549 -11975607.93546  22605199.796    22605203.748
 04  2 29  3 10 30.0000000  0  8G18G25G15G14G11G 3G22G31
  23498624.637   -11141945.65449  -8637689.69245  23498624.191    23498627.237
  23877430.732    -7899445.32249  -6134224.67445  23877430.309    23877434.814
  20697096.446     1949806.15949   1583572.96947  20697095.719    20697099.984
  20223642.422   -30572272.58549 -23810115.05948  20223641.944    20223644.337
  24496725.071    -4366238.30049  -3382980.58145  24496724.780    24496728.101
  22732873.121   -12322927.96749  -9584174.44246  22732872.799    22732877.406
  21347991.063   -23289024.72149 -18114327.79347  21347990.784    21347991.903
  22608824.671   -15381836.41149 -11960766.13846  22608824.177    22608828.287
 04  2 29  3 11  0.0000000  0  8G18G25G15G14G11G 3G22G31
  23511995.945   -11071679.96449  -8582937.22445  23511995.414    23511998.285
  23858661.028    -7998081.80849  -6211084.19645  23858660.443    23858664.801
  20707678.117     2005413.16449   1626903.09847  20707677.383    20707681.653
  20222764.342   -30576886.88449 -23813710.59848  20222763.862    20222766.226
  24477842.539    -4465466.52349  -3460301.18945  24477842.173    24477845.642
  22746443.752   -12251614.55649  -9528605.55446  22746443.345    22746447.896
  21355006.732   -23252157.08049 -18085599.74747  21355006.457    21355007.576
  22612550.698   -15362256.80249 -11945509.30346  22612550.206    22612554.203
 04  2 29  3 11 30.0000000  0  8G18G25G15G14G11G 3G22G31
  23525379.344   -11001349.74049  -8528134.45145  23525378.769    23525381.632
  23839897.763    -8096684.33049  -6287917.26845  23839897.082    23839901.287
  20718346.341     2061474.99449   1670587.64047  20718345.588    20718349.848
  20221982.929   -30580993.01149 -23816910.16348  20221982.453    20221984.850
  24458975.781    -4564611.73349  -3537557.12645  24458975.314    24458978.849
  22760068.671   -12180014.96449  -9472813.66246  22760068.263    22760072.887
  21362049.730   -23215145.86549 -18056759.83047  21362049.461    21362050.579
  22616378.356   -15342143.15149 -11929836.32746  22616377.758    22616381.581
 04  2 29  3 12  0.0000000  0  8G18G25G15G14G11G 3G22G31
  23538775.075   -10930954.10549  -8473280.71145  23538774.585    23538777.484
  23821141.346    -8195249.56949  -6364721.27745  23821140.728    23821144.851
  20729101.060     2117991.57849   1714626.53147  20729100.302    20729104.576
  20221298.214   -30584591.03649 -23819713.80348  20221297.757    20221300.131
  24440125.241    -4663671.70449  -3614746.64145  24440124.754    24440128.353
  22773747.584   -12108131.81849  -9416800.82746  22773747.163    22773751.735
  21369120.108   -23177990.63249 -18027807.69447  21369119.836    21369120.964
  22620307.094   -15321496.24249 -11913747.81246  22620306.558    22620310.515
 04  2 29  3 12 30.0000000  0  8G18G25G15G14G11G 3G22G31
  23552182.792   -10860495.67549  -8418378.03545  23552182.324    23552185.327
  23802391.891    -8293777.19549  -6441495.97745  23802391.388    23802395.689
  20739941.783     2174960.00949   1759017.51447  20739941.038    20739945.284
  20220709.581   -30587684.15149 -23822124.00348  20220709.124    20220711.517
  24421290.869    -4762646.59549  -3691869.85745  24421290.403    24421293.975
  22787479.640   -12035969.97649  -9360570.82846  22787479.197    22787483.664
  21376217.401   -23140693.78449 -17998745.20247  21376217.143    21376218.289
  22624336.982   -15300319.71649 -11897246.62846  22624336.427    22624340.296
 04  2 29  3 13  0.0000000  0  8G18G25G15G14G11G 3G22G31
  23565603.033   -10789971.97449  -8363424.51345  23565602.583    23565605.605
  23783650.528    -8392262.11849  -6518237.40745  23783650.242    23783654.620
  20750868.840     2232381.92249   1803761.86047  20750868.093    20750872.321
  20220217.356   -30590270.74649 -23824139.51648  20220216.895    20220219.285
  24402473.690    -4861531.77449  -3768923.18845  24402473.169    24402476.622
  22801264.358   -11963530.22849  -9304124.27746  22801263.983    22801268.503
  21383342.057   -23103253.46449 -17969570.92047  21383341.791    21383342.954
  22628467.733   -15278612.81749 -11880332.16246  22628467.119    22628470.972
 04  2 29  3 13 30.0000000  0  8G18G25G15G14G11G 3G22G31
  23579035.446   -10719385.14149  -8308421.80145  23579034.954    23579037.840
  23764917.760    -8490703.41249  -6594944.83545  23764917.420    23764921.883
  20761881.707     2290254.88549   1848857.67347  20761880.969    20761885.205
  20219821.028   -30592353.55449 -23825762.46448  20219820.550    20219822.919
  24383673.481    -4960327.03549  -3845906.44945  24383672.945    24383676.507
  22815101.203   -11890816.80049  -9247464.46646  22815100.834    22815105.434
  21390493.654   -23065671.60849 -17940286.34147  21390493.370    21390494.503
  22632698.439   -15256378.69249 -11863006.85946  22632697.919    22632701.977
 04  2 29  3 14  0.0000000  0  8G18G25G15G14G11G 3G22G31
  23592479.660   -10648735.34849  -8253370.03145  23592479.147    23592482.000
  23746193.830    -8589098.74249  -6671616.43945  23746193.422    23746197.828
  20772980.157     2348577.53349   1894303.88447  20772979.406    20772983.629
  20219520.278   -30593934.00249 -23826993.96748  20219519.788    20219522.179
  24364890.599    -5059031.09449  -3922818.64245  24364890.207    24364893.623
  22828989.532   -11817833.17949  -9190594.12246  22828989.130    22828993.749
  21397672.036   -23027948.78749 -17910891.92847  21397671.760    21397672.885
  22637029.568   -15233619.29349 -11845272.27346  22637029.070    22637032.905
 04  2 29  3 14 30.0000000  0  8G18G25G15G14G11G 3G22G31
  23605935.859   -10578022.15349  -8198268.83645  23605935.401    23605938.211
  23727479.269    -8687444.14749  -6748249.16445  23727478.828    23727483.205
  20784164.178     2407349.99149   1940100.59747  20784163.443    20784167.637
  20219315.012   -30595012.45949 -23827834.30748  20219314.530    20219316.916
  24346125.854    -5157640.81749  -3999657.31345  24346125.379    24346128.805
  22842928.742   -11744581.61149  -9133514.97546  22842928.399    22842933.040
  21404877.340   -22990084.71649 -17881387.44447  21404877.062    21404878.158
  22641460.491   -15210335.44849 -11827129.01646  22641459.854    22641463.690
 04  2 29  3 15  0.0000000  0  8G18G25G15G14G11G 3G22G31
  23619404.202   -10507244.39949  -8143117.33945  23619403.767    23619406.683
  23708774.894    -8785735.71249  -6824839.93546  23708774.557    23708778.896
  20795434.012     2466573.22849   1986248.56447  20795433.271    20795437.460
  20219205.473   -30595588.06849 -23828282.82148  20219204.996    20219207.364
  24327379.652    -5256152.83149  -4076419.82845  24327379.056    24327382.517
  22856918.936   -11671063.41249  -9076228.08046  22856918.514    22856923.092
  21412109.826   -22952077.79049 -17851771.65647  21412109.565    21412110.654
  22645990.832   -15186526.98649 -11808576.96346  22645990.317    22645994.350
 04  2 29  3 15 30.0000000  0  8G18G25G15G14G11G 3G22G31
  23632884.232   -10436406.16849  -8087918.72645  23632883.815    23632886.788
  23690080.420    -8883975.11949  -6901390.05546  23690080.169    23690084.487
  20806788.598     2526241.91049   2032743.63747  20806787.860    20806792.036
  20219190.529   -30595666.43049 -23828343.86448  20219190.066    20219192.423
  24308651.479    -5354569.56449  -4153108.11545  24308650.931    24308654.435
  22870958.265   -11597285.87349  -9018739.09346  22870957.896    22870962.479
  21419368.588   -22913932.87649 -17822048.33047  21419368.310    21419369.386
  22650620.323   -15162200.07249 -11789620.94446  22650619.752    22650623.528
 04  2 29  3 16  0.0000000  0  8G18G25G15G14G11G 3G22G31
  23646377.502   -10365499.72449  -8032666.96546  23646377.004    23646379.898
  23671397.872    -8982152.10449  -6977891.52546  23671397.652    23671401.973
  20818229.260     2586362.72549   2079591.01647  20818228.510    20818232.642
  20219271.537   -30595240.81549 -23828012.19948  20219271.050    20219273.405
  24289943.316    -5452881.07049  -4229714.40345  24289942.862    24289946.373
  22885047.824   -11523244.29149  -8961044.34446  22885047.491    22885052.107
  21426655.017   -22875642.55849 -17792211.71147  21426654.726    21426655.769
  22655349.334   -15137348.95049 -11770256.43146  22655348.679    22655352.448
 04  2 29  3 16 30.0000000  0  8G18G25G15G14G11G 3G22G31
  23659882.457   -10294531.46649  -7977367.03246  23659881.915    23659884.845
  23652726.584    -9080269.83249  -7054346.83746  23652726.368    23652730.816
  20829754.637     2646928.85649   2126785.39947  20829753.881    20829757.997
  20219447.040   -30594318.41849 -23827293.43348  20219446.558    20219448.930
  24271254.452    -5551091.63549  -4306242.03845  24271253.971    24271257.452
  22899186.044   -11448947.63449  -8903150.85146  22899185.684    22899190.262
  21433967.923   -22837213.11449 -17762266.68147  21433967.633    21433968.638
  22660176.612   -15111980.23349 -11750488.59746  22660176.086    22660180.083
 04  2 29  3 17  0.0000000  0  8G18G25G15G14G11G 3G22G31
  23673399.157   -10223500.49749  -7922018.22046  23673398.618    23673401.668
  23634067.296    -9178324.38649  -7130752.91746  23634067.126    23634071.614
  20841364.843     2707940.94649   2174327.27547  20841364.104    20841368.207
  20219717.187   -30592898.83349 -23826187.24748  20219716.682    20219719.044
  24252585.367    -5649198.34449  -4382688.76545  24252584.845    24252588.276
  22913372.440   -11374397.63849  -8845059.94146  22913372.093    22913376.675
  21441307.432   -22798643.51149 -17732212.43947  21441307.162    21441308.167
  22665102.540   -15086095.44849 -11730318.64846  22665101.936    22665105.723
 04  2 29  3 17 30.0000000  0  8G18G25G15G14G11G 3G22G31
  23686927.769   -10152406.58249  -7866620.37646  23686927.251    23686930.396
  23615420.574    -9276313.06049  -7207107.67446  23615420.464    23615424.997
  20853059.806     2769398.10449   2222215.95847  20853059.068    20853063.137
  20220081.669   -30590983.39649 -23824694.68648  20220081.169    20220083.544
  24233936.352    -5747198.90549  -4459052.76245  24233935.916    24233939.328
  22927606.360   -11299597.55349  -8786774.16946  22927606.048    22927610.685
  21448673.575   -22759934.16649 -17702049.30847  21448673.303    21448674.336
  22670126.084   -15059696.41049 -11709747.96746  22670125.449    22670129.271
 04  2 29  3 18  0.0000000  0  8G18G25G15G14G11G 3G22G31
  23700468.651   -10081248.80149  -7811172.76745  23700468.197    23700471.138
  23596787.275    -9374231.67449  -7283407.82046  23596787.075    23596791.654
  20864839.451     2831300.58249   2270451.65547  20864838.703    20864842.784
  20220540.521   -30588572.01349 -23822815.66948  20220540.031    20220542.375
  24215308.187    -5845089.75549  -4535331.27945  24215307.871    24215311.312
  22941887.757   -11224548.57949  -8728294.44346  22941887.452    22941892.016
  21456066.518   -22721083.85649 -17671776.33547  21456066.264    21456067.303
  22675247.162   -15032784.32049 -11688777.50746  22675246.613    22675250.567
 04  2 29  3 18 30.0000000  0  8G18G25G15G14G11G 3G22G31
  23714021.781   -10010027.17349  -7755675.41645  23714021.275    23714024.117
  23578167.771    -9472077.86149  -7359651.54045  23578167.485    23578171.954
  20876703.684     2893647.45749   2319033.62647  20876702.949    20876707.025
  20221093.586   -30585665.74949 -23820551.03348  20221093.089    20221095.436
  24196701.384    -5942869.15149  -4611522.95445  24196701.063    24196704.419
  22956216.001   -11149253.86349  -8669623.24246  22956215.622    22956220.136
  21463486.250   -22682092.91149 -17641393.77447  21463485.978    21463487.010
  22680466.145   -15005358.94449 -11667407.09346  22680465.590    22680469.458
 04  2 29  3 19  0.0000000  0  8G18G25G15G14G11G 3G22G31
  23727586.615    -9938743.50349  -7700129.69546  23727586.094    23727588.923
  23559562.265    -9569850.88249  -7435838.24846  23559561.905    23559566.242
  20888651.943     2956435.77649   2367959.58347  20888651.178    20888655.234
  20221740.132   -30582268.02849 -23817903.44548  20221739.641    20221741.978
  24178115.727    -6040537.26249  -4687627.90845  24178115.409    24178118.621
  22970589.812   -11073718.64849  -8610764.64246  22970589.502    22970594.021
  21470932.288   -22642963.68749 -17610903.46447  21470932.023    21470933.062
  22685781.680   -14977425.49949 -11645640.76546  22685781.091    22685785.045
 04  2 29  3 19 30.0000000  0  8G18G25G15G14G11G 3G22G31
  23741163.650    -9867395.54249  -7644533.89046  23741163.134    23741166.019
  23540971.887    -9667544.68149  -7511963.22046  23540971.365    23540975.648
  20900684.575     3019667.71149   2417231.20847  20900683.818    20900687.894
  20222480.613   -30578376.69849 -23814871.22848  20222480.128    20222482.451
  24159552.284    -6138088.74549  -4763641.98345  24159551.980    24159555.110
  22985009.545   -10997942.73549  -8551718.49146  22985009.189    22985013.739
  21478405.206   -22603693.12449 -17580303.02247  21478404.940    21478405.967
  22691194.249   -14948982.07749 -11623477.06446  22691193.693    22691197.726
 04  2 29  3 20  0.0000000  0  8G18G25G15G14G11G 3G22G31
  23754752.472    -9795985.58849  -7588889.76546  23754751.987    23754754.825
  23522396.458    -9765159.18849  -7588026.39845  23522395.865    23522400.153
  20912800.941     3083339.71349   2466845.74847  20912800.190    20912804.252
  20223314.330   -30573995.37249 -23811457.18948  20223313.861    20223316.168
  24141010.895    -6235524.17049  -4839565.61645  24141010.666    24141013.702
  22999474.080   -10921931.45449  -8492488.92746  22999473.676    22999478.242
  21485904.471   -22564284.05349 -17549594.64847  21485904.228    21485905.240
  22696703.084   -14920033.18749 -11600919.48046  22696702.500    22696706.594
 04  2 29  3 20 30.0000000  0  8G18G25G15G14G11G 3G22G31
  23768353.562    -9724511.88549  -7533195.97346  23768353.061    23768355.944
  23503836.926    -9862689.98849  -7664024.37445  23503836.412    23503840.676
  20925001.189     3147452.49349   2516803.75047  20925000.444    20925004.522
  20224241.392   -30569123.64949 -23807661.02848  20224240.899    20224243.217
  24122492.256    -6332840.11249  -4915396.15945  24122491.966    24122495.071
  23013983.026   -10845686.32049  -8433077.14146  23013982.681    23013987.162
  21493430.363   -22524735.28349 -17518777.41447  21493430.118    21493431.111
  22702307.959   -14890579.10849 -11577968.24146  22702307.370    22702311.472
 04  2 29  3 21  0.0000000  0  8G18G25G15G14G11G 3G22G31
  23781966.593    -9652975.64349  -7477453.47046  23781966.107    23781968.916
  23485293.606    -9960135.54449  -7739955.93845  23485293.140    23485297.348
  20937284.940     3212004.08049   2567103.68047  20937284.200    20937288.330
  20225261.310   -30563763.91349 -23803484.59648  20225260.833    20225263.126
  24103996.630    -6430034.98049  -4991132.37345  24103996.411    24103999.418
  23028535.823   -10769211.06149  -8373486.01946  23028535.427    23028539.943
  21500982.614   -22485047.82549 -17487852.11647  21500982.370    21500983.352
  22708008.565   -14860622.60149 -11554625.51746  22708007.993    22708011.954
 04  2 29  3 21 30.0000000  0  8G18G25G15G14G11G 3G22G31
  23795591.762    -9581375.16349  -7421660.90945  23795591.245    23795594.054
  23466767.348   -10057491.18149  -7815817.43945  23466766.966    23466771.037
  20949652.323     3276995.23449   2617746.13347  20949651.578    20949655.747
  20226374.231   -30557915.50649 -23798927.38148  20226373.723    20226376.000
  24085524.680    -6527105.28749  -5066771.51545  24085524.479    24085527.343
  23043132.185   -10692506.96849  -8313716.60646  23043131.762    23043136.281
  21508561.570   -22445220.22449 -17456817.62147  21508561.323    21508562.303
  22713804.637   -14830163.83849 -11530891.40746  22713804.061    22713808.084
 04  2 29  3 22  0.0000000  0  8G18G25G15G14G11G 3G22G31
  23809228.836    -9509711.52249  -7365819.11345  23809228.264    23809231.178
  23448258.460   -10154755.20849  -7891607.53245  23448258.139    23448262.241
  20962102.930     3342423.79649   2668729.42647  20962102.199    20962106.377
  20227579.649   -30551580.73949 -23793991.18648  20227579.158    20227581.449
  24067076.642    -6624050.01149  -5142312.81445  24067076.471    24067079.334
  23057771.191   -10615578.23949  -8253772.15746  23057770.788    23057775.311
  21516166.952   -22405253.72149 -17425674.88347  21516166.728    21516167.657
  22719695.635   -14799205.80949 -11506768.25546  22719695.083    22719699.149
 04  2 29  3 22 30.0000000  0  8G18G25G15G14G11G 3G22G31
  23822877.672    -9437985.30749  -7309928.56645  23822877.215    23822880.194
  23429767.462   -10251925.44349  -7967324.55845  23429767.240    23429771.185
  20974636.573     3408288.37549   2720052.46847  20974635.812    20974640.001
  20228877.280   -30544761.43049 -23788677.42148  20228876.800    20228879.107
  24048652.775    -6720867.54949  -5217754.99345  24048652.564    24048655.552
  23072452.288   -10538428.28849  -8193655.31546  23072451.894    23072456.440
  21523798.644   -22365148.88249 -17394424.34747  21523798.415    21523799.346
  22725681.460   -14767750.80649 -11482257.86146  22725680.898    22725684.800
 04  2 29  3 23  0.0000000  0  8G18G25G15G14G11G 3G22G31
  23836538.808    -9366195.23349  -7253988.25245  23836538.398    23836541.404
  23411295.091   -10348997.86249  -8042965.37945  23411294.928    23411298.850
  20987253.238     3474589.40349   2771715.59947  20987252.467    20987256.670
  20230267.191   -30537457.42649 -23782985.97648  20230266.688    20230268.995
  24030253.708    -6817554.51349  -5293095.44245  24030253.493    24030256.486
  23087175.211   -10461058.56449  -8133367.22746  23087174.831    23087179.441
  21531456.921   -22324904.47149 -17363065.06047  21531456.673    21531457.587
  22731761.567   -14735799.25749 -11457360.53946  22731761.020    22731764.959
 04  2 29  3 23 30.0000000  0  8G18G25G15G14G11G 3G22G31
  23850212.094    -9294341.87249  -7197998.61945  23850211.662    23850214.523
  23392841.771   -10445969.97849  -8118528.03646  23392841.703    23392845.576
  20999952.557     3541325.07049   2823717.41347  20999951.816    20999956.044
  20231749.000   -30529670.34449 -23776918.10848  20231748.522    20231750.856
  24011879.818    -6914109.23949  -5368332.82045  24011879.552    24011882.638
  23101939.255   -10383472.97549  -8072910.93546  23101938.910    23101943.556
  21539141.557   -22284521.28949 -17331597.63847  21539141.313    21539142.237
  22737935.598   -14703354.07049 -11432078.56246  22737935.095    22737939.058
 04  2 29  3 24  0.0000000  0  8G18G25G15G14G11G 3G22G31
  23863897.450    -9222425.57749  -7141959.97845  23863896.948    23863899.704
  23374408.052   -10542839.56849  -8194010.81546  23374408.054    23374411.970
  21012734.347     3608493.96749   2876056.80247  21012733.627    21012737.844
  20233322.387   -30521402.07049 -23770475.28748  20233321.913    20233324.238
  23993531.523    -7010529.90849  -5443465.76545  23993531.275    23993534.324
  23116743.800   -10305674.91849  -8012289.08246  23116743.462    23116748.035
  21546852.495   -22244000.03449 -17300022.62947  21546852.245    21546853.194
  22744203.392   -14670417.26149 -11406413.51646  22744202.846    22744206.686
 04  2 29  3 24 30.0000000  0  8G18G25G15G14G11G 3G22G31
  23877594.750    -9150446.57049  -7085872.46245  23877594.255    23877596.881
  23355994.436   -10639603.86149  -8269411.52546  23355994.412    23355998.317
  21025598.439     3676095.02949   2928732.94447  21025597.692    21025601.959
  20234987.121   -30512653.88049 -23763658.50448  20234986.630    20234988.944
  23975209.085    -7106814.63749  -5518492.76845  23975208.838    23975211.883
  23131588.153   -10227667.20149  -7951503.85446  23131587.834    23131592.418
  21554589.680   -22203340.75549 -17268340.06947  21554589.448    21554590.397
  22750564.186   -14636991.08949 -11380367.14346  22750563.583    22750567.413
 04  2 29  3 25  0.0000000  0  8G18G25G15G14G11G 3G22G31
  23891303.818    -9078404.11649  -7029735.47545  23891303.365    23891306.095
  23337601.649   -10736259.34749  -8344727.45846  23337601.474    23337605.357
  21038544.621     3744127.73149   2981745.43047  21038543.879    21038548.150
  20236743.039   -30503426.39249 -23756468.24048  20236742.545    20236744.866
  23956913.198    -7202960.13349  -5593411.27645  23956912.974    23956915.938
  23146472.066   -10149451.97449  -7890556.93346  23146471.721    23146476.236
  21562353.226   -22162542.99149 -17236549.59547  21562352.984    21562353.971
  22757017.819   -14603076.55149 -11353940.22146  22757017.315    22757021.141
 04  2 29  3 25 30.0000000  0  8G18G25G15G14G11G 3G22G31
  23905024.850    -9006298.90649  -6973549.61045  23905024.407    23905027.328
  23319229.944   -10832803.76449  -8419956.84046  23319229.643    23319233.572
  21051572.677     3812590.60249   3035093.11347  21051571.940    21051576.251
  20238589.770   -30493721.60849 -23748906.06248  20238589.276    20238591.617
  23938644.011    -7298965.47749  -5668220.59545  23938643.732    23938646.688
  23161394.771   -10071032.91049  -7829451.17146  23161394.371    23161398.915
  21570142.989   -22121607.50249 -17204651.80647  21570142.761    21570143.713
  22763564.057   -14568676.43549 -11327134.93846  22763563.503    22763567.354
